     2              OBSERVATION DATA    GPS                 RINEX VERSION / TYPE
teqc 1998Mar9 19980312 00:59:05UTC                          PGM / RUN BY / DATE
                                                            COMMENT
Original Marker Name: unknown                               COMMENT
Campaign Name: Cholame 1989                                 COMMENT
4-Character Station Name: SOLE                              COMMENT
6-Character Antenna Code: TI4100                            COMMENT
Vertical Measurement Point: PAE                             COMMENT
Vertical Offset to Rinex Ref. Point: 0.0000                 COMMENT
Radial Measurement Point: PAE                               COMMENT
Radial Offset to Rinex Ref. Point: 0.0842                   COMMENT
Antenna Height from Field Measurement: 1.5460 m             COMMENT
Original XYZ: -2614468.9525 -4501942.4571 3673238.0457      COMMENT
New XYZ position is based on association with SCEC monument COMMENT
E1F1B6X4+0011. Position of that monument is believed to be  COMMENT
valid to within 1 m horizontally; vertical accuracy         COMMENT
should be no worse than 3-times this value.                 COMMENT
                                                            COMMENT
Revised Rinex header created by UCSD GPS archive for        COMMENT
GSAC on 14-Apr-1999 (1999:104) 03:24:18 GMT                 COMMENT
For assistance contact dagnew@ucsd.edu or hjohnson@ucsd.edu COMMENT
                                                            COMMENT
SLOE                                                        MARKER NAME
unknown UCLA                                                OBSERVER / AGENCY
UN03 TI 4100 1.9                                            REC # / TYPE / VERS
UN03 TI 4100                                                ANT # / TYPE
 -2614461.0000 -4501927.0000  3673230.0000                  APPROX POSITION XYZ
        1.5437        0.0000        0.0000                  ANTENNA: DELTA H/E/N
     1     1     0                                          WAVELENGTH FACT L1/2
     4    P1    P2    L1    L2                              # / TYPES OF OBSERV
     0                                                      INTERVAL
  1989    11    20     9    37   29.000000                  TIME OF FIRST OBS
  1989    11    20    16    28   59.000000                  TIME OF LAST OBS
     0                                                      # OF SATELLITES
                                                            END OF HEADER
 89 11 20  9 37 29.0800000  0  3G 2G 6G11
  22674476.552    22674476.188     1769929.306 9   -552973.082 9
  21882088.072    21882087.804      856135.597 9  -1543226.837 7
  23753997.369    23754000.005      475176.669 8  -1534386.655 9
 89 11 20  9 37 59.0800000  0  3G 2G 6G11
  22689050.934    22689053.474     1846525.293 9   -493287.957 9
  21871459.120    21871459.941      800280.251 9  -1586750.485 8
  23732983.875    23732987.614      364751.597 9  -1620432.138 8
 89 11 20  9 38 29.0800000  0  3G 2G 6G11
  22703643.534    22703644.993     1923209.655 9   -433533.882 9
  21860848.494    21860848.418      744518.372 9  -1630201.288 8
  23711997.327    23712000.542      254470.315 9  -1706365.605 9
 89 11 20  9 38 59.0800000  0  3G 2G 6G11
  22718254.925    22718253.121     1999981.640 8   -373711.602 8
  21850254.142    21850255.292      688851.229 9  -1673578.303 9
  23691039.600    23691042.980      144335.634 9  -1792184.809 9
 89 11 20  9 39 29.0800000  0  3G 2G 6G11
  22732879.141    22732878.947     2076838.572 9   -313823.104 9
  21839680.464    21839680.085      633278.804 9  -1716881.430 8
  23670110.250    23670111.751       34349.411 9  -1877888.321 9
 89 11 20  9 39 59.0800000  0  3G 2G 6G11
  22747517.520    22747522.342     2153779.533 8   -253869.113 9
  21829121.913    21829123.192      577802.885 9  -1760109.401 8
  23649208.832    23649212.621      -75484.773 8  -1963473.389 8
 89 11 20  9 40 29.0800000  0  3G 2G 6G11
  22762174.695    22762178.169     2230804.139 8   -193849.935 9
  21818585.008    21818585.130      522424.467 9  -1803261.411 8
  23628337.013    23628340.300     -185163.850 8  -2048937.551 9
 89 11 20  9 40 59.0800000  0  3G 2G 6G11
  22776848.037    22776852.382     2307909.654 8   -133767.782 9
  21808064.694    21808066.044      467144.274 9  -1846336.880 9
  23607497.399    23607500.124     -294685.332 9  -2134278.903 9
 89 11 20  9 41 29.0800000  0  3G 2G 6G11
  22791538.604    22791538.450     2385096.144 9    -73622.454 9
  21797565.237    21797564.183      411963.819 9  -1889334.621 8
  23586686.833    23586688.590     -404045.775 9  -2219494.808 8
 89 11 20  9 41 59.0800000  0  3G 2G 6G11
  22806241.923    22806242.856     2462363.980 9    -13413.755 9
  21787083.381    21787083.845      356885.913 9  -1932252.444 8
  23565908.228    23565910.027     -513240.968 9  -2304581.987 9
 89 11 20  9 42 29.0800000  0  3G 2G 6G11
  22820962.413    22820959.946     2539710.880 9     46856.523 9
  21776621.388    21776622.683      301910.816 9  -1975090.172 9
  23545160.531    23545162.273     -622268.753 9  -2389538.657 9
 89 11 20  9 42 59.0800000  0  3G 2G 6G11
  22835694.927    22835695.028     2617135.209 9    107187.092 9
  21766180.688    21766180.693      247039.101 9  -2017847.350 9
  23524444.089    23524447.243     -731126.911 9  -2474363.110 9
 89 11 20  9 43 29.0800000  0  3G 2G 6G11
  22850439.582    22850443.086     2694635.613 8    167576.988 9
  21755759.302    21755758.280      192271.589 9  -2060523.296 8
  23503762.373    23503763.686     -839812.847 9  -2559053.406 9
 89 11 20  9 43 59.0800000  0  3G 2G 6G11
  22865204.083    22865205.390     2772211.414 8    228025.661 9
  21745358.037    21745357.586      137610.091 9  -2103116.679 9
  23483113.514    23483115.922     -948322.696 9  -2643606.570 9
 89 11 20  9 44 29.0800000  0  3G 2G 6G11
  22879981.070    22879981.462     2849861.739 9    288532.413 9
  21734975.474    21734975.551       83056.096 9  -2145626.284 8
  23462500.638    23462500.912    -1056653.588 9  -2728020.151 9
 89 11 20  9 44 59.0800000  0  3G 2G 6G11
  22894769.162    22894770.572     2927584.988 9    349095.957 9
  21724615.389    21724615.611       28610.317 9  -2188051.577 9
  23441919.425    23441919.967    -1164803.019 9  -2812292.453 8
 89 11 20  9 45 29.0800000  0  3G 2G 6G11
  22909574.214    22909578.045     3005381.554 7    409716.634 9
  21714275.297    21714276.220      -25724.753 8  -2230390.575 9
  23421372.915    23421375.839    -1272766.809 9  -2896420.093 9
 89 11 20  9 45 59.0800000  0  3G 2G 6G11
  22924392.503    22924391.805     3083249.467 9    470392.939 8
  21703956.853    21703957.458      -79948.256 9  -2272642.645 9
  23400864.718    23400867.266    -1380542.356 9  -2980400.967 9
 89 11 20  9 46 29.0800000  0  3G 2G 6G11
  22939225.354    22939226.400     3161187.806 9    531124.042 9
  21693659.122    21693659.768     -134058.862 9  -2314806.761 8
  23380392.397    23380394.866    -1488126.648 8  -3064232.854 9
 89 11 20  9 46 59.0800000  0  4G 2G 6G11G 9
  22954068.387    22954067.808     3239195.653 9    591909.322 8
  21683384.506    21683384.393     -188055.475 9  -2356882.049 9
  23359956.461    23359958.027    -1595517.262 9  -3147913.817 9
  24474030.481    24474029.197    -3242572.681 6   4253620.890 7
 89 11 20  9 47 29.0800000  0  4G 2G 6G11G 9
  22968928.965    22968926.731     3317271.492 9    652747.660 9
  21673131.340    21673132.516     -241937.348 9  -2398867.925 9
  23339556.677    23339560.454    -1702711.765 8  -3231441.981 8
  24457795.259    24457798.628    -3327876.330 6   4187150.088 7
 89 11 20  9 47 59.0800000  0  4G 2G 6G11G 9
  22983795.471    22983797.184     3395413.805 9    713637.676 9
  21662899.325    21662899.497     -295703.419 9  -2440763.614 9
  23319198.139    23319199.827    -1809707.287 9  -3314815.097 9
  24441554.367    24441554.825    -3413222.922 3   4120646.261 7
 89 11 20  9 48 29.0800000  0  4G 2G 6G11G 9
  22998678.192    22998680.338     3473622.682 9    774579.692 9
  21652690.862    21652691.750     -349351.191 9  -2482567.107 9
  23298874.701    23298878.480    -1916499.748 9  -3398030.017 9
  24425308.536    24425307.728    -3498610.675 6   4054110.397 8
 89 11 20  9 48 59.0800000  0  4G 2G 6G11G 9
  23013573.981    23013573.542     3551897.412 9    835572.921 8
  21642505.579    21642504.922     -402879.094 9  -2524277.161 8
  23278593.432    23278593.824    -2023086.029 9  -3481084.215 8
  24409050.219    24409049.093    -3584039.112 6   3987542.855 7
 89 11 20  9 49 29.0800000  0  4G 2G 6G11G 9
  23028478.906    23028483.125     3630236.826 9    896616.592 9
  21632342.834    21632342.136     -456286.540 9  -2565893.344 9
  23258349.318    23258352.895    -2129463.959 9  -3563976.101 9
  24392789.797    24392785.007    -3669508.000 5   3920943.765 7
 89 11 20  9 49 59.0800000  0  4G 2G 6G11G 9
  23043400.228    23043400.207     3708639.386 9    957709.536 9
  21622202.553    21622203.329     -509571.508 9  -2607414.104 8
  23238147.122    23238148.747    -2235630.047 9  -3646702.877 9
  24376514.485    24376514.268    -3755016.337 5   3854313.980 8
 89 11 20  9 50 29.0800000  0  4G 2G 6G11G 9
  23058333.838    23058335.334     3787104.915 9   1018851.449 9
  21612086.568    21612085.588     -562732.395 9  -2648838.129 8
  23217985.487    23217987.181    -2341581.153 9  -3729262.134 8
  24360235.076    24360235.745    -3840563.268 5   3787654.069 7
 89 11 20  9 50 59.0800000  0  4G 2G 6G11G 9
  23073273.797    23073274.920     3865630.853 9   1080040.430 9
  21601993.811    21601993.887     -615769.418 9  -2690165.697 9
  23197864.509    23197866.576    -2447315.995 9  -3811652.906 9
  24343946.502    24343948.832    -3926149.993 6   3720963.143 8
 89 11 20  9 51 29.0800000  0  4G 2G 6G11G 9
  23088230.595    23088231.841     3944217.265 9   1141276.603 9
  21591924.233    21591924.908     -668680.443 9  -2731395.086 9
  23177786.103    23177787.658    -2552830.950 8  -3893872.285 8
  24327656.991    24327654.622    -4011774.856 6   3654242.507 8
 89 11 20  9 51 59.0800000  0  4G 2G 6G11G 9
  23103197.849    23103196.391     4022863.950 9   1202559.594 9
  21581879.864    21581880.627     -721462.888 9  -2772524.264 8
  23157750.614    23157751.302    -2658121.563 9  -3975916.948 9
  24311351.752    24311354.189    -4097436.289 6   3587493.379 7
 89 11 20  9 52 29.0800000  0  4G 2G 6G11G 9
  23118169.099    23118173.505     4101570.155 9   1263889.153 8
  21571860.828    21571861.505     -774115.413 9  -2813552.211 8
  23137756.244    23137758.657    -2763185.095 9  -4057784.611 8
  24295046.284    24295045.289    -4183133.575 7   3520716.305 8
 89 11 20  9 52 59.0800000  0  4G 2G 6G11G 9
  23133164.096    23133162.575     4180333.500 9   1325263.124 9
  21561865.672    21561866.075     -826638.354 9  -2854479.215 8
  23117806.808    23117809.219    -2868020.614 9  -4139474.622 8
  24278729.807    24278731.778    -4268867.874 7   3453910.395 8
 89 11 20  9 53 29.0800000  0  4G 2G 6G11G 9
  23148158.899    23148161.562     4259152.649 9   1386680.645 9
  21551896.145    21551896.260     -879030.021 9  -2895303.886 9
  23097900.167    23097904.281    -2972624.612 8  -4220984.194 8
  24262410.631    24262408.618    -4354638.464 7   3387076.195 7
 89 11 20  9 53 59.0800000  0  4G 2G 6G11G 9
  23163169.012    23163170.725     4338028.094 8   1448141.927 8
  21541951.772    21541953.492     -931287.774 9  -2936024.210 9
  23078040.550    23078043.267    -3076993.323 8  -4302310.430 9
  24246080.887    24246082.285    -4440443.326 7   3320215.298 6
 89 11 20  9 54 29.0800000  0  4G 2G 6G11G 9
  23178188.249    23178190.451     4416958.782 9   1509646.371 8
  21532034.301    21532034.103     -983410.314 9  -2976639.147 9
  23058225.873    23058227.814    -3181123.969 9  -4383451.156 9
  24229747.884    24229744.487    -4526282.143 8   3253327.950 7
 89 11 20  9 54 59.0800000  0  4G 2G 6G11G 9
  23193222.082    23193221.685     4495943.129 8   1571192.647 9
  21522141.083    21522142.504    -1035396.033 9  -3017147.512 8
  23038455.293    23038458.883    -3285013.646 8  -4464404.152 9
  24213404.211    24213405.101    -4612154.032 8   3186414.726 7
 89 11 20  9 55 29.0800000  0  4G 2G 6G11G 9
  23208261.066    23208261.565     4574980.840 9   1632780.307 9
  21512276.268    21512275.855    -1087244.221 9  -3057548.699 8
  23018732.634    23018735.731    -3388659.906 9  -4545167.415 9
  24197057.378    24197059.300    -4698058.894 8   3119475.900 7
 89 11 20  9 55 59.0800000  0  4G 2G 6G11G 9
  23223308.148    23223311.595     4654070.080 8   1694408.345 9
  21502435.580    21502434.508    -1138953.441 9  -3097841.611 9
  22999056.386    22999058.218    -3492060.407 9  -4625739.238 9
  24180704.073    24180705.073    -4783996.082 8   3052511.875 7
 89 11 20  9 56 29.0800000  0  4G 2G 6G11G 9
  23238371.360    23238370.217     4733211.771 9   1756077.114 8
  21492621.922    21492622.240    -1190520.435 9  -3138023.690 8
  22979426.525    22979429.687    -3595210.479 9  -4706115.865 8
  24164346.389    24164346.732    -4869963.428 8   2985524.356 8
 89 11 20  9 56 59.0800000  0  4G 2G 6G11G 9
  23253440.382    23253441.371     4812403.706 9   1817785.157 8
  21482836.081    21482835.953    -1241945.255 9  -3178094.972 9
  22959846.893    22959848.332    -3698108.698 9  -4786296.296 9
  24147981.313    24147982.503    -4955961.420 9   2918512.956 7
 89 11 20  9 57 29.0800000  0  4G 2G 6G11G 9
  23268521.629    23268519.997     4891644.835 9   1879531.461 8
  21473077.928    21473078.544    -1293226.475 9  -3218054.346 9
  22940313.201    22940316.083    -3800751.943 9  -4866277.995 9
  24131610.539    24131610.565    -5041989.678 8   2851477.947 7
 89 11 20  9 57 59.0800000  0  4G 2G 6G11G 9
  23283607.221    23283607.460     4970935.345 9   1941316.202 9
  21463347.605    21463347.894    -1344361.920 9  -3257900.131 9
  22920830.204    22920833.560    -3903136.621 9  -4946058.257 8
  24115233.157    24115235.951    -5128046.605 8   2784420.612 8
 89 11 20  9 58 29.0800000  0  4G 2G 6G11G 9
  23298706.682    23298708.463     5050273.606 9   2003138.179 9
  21453644.344    21453644.290    -1395350.113 9  -3297631.152 8
  22901397.937    22901399.533    -4005260.161 9  -5025635.002 9
  24098850.702    24098853.729    -5214131.717 8   2717341.323 8
 89 11 20  9 58 59.0800000  0  4G 2G 6G11G 9
  23313813.422    23313814.855     5129658.622 9   2064996.547 9
  21443970.214    21443969.959    -1446190.384 9  -3337246.888 9
  22882013.706    22882015.445    -4107120.702 9  -5105006.801 8
  24082465.156    24082466.558    -5300244.835 8   2650240.223 7
 89 11 20  9 59 29.0800000  0  4G 2G 6G11G 9
  23328927.719    23328928.424     5209089.459 9   2126890.797 9
  21434322.528    21434324.534    -1496880.526 9  -3376745.632 9
  22862680.850    22862684.140    -4208714.592 9  -5184170.879 9
  24066074.111    24066075.332    -5386384.786 9   2583118.177 8
 89 11 20  9 59 59.0800000  0  4G 2G 6G11G 9
  23344051.830    23344054.118     5288566.189 9   2188820.601 8
  21424706.450    21424707.985    -1547418.179 8  -3416125.589 8
  22843399.759    22843402.255    -4310038.397 9  -5263124.411 9
  24049677.789    24049678.171    -5472549.925 8   2515976.534 8
 89 11 20 10  0 29.0800000  0  4G 2G 6G11G 9
  23359183.732    23359183.287     5368087.640 9   2250785.383 9
  21415119.263    21415118.452    -1597802.681 9  -3455386.259 8
  22824169.809    22824171.840    -4411089.849 9  -5341865.817 9
  24033277.079    24033276.143    -5558740.314 8   2448815.172 7
 89 11 20 10  0 59.0800000  0  4G 2G 6G11G 9
  23374322.943    23374327.278     5447652.550 9   2312783.947 9
  21405560.425    21405559.568    -1648033.085 9  -3494526.881 8
  22804992.745    22804995.777    -4511866.868 9  -5420393.323 9
  24016869.632    24016870.856    -5644955.573 8   2381634.494 9
 89 11 20 10  1 29.0800000  0  4G 2G 6G11G 9
  23389473.516    23389468.979     5527260.574 9   2374816.155 7
  21396031.032    21396031.477    -1698106.732 9  -3533545.325 8
  22785867.551    22785870.049    -4612365.648 9  -5498704.063 9
  24000459.609    24000460.094    -5731194.031 8   2314435.685 8
 89 11 20 10  1 59.0800000  0  4G 2G 6G11G 9
  23404630.390    23404631.657     5606911.115 9   2436881.486 9
  21386533.021    21386534.841    -1748021.848 9  -3572440.242 8
  22766798.237    22766800.115    -4712583.466 9  -5576795.873 9
  23984043.482    23984044.287    -5817454.678 8   2247219.579 9
 89 11 20 10  2 29.0800000  0  4G 2G 6G11G 9
  23419797.453    23419797.276     5686602.862 9   2498978.937 9
  21377064.498    21377065.762    -1797777.718 9  -3611211.103 9
  22747780.513    22747782.387    -4812517.970 9  -5654666.859 8
  23967624.743    23967626.074    -5903737.532 8   2179986.180 8
 89 11 20 10  2 59.0800000  0  4G 2G 6G11G 9
  23434968.201    23434970.286     5766335.728 8   2561108.332 9
  21367626.857    21367628.308    -1847371.880 9  -3649855.904 8
  22728818.666    22728821.199    -4912165.767 9  -5732314.501 9
  23951201.662    23951202.582    -5990041.206 8   2112736.536 8
 89 11 20 10  3 29.0800000  0  4G 2G 6G11G 9
  23450149.391    23450149.016     5846108.641 8   2623269.146 9
  21358221.371    21358221.272    -1896802.191 9  -3688373.003 9
  22709910.830    22709913.512    -5011523.451 9  -5809736.003 9
  23934774.931    23934775.196    -6076363.922 8   2045472.105 7
 89 11 20 10  3 59.0800000  0  4G 2G 6G11G 9
  23465335.409    23465336.595     5925920.094 9   2685459.774 8
  21348845.358    21348847.178    -1946068.518 9  -3726762.332 9
  22691060.768    22691061.783    -5110589.569 9  -5886930.406 8
  23918343.051    23918346.352    -6162706.360 8   1978192.292 9
 89 11 20 10  4 29.0800000  0  4G 2G 6G11G 9
  23480529.321    23480530.093     6005769.905 8   2747680.387 8
  21339501.814    21339503.562    -1995168.536 9  -3765022.095 8
  22672265.486    22672266.716    -5209360.953 9  -5963895.042 9
  23901907.840    23901911.456    -6249066.995 7   1910898.321 8
 89 11 20 10  4 59.0800000  0  4G 2G 6G11G 9
  23495732.621    23495735.094     6085658.489 8   2809931.281 9
  21330191.239    21330190.568    -2044099.603 9  -3803150.181 8
  22653525.977    22653527.717    -5307833.696 9  -6040627.062 9
  23885474.371    23885474.487    -6335443.913 8   1843591.625 8
 89 11 20 10  5 29.0800000  0  4G 2G 6G11G 9
  23510942.530    23510944.249     6165583.454 9   2872210.329 9
  21320911.985    21320912.347    -2092861.964 9  -3841146.834 8
  22634844.619    22634846.357    -5406006.888 9  -6117125.649 9
  23869033.726    23869031.615    -6421838.226 7   1776271.395 8
 89 11 20 10  5 59.0800000  0  4G 2G 6G11G 9
  23526159.068    23526159.302     6245543.517 9   2934516.965 8
  21311665.830    21311666.117    -2141453.393 9  -3879010.306 8
  22616218.948    22616221.801    -5503877.265 9  -6193388.256 9
  23852590.620    23852592.430    -6508248.454 8   1708938.754 8
 89 11 20 10  6 29.0800000  0  4G 2G 6G11G 9
  23541383.212    23541384.814     6325540.834 9   2996852.342 9
  21302451.226    21302452.146    -2189870.420 9  -3916737.843 9
  22597652.814    22597655.534    -5601440.651 8  -6269411.667 7
  23836144.077    23836146.035    -6594671.661 8   1641596.047 9
 89 11 20 10  6 59.0800000  0  4G 2G 6G11G 9
  23556611.754    23556610.983     6405572.128 8   3059214.459 9
  21293272.110    21293271.597    -2238113.210 9  -3954329.627 8
  22579145.949    22579149.519    -5698695.665 9  -6345194.781 9
  23819694.884    23819695.576    -6681108.901 8   1574242.322 7
 89 11 20 10  7 29.0800000  0  4G 2G 6G11G 9
  23571846.956    23571846.766     6485636.747 8   3121602.379 9
  21284124.730    21284125.248    -2286180.717 9  -3991784.831 8
  22560698.106    22560699.863    -5795640.420 9  -6420736.124 9
  23803246.132    23803246.230    -6767559.692 7   1506878.139 9
 89 11 20 10  7 59.0800000  0  4G 2G 6G11G 9
  23587088.381    23587089.079     6565735.048 9   3184016.649 8
  21275011.148    21275012.438    -2334069.523 9  -4029100.796 9
  22542310.000    22542312.480    -5892270.429 9  -6496032.231 9
  23786792.082    23786791.632    -6854021.525 9   1439505.269 8
 89 11 20 10  8 29.0800000  0  4G 2G 6G11G 9
  23602338.586    23602339.034     6645867.465 9   3246457.461 9
  21265932.553    21265934.257    -2381776.670 9  -4066275.197 8
  22523982.844    22523984.677    -5988581.769 9  -6571080.002 8
  23770337.696    23770337.024    -6940492.138 9   1372125.595 9
 89 11 20 10  8 59.0800000  0  4G 2G 6G11G 9
  23617594.165    23617594.541     6726031.636 9   3308922.995 9
  21256888.943    21256890.077    -2429302.662 9  -4103308.416 9
  22505716.061    22505717.889    -6084573.697 9  -6645878.858 9
  23753878.642    23753880.428    -7026972.948 7   1304737.892 8
 89 11 20 10  9 29.0800000  0  4G 2G 6G11G 9
  23632853.653    23632853.701     6806225.957 9   3371412.019 9
  21247880.193    21247880.783    -2476646.128 9  -4140199.409 9
  22487510.626    22487511.972    -6180244.415 8  -6720427.477 9
  23737421.272    23737422.740    -7113463.327 8   1237342.795 8
 89 11 20 10  9 59.0800000  0  4G 2G 6G11G 9
  23648120.062    23648119.666     6886450.678 9   3433924.786 9
  21238905.583    21238906.543    -2523804.677 9  -4176946.320 9
  22469368.090    22469369.321    -6275590.215 9  -6794722.857 9
  23720961.216    23720960.818    -7199961.116 8   1169941.933 8
 89 11 20 10 10 29.0800000  0  4G 2G 6G11G 9
  23663389.945    23663392.344     6966706.852 9   3496461.969 9
  21229968.662    21229968.166    -2570774.884 9  -4213546.476 8
  22451286.250    22451288.434    -6370606.722 9  -6868761.686 9
  23704501.320    23704500.907    -7286464.030 9   1102537.018 8
 89 11 20 10 10 59.0800000  0  4G 2G 6G11G 9
  23678671.167    23678666.737     7046992.282 9   3559022.023 6
  21221066.486    21221065.731    -2617556.247 9  -4249999.481 8
  22433268.133    22433270.357    -6465292.460 9  -6942542.763 9
  23688039.677    23688039.972    -7372972.010 9   1035128.255 9
 89 11 20 10 11 29.0800000  0  4G 2G 6G11G 9
  23693952.513    23693954.063     7127304.704 9   3621603.165 9
  21212200.568    21212198.927    -2664148.668 9  -4286305.256 9
  22415313.197    22415314.289    -6559646.922 9  -7016065.710 8
  23671573.444    23671576.114    -7459485.806 8    967714.891 8
 89 11 20 10 11 59.0800000  0  4G 2G 6G11G 9
  23709239.098    23709242.433     7207645.482 8   3684206.270 9
  21203369.465    21203369.869    -2710548.507 9  -4322460.983 8
  22397421.311    22397424.672    -6653665.136 9  -7089326.656 9
  23655114.030    23655111.481    -7546002.399 9    900299.452 7
 89 11 20 10 12 29.0800000  0  4G 2G 6G11G 9
  23724535.000    23724535.840     7288014.516 9   3746831.436 9
  21194576.610    21194577.558    -2756753.704 9  -4358465.031 9
  22379594.921    22379596.396    -6747344.016 9  -7162323.138 9
  23638646.480    23638647.780    -7632520.728 8    832882.520 8
 89 11 20 10 12 59.0800000  0  4G 2G 6G11G 9
  23739830.960    23739833.814     7368410.340 8   3809477.494 8
  21185822.234    21185822.336    -2802763.057 9  -4394316.468 9
  22361833.589    22361836.200    -6840681.751 9  -7235053.842 9
  23622184.907    23622184.404    -7719040.017 9    765464.941 8
 89 11 20 10 13 29.0800000  0  4G 2G 6G11G 9
  23755136.501    23755135.253     7448832.089 9   3872143.782 7
  21177105.219    21177104.463    -2848575.136 9  -4430014.191 8
  22344137.970    22344140.575    -6933676.022 9  -7307516.860 9
  23605720.039    23605721.814    -7805559.675 8    698047.083 8
 89 11 20 10 13 59.0800000  0  4G 2G 6G11G 9
  23770444.853    23770445.727     7529278.865 9   3934829.572 9
  21168424.662    21168424.879    -2894188.246 9  -4465556.867 9
  22326507.244    22326509.662    -7026324.219 9  -7379710.268 8
  23589256.100    23589254.718    -7892078.557 8    630629.699 7
 89 11 20 10 14 29.0800000  0  4G 2G 6G11G 9
  23785759.586    23785759.522     7609751.446 9   3997535.435 9
  21159782.611    21159782.757    -2939599.463 9  -4500942.230 8
  22308944.228    22308945.573    -7118622.672 9  -7451631.114 9
  23572790.528    23572794.523    -7978594.583 8    563214.607 9
 89 11 20 10 14 59.0800000  0  4G 2G 6G11G 9
  23801076.745    23801078.769     7690247.707 8   4060259.738 9
  21151180.049    21151179.837    -2984808.329 9  -4536169.926 8
  22291446.943    22291449.153    -7210570.136 9  -7523278.472 9
  23556330.264    23556327.924    -8065107.692 9    495801.805 8
 89 11 20 10 15 29.0800000  0  4G 2G 6G11G 9
  23816399.273    23816401.489     7770767.673 8   4123002.478 9
  21142616.449    21142615.946    -3029812.396 9  -4571238.027 9
  22274016.621    22274020.239    -7302163.286 9  -7594649.769 8
  23539867.958    23539868.705    -8151616.351 5    428392.495 4
 89 11 20 10 15 59.0800000  0  4G 2G 6G11G 9
  23831726.336    23831727.140     7851310.656 8   4185763.247 9
  21134091.284    21134091.889    -3074609.768 9  -4606145.057 8
  22256655.233    22256656.621    -7393399.646 9  -7665742.986 9
  23523405.661    23523407.290    -8238119.143 5    360987.743 3
 89 11 20 10 16 29.0800000  0  4G 2G 6G11G 9
  23847058.064    23847059.073     7931875.673 9   4248541.122 9
  21125605.732    21125605.611    -3119198.793 9  -4640889.741 9
  22239361.699    22239363.946    -7484276.786 9  -7736556.341 9
  23506946.463    23506948.250    -8324615.284 9    293588.180 8
 89 11 20 10 16 59.0800000  0  4G 2G 6G11G 9
  23862393.019    23862390.674     8012463.623 9   4311336.900 8
  21117161.908    21117161.518    -3163576.211 9  -4675469.563 9
  22222137.247    22222139.034    -7574790.740 9  -7807086.656 9
  23490488.046    23490488.688    -8411101.975 9    226196.001 8
 89 11 20 10 17 29.0800000  0  4G 2G 6G11G 9
  23877731.786    23877733.561     8093073.298 9   4374149.732 9
  21108756.545    21108758.489    -3207741.638 9  -4709884.193 9
  22204981.786    22204984.112    -7664940.500 9  -7877333.230 9
  23474033.434    23474033.586    -8497579.508 9    158810.878 9
 89 11 20 10 17 59.0800000  0  4G 2G 6G11G 9
  23893069.634    23893078.162     8173703.356 7   4436978.113 9
  21100393.537    21100393.908    -3251693.584 9  -4744132.459 9
  22187897.648    22187899.251    -7754723.545 9  -7947294.033 9
  23457576.117    23457579.718    -8584047.211 8     91433.486 9
 89 11 20 10 18 29.0800000  0  4G 2G 6G11G 9
  23908422.943    23908423.391     8254353.727 9   4499822.569 9
  21092070.768    21092071.525    -3295429.406 9  -4778212.341 9
  22170882.753    22170883.698    -7844137.246 9  -8016967.025 9
  23441128.016    23441126.300    -8670502.903 9     24065.405 8
 89 11 20 10 18 59.0800000  0  4G 2G 6G11G 9
  23923772.772    23923776.499     8335024.221 9   4562682.683 9
  21083790.124    21083789.636    -3338946.879 9  -4812122.052 9
  22153938.444    22153940.383    -7933178.362 9  -8086349.675 9
  23424678.311    23424679.490    -8756945.269 9    -43292.179 8
 89 11 20 10 19 29.0800000  0  4G 2G 6G11G 9
  23939128.030    23939131.142     8415713.173 9   4625557.096 8
  21075549.632    21075550.375    -3382245.254 9  -4845861.028 9
  22137064.823    22137067.184    -8021845.314 9  -8155440.803 9
  23408228.800    23408229.764    -8843373.912 8   -110639.222 8
 89 11 20 10 19 59.0800000  0  4G 2G 6G11G 9
  23954485.445    23954485.968     8496421.356 9   4688446.605 8
  21067352.154    21067352.568    -3425321.678 8  -4879427.084 9
  22120264.973    22120266.405    -8110134.979 9  -8224237.912 9
  23391789.027    23391788.842    -8929786.991 9   -177974.062 9
 89 11 20 10 20 29.0800000  0  4G 2G 6G11G 9
  23969850.288    23969849.987     8577147.746 9   4751350.281 9
  21059198.890    21059199.647    -3468174.335 9  -4912818.764 9
  22103537.005    22103537.299    -8198044.958 9  -8292739.191 9
  23375342.442    23375344.651    -9016182.823 8   -245295.476 9
 89 11 20 10 20 59.0800000  0  4G 2G 6G11G 9
  23985214.865    23985216.815     8657891.745 8   4814267.603 9
  21051086.895    21051087.337    -3510801.643 9  -4946034.832 8
  22086879.907    22086881.181    -8285573.055 9  -8360942.879 9
  23358911.397    23358911.416    -9102560.769 9   -312603.025 8
 89 11 20 10 21 29.0800000  0  4G 2G 6G11G 9
  24000582.630    24000581.281     8738652.821 9   4877198.240 7
  21043018.400    21043019.042    -3553201.457 9  -4979073.652 9
  22070295.922    22070297.604    -8372716.431 9  -8428846.794 9
  23342474.527    23342476.479    -9188919.136 8   -379895.174 9
 89 11 20 10 21 59.0800000  0  4G 2G 6G11G 9
  24015954.265    24015954.462     8819430.371 9   4940141.897 8
  21034993.776    21034993.717    -3595372.057 8  -5011933.819 9
  22053785.951    22053790.184    -8459472.790 9  -8496449.122 8
  23326046.391    23326045.720    -9275256.680 8   -447171.265 9
 89 11 20 10 22 29.0800000  0  4G 2G 6G11G 9
  24031325.522    24031329.210     8900223.801 8   5003097.679 9
  21027012.881    21027013.982    -3637312.023 9  -5044614.315 9
  22037352.678    22037354.359    -8545840.206 9  -8563748.402 9
  23309622.479    23309621.859    -9361572.984 9   -514430.666 9
 89 11 20 10 22 59.0800000  0  4G 2G 6G11G 9
  24046704.490    24046706.784     8981032.964 9   5066065.835 8
  21019075.716    21019076.186    -3679018.628 9  -5077112.960 9
  22020990.760    22020995.490    -8631815.452 9  -8630742.092 9
  23293200.245    23293198.465    -9447865.417 9   -581671.528 9
 89 11 20 10 23 29.0800000  0  4G 2G 6G11G 9
  24062085.041    24062086.411     9061857.315 9   5129045.828 8
  21011183.853    21011184.796    -3720490.406 8  -5109428.630 9
  22004707.029    22004708.875    -8717396.288 9  -8697428.450 8
  23276780.683    23276782.681    -9534133.327 8   -648893.336 8
 89 11 20 10 23 59.0800000  0  4G 2G 6G11G 9
  24077469.912    24077469.572     9142696.629 9   5192037.489 9
  21003337.607    21003338.007    -3761724.601 9  -5141559.148 9
  21988496.478    21988498.131    -8802579.918 9  -8763805.275 9
  23260373.162    23260373.922    -9620374.659 9   -716094.388 9
 89 11 20 10 24 29.0800000  0  4G 2G 6G11G 9
  24092855.377    24092856.390     9223549.949 9   5255040.070 9
  20995536.293    20995537.136    -3802719.965 9  -5173503.609 9
  21972362.674    21972364.076    -8887364.552 9  -8829871.213 8
  23243968.228    23243964.402    -9706588.659 9   -783274.106 8
 89 11 20 10 24 59.0800000  0  4G 2G 6G11G 9
  24108238.044    24108245.554     9304417.397 6   5318053.524 9
  20987780.397    20987781.511    -3843474.390 8  -5205260.292 9
  21956305.053    21956307.106    -8971747.610 9  -8895624.222 9
  23227564.070    23227566.551    -9792773.553 9   -850431.163 9
 89 11 20 10 25 29.0800000  0  4G 2G 6G11G 9
  24123634.299    24123636.399     9385297.352 9   5381076.803 8
  20980071.348    20980072.262    -3883986.462 9  -5236828.136 8
  21940323.130    21940326.196    -9055727.175 9  -8961062.801 9
  23211172.865    23211168.245    -9878928.738 9   -917565.014 7
 89 11 20 10 25 59.0800000  0  4G 2G 6G11G 9
  24139029.001    24139030.042     9466189.951 9   5444110.021 9
  20972410.264    20972409.203    -3924253.484 9  -5268205.039 8
  21924420.513    21924422.899    -9139300.323 9  -9026184.754 8
  23194780.308    23194783.970    -9965051.959 9   -984674.045 9
 89 11 20 10 26 29.0800000  0  4G 2G 6G11G 9
  24154424.154    24154425.789     9547095.613 8   5507153.334 9
  20964793.395    20964794.453    -3964273.392 9  -5299389.393 9
  21908594.307    21908596.851    -9222464.540 9  -9090988.024 9
  23178399.746    23178398.478   -10051141.779 9  -1051757.020 8
 89 11 20 10 26 59.0800000  0  4G 2G 6G11G 9
  24169821.581    24169824.661     9628013.088 8   5570205.792 9
  20957225.206    20957226.264    -4004044.460 9  -5330379.816 9
  21892846.655    21892849.442    -9305218.046 9  -9155471.274 8
  23162023.423    23162025.861   -10137197.053 9  -1118813.076 9
 89 11 20 10 27 29.0800000  0  4G 2G 6G11G 9
  24185221.613    24185224.829     9708941.877 8   5633267.213 8
  20949704.924    20949704.952    -4043565.486 9  -5361175.402 8
  21877178.908    21877181.084    -9387559.107 9  -9219633.094 9
  23145656.969    23145653.952   -10223216.925 9  -1185841.540 9
 89 11 20 10 27 59.0800000  0  4G 2G 6G11G 9
  24200622.547    24200626.299     9789881.660 7   5696337.160 9
  20942231.920    20942232.649    -4082834.089 9  -5391774.341 9
  21861588.371    21861590.368    -9469484.917 9  -9283471.391 9
  23129293.757    23129293.111   -10309199.609 9  -1252841.014 9
 89 11 20 10 28 29.0800000  0  4G 2G 6G11G 9
  24216029.311    24216030.732     9870832.007 9   5759415.353 9
  20934809.055    20934808.610    -4121848.404 9  -5422175.102 8
  21846079.056    21846080.109    -9550993.194 9  -9346984.286 9
  23112937.166    23112939.168   -10395143.546 8  -1319810.341 9
 89 11 20 10 28 59.0800000  0  4G 2G 6G11G 9
  24231436.212    24231437.103     9951793.320 9   5822502.030 9
  20927433.525    20927434.283    -4160605.544 9  -5452375.495 9
  21830648.045    21830650.782    -9632080.833 9  -9410169.456 9
  23096592.270    23096592.315   -10481046.765 9  -1386747.877 8
 89 11 20 10 29 29.0800000  0  4G 2G 6G11G 9
  24246844.972    24246844.554    10032765.185 9   5885596.959 9
  20920106.790    20920107.719    -4199103.259 9  -5482373.713 8
  21815297.527    21815299.631    -9712745.503 9  -9473025.028 9
  23080252.804    23080254.147   -10566907.393 9  -1453652.316 8
 89 11 20 10 29 59.0800000  0  4G 2G 6G11G 9
  24262254.549    24262253.744    10113746.872 9   5948699.548 8
  20912831.052    20912831.208    -4237339.760 9  -5512168.351 9
  21800027.601    21800030.331    -9792985.168 9  -9535549.407 9
  23063923.497    23063922.275   -10652724.096 9  -1520522.506 9
 89 11 20 10 30 29.0800000  0  4G 2G 6G11G 9
  24277665.856    24277665.473    10194736.156 9   6011808.023 8
  20905604.281    20905605.453    -4275315.026 9  -5541759.461 9
  21784839.528    21784841.557    -9872799.265 9  -9597742.196 9
  23047598.841    23047601.418   -10738497.286 9  -1587358.774 8
 89 11 20 10 30 59.0800000  0  4G 2G 6G11G 9
  24293080.026    24293080.745    10275734.026 8   6074923.152 8
  20898429.051    20898429.393    -4313025.945 9  -5571144.585 8
  21769733.099    21769736.198    -9952184.766 9  -9659601.032 9
  23031287.041    23031286.878   -10824224.065 9  -1654158.865 9
 89 11 20 10 31 29.0800000  0  4G 2G 6G11G 9
  24308494.238    24308495.272    10356740.971 9   6138045.411 9
  20891302.329    20891303.215    -4350469.769 9  -5600321.615 8
  21754708.773    21754709.807   -10031138.729 9  -9721123.595 8
  23014982.522    23014984.126   -10909902.374 9  -1720921.179 9
 89 11 20 10 31 59.0800000  0  4G 2G 6G11G 9
  24323911.126    24323912.482    10437756.342 9   6201174.242 8
  20884228.552    20884229.881    -4387644.275 9  -5629288.761 9
  21739767.190    21739770.374   -10109658.695 8  -9782307.961 9
  22998686.952    22998688.249   -10995530.503 9  -1787644.404 8
 89 11 20 10 32 29.0800000  0  4G 2G 6G11G 9
  24339328.980    24339330.379    10518779.057 9   6264308.784 8
  20877206.659    20877207.073    -4424548.417 9  -5658045.204 9
  21724909.054    21724910.493   -10187743.369 9  -9843153.149 9
  22982404.140    22982406.703   -11081107.821 9  -1854328.033 9
 89 11 20 10 32 59.0800000  0  4G 2G 6G11G 9
  24354748.552    24354750.237    10599807.887 9   6327448.092 8
  20870235.421    20870234.733    -4461180.822 9  -5686589.923 8
  21710132.846    21710134.928   -10265391.869 9  -9903658.442 9
  22966131.945    22966127.253   -11166633.358 9  -1920971.256 8
 89 11 20 10 33 29.0800000  0  4G 2G 6G11G 9
  24370168.151    24370171.732    10680843.822 9   6390592.957 9
  20863316.698    20863317.612    -4497538.506 9  -5714920.576 8
  21695441.276    21695441.978   -10342600.693 9  -9963821.148 9
  22949863.702    22949863.794   -11252104.540 9  -1987572.165 9
 89 11 20 10 33 59.0800000  0  4G 2G 6G11G 9
  24385590.613    24385592.770    10761886.466 9   6453743.068 9
  20856451.405    20856451.490    -4533619.168 8  -5743035.378 9
  21680832.318    21680834.150   -10419367.167 9 -10023639.162 9
  22933610.729    22933609.607   -11337519.460 9  -2054129.235 9
 89 11 20 10 34 29.0800000  0  4G 2G 6G11G 9
  24401013.526    24401015.418    10842934.975 9   6516897.662 9
  20849637.396    20849637.309    -4569421.525 9  -5770933.331 8
  21666308.312    21666312.037   -10495690.153 9 -10083111.634 9
  22917368.712    22917367.332   -11422877.446 9  -2120641.915 9
 89 11 20 10 34 59.0800000  0  4G 2G 6G11G 9
  24416437.525    24416439.103    10923989.123 9   6580056.706 9
  20842879.108    20842879.293    -4604943.249 9  -5798612.585 9
  21651869.998    21651870.771   -10571567.130 9 -10142236.510 9
  22901137.573    22901136.648   -11508176.422 9  -2187108.679 9
 89 11 20 10 35 29.0800000  0  4G 2G 6G11G 9
  24431863.385    24431864.555    11005048.901 9   6643220.179 9
  20836172.561    20836173.647    -4640181.941 9  -5826071.308 8
  21637515.013    21637517.958   -10646995.752 9 -10201012.055 9
  22884916.190    22884914.807   -11593414.362 9  -2253527.868 9
 89 11 20 10 35 59.0800000  0  4G 2G 6G11G 9
  24447289.331    24447291.023    11086113.892 8   6706387.672 8
  20829521.191    20829521.232    -4675135.943 9  -5853308.170 8
  21623248.333    21623248.935   -10721974.155 9 -10259436.757 8
  22868707.227    22868707.654   -11678589.776 9  -2319898.374 8
 89 11 20 10 36 29.0800000  0  4G 2G 6G11G 9
  24462717.180    24462718.551    11167183.719 9   6769558.960 8
  20822923.595    20822924.337    -4709803.219 9  -5880321.628 8
  21609067.352    21609068.343   -10796500.330 9 -10317509.072 8
  22852510.502    22852508.214   -11763701.302 9  -2386218.995 8
 89 11 20 10 36 59.0800000  0  4G 2G 6G11G 9
  24478143.778    24478146.371    11248257.047 8   6832732.944 9
  20816382.605    20816381.216    -4744182.353 9  -5907110.553 8
  21594970.948    21594973.539   -10870573.148 9 -10375228.152 8
  22836325.110    22836327.434   -11848747.807 9  -2452489.001 8
 89 11 20 10 37 29.0800000  0  3G 6G11G 9
  20809895.762    20809894.519    -4778270.648 8  -5933672.838 8
  21580961.018    21580962.529   -10944190.099 9 -10432591.967 9
  22820155.966    22820154.412   -11933727.041 9  -2518706.614 8
 89 11 20 10 37 59.0800000  0  3G 6G11G 9
  20803464.975    20803464.244    -4812065.092 8  -5960006.177 8
  21567040.064    21567042.232   -11017347.872 9 -10489598.043 8
  22803996.917    22803998.922   -12018636.071 9  -2584869.515 9
 89 11 20 10 38 29.0800000  0  3G 6G11G 9
  20797089.715    20797089.932    -4845564.172 9  -5986109.326 8
  21553206.452    21553207.418   -11090044.987 9 -10546245.112 8
  22787854.378    22787854.025   -12103473.980 9  -2650977.009 8
 89 11 20 10 38 59.0800000  0  3G 6G11G 9
  20790771.040    20790771.171    -4878767.184 9  -6011981.799 9
  21539460.069    21539461.536   -11162281.116 9 -10602532.987 9
  22771722.796    22771723.702   -12188240.225 9  -2717028.601 9
 89 11 20 10 39 29.0800000  0  3G 6G11G 9
  20784509.724    20784511.050    -4911671.853 9  -6037621.816 8
  21525801.859    21525803.441   -11234053.898 9 -10658459.833 9
  22755607.823    22755608.611   -12272933.036 9  -2783023.001 9
 89 11 20 10 39 59.0800000  0  3G 6G11G 9
  20778305.495    20778305.676    -4944274.922 9  -6063026.819 8
  21512233.282    21512234.005   -11305360.241 9 -10714023.190 9
  22739504.923    22739506.152   -12357549.061 9  -2848957.577 9
 89 11 20 10 40 29.0800000  0  3G 6G11G 9
  20772159.246    20772159.549    -4976575.128 9  -6088195.799 9
  21498753.280    21498755.806   -11376199.226 9 -10769222.377 9
  22723418.694    22723417.698   -12442087.472 9  -2914831.633 9
 89 11 20 10 40 59.0800000  0  3G 6G11G 9
  20766070.785    20766070.401    -5008570.797 9  -6113127.493 8
  21485361.421    21485363.718   -11446568.980 9 -10824055.944 9
  22707347.639    22707346.335   -12526546.963 9  -2980644.203 9
 89 11 20 10 41 29.0800000  0  3G 6G11G 9
  20760041.965    20760040.804    -5040257.830 9  -6137818.709 8
  21472060.512    21472063.525   -11516466.081 8 -10878521.227 9
  22691287.797    22691288.721   -12610923.764 8  -3046392.362 8
 89 11 20 10 41 59.0800000  0  3G 6G11G 9
  20754069.319    20754070.051    -5071635.913 9  -6162269.149 8
  21458850.982    21458850.889   -11585890.345 9 -10932618.021 9
  22675250.254    22675249.236   -12695217.853 9  -3112076.045 9
 89 11 20 10 42 29.0800000  0  3G 6G11G 9
  20748157.755    20748157.522    -5102703.210 9  -6186477.423 8
  21445729.023    21445730.533   -11654839.922 9 -10986344.936 8
  22659222.407    22659226.515   -12779427.428 9  -3177693.900 9
 89 11 20 10 42 59.0800000  0  3G 6G11G 9
  20742305.103    20742306.403    -5133456.934 9  -6210441.372 8
  21432699.588    21432700.039   -11723312.084 9 -11039699.875 9
  22643215.990    22643215.988   -12863550.088 9  -3243243.975 9
 89 11 20 10 43 29.0800000  0  3G 6G11G 9
  20736513.743    20736514.178    -5163894.730 9  -6234159.141 8
  21419760.873    21419760.237   -11791304.907 9 -11092681.287 9
  22627223.762    22627227.477   -12947583.529 9  -3308724.551 9
 89 11 20 10 43 59.0800000  0  3G 6G11G 9
  20730782.619    20730781.394    -5194015.840 9  -6257630.130 8
  21406912.335    21406915.161   -11858818.115 9 -11145288.962 9
  22611251.694    22611252.237   -13031527.461 9  -3374135.394 9
 89 11 20 10 44 29.0800000  0  3G 6G11G 9
  20725109.758    20725110.758    -5223818.622 9  -6280853.089 8
  21394156.606    21394158.445   -11925850.246 9 -11197521.786 8
  22595294.799    22595292.261   -13115380.414 9  -3439475.264 8
 89 11 20 10 44 59.0800000  0  3G 6G11G 9
  20719498.419    20719500.843    -5253299.195 8  -6303825.003 8
  21381494.144    21381495.640   -11992397.778 9 -11249376.988 9
  22579355.175    22579354.107   -13199138.506 9  -3504741.276 9
 89 11 20 10 45 29.0800000  0  3G 6G11G 9
  20713951.900    20713951.030    -5282456.488 9  -6326544.976 8
  21368923.891    21368925.458   -12058459.714 9 -11300853.823 8
  22563436.202    22563436.672   -13282800.900 9  -3569932.776 9
 89 11 20 10 45 59.0800000  0  3G 6G11G 9
  20708466.557    20708464.349    -5311287.927 9  -6349011.023 8
  21356444.387    21356446.183   -12124034.107 9 -11351950.739 9
  22547535.305    22547532.971   -13366365.287 9  -3635047.875 9
 89 11 20 10 46 29.0800000  0  3G 6G11G 9
  20703041.260    20703041.705    -5339791.622 9  -6371221.689 8
  21344058.522    21344060.862   -12189119.628 9 -11402666.708 9
  22531649.676    22531650.877   -13449829.900 9  -3700085.248 9
 89 11 20 10 46 59.0800000  0  3G 6G11G 9
  20697679.816    20697679.436    -5367966.199 9  -6393175.894 8
  21331767.556    21331769.166   -12253715.192 9 -11453000.910 9
  22515786.349    22515788.178   -13533193.426 9  -3765043.878 9
 89 11 20 10 47 29.0800000  0  3G 6G11G 9
  20692380.969    20692382.238    -5395809.530 8  -6414871.986 8
  21319567.825    21319569.993   -12317818.914 9 -11502951.839 9
  22499942.195    22499943.485   -13616453.933 9  -3829922.218 9
 89 11 20 10 47 59.0800000  0  3G 6G11G 9
  20687145.708    20687147.581    -5423319.420 9  -6436308.240 8
  21307463.623    21307465.662   -12381428.923 9 -11552518.072 8
  22484117.123    22484119.354   -13699609.156 8  -3894718.484 8
 89 11 20 10 48 29.0800000  0  3G 6G11G 9
  20681974.405    20681976.128    -5450493.332 9  -6457482.741 8
  21295454.776    21295456.186   -12444543.018 9 -11601697.872 8
  22468314.863    22468316.321   -13782656.777 9  -3959430.893 8
 89 11 20 10 48 59.0800000  0  3G 6G11G 9
  20676868.900    20676869.643    -5477329.512 8  -6478394.051 8
  21283538.052    21283540.035   -12507160.239 9 -11650490.497 9
  22452531.832    22452533.511   -13865595.035 9  -4024058.112 9
 89 11 20 10 49 29.0800000  0  3G 6G11G 9
  20671826.956    20671826.793    -5503826.273 9  -6499040.860 8
  21271717.029    21271719.168   -12569279.179 9 -11698894.831 8
  22436770.732    22436773.531   -13948422.270 9  -4088598.793 8
 89 11 20 10 49 59.0800000  0  3G 6G11G 9
  20666849.539    20666848.765    -5529980.979 8  -6519421.160 8
  21259992.048    21259993.930   -12630897.994 9 -11746909.517 9
  22421031.064    22421031.381   -14031136.297 9  -4153051.219 9
 89 11 20 10 50 29.0800000  0  3G 6G11G 9
  20661937.956    20661938.223    -5555791.936 9  -6539533.610 9
  21248363.601    21248362.145   -12692015.258 5 -11794533.331 5
  22405311.662    22405313.005   -14113735.245 9  -4217414.004 8
 89 11 20 10 50 59.0800000  0  3G 6G11G 9
  20657093.139    20657092.651    -5581257.822 9  -6559377.144 8
  21236826.364    21236829.191   -12752630.513 9 -11841765.972 9
  22389616.124    22389618.769   -14196217.802 9  -4281686.104 8
 89 11 20 10 51 29.0800000  0  3G 6G11G 9
  20652312.101    20652312.598    -5606375.241 8  -6578949.157 9
  21225386.984    21225389.185   -12812740.610 9 -11888604.996 9
  22373944.138    22373944.795   -14278580.763 9  -4345865.036 8
 89 11 20 10 51 59.0800000  0  3G 6G11G 9
  20647599.787    20647599.716    -5631141.736 9  -6598247.721 9
  21214045.369    21214047.704   -12872343.298 9 -11935048.635 8
  22358292.681    22358295.059   -14360821.371 9  -4409948.599 8
 89 11 20 10 52 29.0800000  0  3G 6G11G 9
  20642953.212    20642953.620    -5655556.330 9  -6617272.086 9
  21202801.775    21202801.352   -12931438.748 9 -11981097.033 8
  22342667.421    22342667.997   -14442938.857 9  -4473936.239 9
 89 11 20 10 52 59.0800000  0  3G 6G11G 9
  20638375.253    20638375.084    -5679616.867 8  -6636020.549 8
  21191651.873    21191654.034   -12990025.302 6 -12026748.900 8
  22327064.466    22327065.745   -14524931.007 8  -4537826.206 9
 89 11 20 10 53 29.0800000  0  3G 6G11G 9
  20633864.041    20633863.572    -5703323.279 9  -6654493.072 9
  21180598.976    21180601.901   -13048103.398 9 -12072004.560 9
  22311488.050    22311489.161   -14606797.766 9  -4601618.458 8
 89 11 20 10 53 59.0800000  0  3G 6G11G 9
  20629420.250    20629421.442    -5726670.794 9  -6672685.969 8
  21169645.050    21169647.998   -13105669.097 9 -12116860.914 9
  22295931.390    22295932.854   -14688534.215 9  -4665309.204 9
 89 11 20 10 54 29.0800000  0  3G 6G11G 9
  20625047.669    20625050.130    -5749656.929 1  -6690597.253 1
  21158788.924    21158791.616   -13162720.410 9 -12161316.466 9
  22280403.728    22280404.996   -14770137.561 9  -4728896.227 9
 89 11 20 10 54 59.0800000  0  3G 6G11G 9
  20620740.542    20620740.983    -5772282.135 9  -6708227.270 9
  21148029.835    21148031.282   -13219258.768 9 -12205372.329 9
  22264898.631    22264902.589   -14851608.497 8  -4792380.042 9
 89 11 20 10 55 29.0800000  0  3G 6G11G 9
  20616505.622    20616504.600    -5794543.548 9  -6725573.804 8
  21137368.571    21137370.101   -13275281.936 9 -12249026.725 8
  22249423.536    22249422.247   -14932944.115 9  -4855758.391 8
 89 11 20 10 55 59.0800000  0  3G 6G11G 9
  20612338.424    20612338.222    -5816438.498 9  -6742634.789 8
  21126807.497    21126809.158   -13330787.899 9 -12292278.112 9
  22233971.414    22233972.776   -15014141.740 9  -4919029.261 9
 89 11 20 10 56 29.0800000  0  3G 6G11G 9
  20608241.652    20608241.852    -5837965.695 9  -6759409.234 8
  21116341.731    21116344.616   -13385775.735 9 -12335125.761 8
  22218549.718    22218547.014   -15095199.634 9  -4982191.248 9
 89 11 20 10 56 59.0800000  0  3G 6G11G 9
  20604216.586    20604214.962    -5859122.746 9  -6775895.246 7
  21105976.493    21105978.435   -13440244.038 9 -12377568.589 8
  22203148.983    22203149.000   -15176115.537 9  -5045242.596 9
 89 11 20 10 57 29.0800000  0  4G13G 6G11G 9
                  24201291.520   -28762391.506 5
  20600260.413    20600261.655    -5879907.217 9  -6792090.964 8
  21095711.669    21095713.654   -13494191.145 8 -12419605.266 7
  22187779.463    22187778.616   -15256886.774 9  -5108181.217 9
 89 11 20 10 57 59.0800000  0  4G13G 6G11G 9
  24179219.464    24179224.996   -28878600.100 5  36632014.558 5
  20596377.334    20596376.264    -5900317.604 8  -6807995.159 8
  21085545.116    21085548.237   -13547616.198 9 -12461235.173 9
  22172435.115    22172437.560   -15337511.417 9  -5171005.610 9
 89 11 20 10 58 29.0800000  0  4G13G 6G11G 9
  24157138.666    24157140.689   -28994656.583 7  36541580.948 6
  20592560.459    20592564.161    -5920352.945 1  -6823607.158 9
  21075478.147    21075478.685   -13600519.480 9 -12502458.492 8
  22157122.467    22157124.104   -15417988.716 9  -5233715.199 8
 89 11 20 10 58 59.0800000  0  4G13G 6G11G 9
  24135079.525    24135086.142   -29110557.232 6  36451268.800 6
  20588824.574    20588821.891    -5940010.145 4  -6838924.430 2
  21065510.810    21065512.970   -13652898.405 9 -12543273.212 8
  22141837.944    22141837.764   -15498315.175 9  -5296307.244 9
 89 11 20 10 59 29.0800000  0  4G13G 6G11G 9
  24113055.859    24113057.816   -29226299.387 6  36361080.145 6
  20585155.864    20585155.295    -5959286.955 9  -6853945.325 8
  21055643.712    21055646.572   -13704751.685 9 -12583678.353 8
  22126580.225    22126580.653   -15578488.415 9  -5358779.906 9
 89 11 20 10 59 59.0800000  0  4G13G 6G11G 9
  24091061.476    24091065.815   -29341881.354 7  36271016.294 6
  20581559.963    20581559.423    -5978182.244 9  -6868668.914 8
  21045876.537    21045878.340   -13756079.347 9 -12623673.919 9
  22111351.923    22111352.166   -15658507.181 9  -5421132.165 8
 89 11 20 11  0 29.0800000  0  4G13G 6G11G 9
  24069097.953    24069100.456   -29457299.468 7  36181080.125 5
  20578036.752    20578036.483    -5996693.460 8  -6883093.235 8
  21036209.981    21036212.189   -13806879.209 9 -12663258.193 9
  22096155.452    22096156.092   -15738368.598 9  -5483361.816 9
 89 11 20 11  0 59.0800000  0  4G13G 6G11G 9
  24047165.801    24047168.962   -29572552.446 7  36091272.648 6
  20574587.548    20574588.496    -6014818.912 8  -6897216.973 8
  21026643.895    21026644.692   -13857150.616 9 -12702430.705 8
  22080989.390    22080989.819   -15818070.502 9  -5545467.172 9
 89 11 20 11  1 29.0800000  0  4G13G 6G11G 9
  24025265.601    24025268.625   -29687637.094 9  36001596.307 6
  20571211.893    20571211.209    -6032556.715 9  -6911038.636 7
  21017177.894    21017179.153   -13906892.335 9 -12741190.455 9
  22065851.510    22065853.377   -15897611.139 9  -5607446.900 8
 89 11 20 11  1 59.0800000  0  4G13G 6G11G 9
  24003399.755    24003402.365   -29802550.715 8  35912053.245 7
  20567911.791    20567911.309    -6049904.862 8  -6924556.670 8
  21007812.852    21007814.445   -13956103.649 8 -12779536.906 9
  22050747.284    22050748.143   -15976987.876 9  -5669298.871 8
 89 11 20 11  2 29.0800000  0  4G13G 6G11G 9
  23981563.889    23981567.682   -29917291.036 8  35822645.240 9
  20564684.640    20564685.502    -6066861.858 9  -6937769.895 8
  20998547.027    20998551.265   -14004783.820 9 -12817469.484 8
  22035675.354    22035674.818   -16056199.136 9  -5731021.918 8
 89 11 20 11  2 59.0800000  0  4G13G 6G11G 9
  23959764.974    23959765.244   -30031854.934 9  35733374.692 7
  20561533.208    20561531.939    -6083425.037 9  -6950676.234 8
  20989384.832    20989387.838   -14052931.045 9 -12854986.793 8
  22020634.075    22020632.670   -16135242.019 9  -5792613.772 8
 89 11 20 11  3 29.0800000  0  4G13G 6G11G 9
  23937998.088    23937999.074   -30146239.806 9  35644243.613 7
  20558457.102    20558456.090    -6099592.476 9  -6963274.266 9
  20980327.272    20980327.929   -14100544.561 9 -12892088.236 8
  22005624.061    22005625.311   -16214114.006 9  -5854072.522 8
 89 11 20 11  3 59.0800000  0  4G13G 6G11G 9
  23916264.371    23916267.107   -30260443.287 9  35555253.902 8
  20555454.633    20555455.223    -6115362.393 9  -6975562.536 8
  20971368.774    20971369.643   -14147623.660 9 -12928773.237 9
  21990648.795    21990648.016   -16292812.948 9  -5915396.396 9
 89 11 20 11  4 29.0800000  0  4G13G 6G11G 9
  23894568.402    23894569.253   -30374463.764 9  35466406.806 8
  20552529.832    20552530.580    -6130733.642 9  -6987540.134 8
  20962511.746    20962512.688   -14194167.930 8 -12965041.507 9
  21975705.013    21975705.913   -16371337.405 9  -5976584.293 9
 89 11 20 11  4 59.0800000  0  4G13G 6G11G 9
  23872906.359    23872907.599   -30488296.787 8  35377705.775 9
  20549681.358    20549682.419    -6145702.793 9  -6999204.435 8
  20953754.771    20953757.021   -14240174.979 9 -13000891.142 9
  21960797.394    21960799.224   -16449683.661 9  -6037633.300 9
 89 11 20 11  5 29.0800000  0  4G13G 6G11G 9
  23851280.030    23851281.630   -30601941.965 9  35289151.126 9
  20546910.122    20546909.412    -6160269.829 9  -7010555.368 8
  20945101.895    20945103.928   -14285645.977 9 -13036323.079 8
  21945923.954    21945923.673   -16527851.211 9  -6098543.086 9
 89 11 20 11  5 59.0800000  0  4G13G 6G11G 9
  23829690.145    23829692.321   -30715396.320 8  35200745.171 9
  20544213.841    20544213.473    -6174432.209 9  -7021590.989 8
  20936553.199    20936553.942   -14330579.289 9 -13071336.026 9
  21931082.954    21931083.439   -16605837.109 9  -6159311.323 9
 89 11 20 11  6 29.0800000  0  4G13G 6G11G 9
  23808137.714    23808140.548   -30828655.338 8  35112491.431 9
  20541596.974    20541597.749    -6188186.557 9  -7032308.663 7
  20928105.159    20928105.881   -14374972.715 9 -13105928.286 7
  21916277.876    21916278.362   -16683637.604 9  -6219935.092 9
 89 11 20 11  6 59.0800000  0  4G13G 6G11G 9
  23786622.897    23786624.809   -30941718.573 9  35024390.252 9
  20539057.291    20539057.309    -6201532.745 9  -7042708.296 9
  20919758.328    20919759.309   -14418827.162 9 -13140100.557 8
  21901507.525    21901508.940   -16761252.121 9  -6280413.956 8
 89 11 20 11  7 29.0800000  0  4G13G 6G11G 9
  23765145.650    23765147.407   -31054582.714 9  34936444.167 8
  20536595.137    20536595.769    -6214468.785 9  -7052788.326 8
  20911515.041    20911519.953   -14462141.808 9 -13173852.222 8
  21886773.220    21886774.292   -16838678.199 9  -6340745.966 9
 89 11 20 11  7 59.0800000  0  4G13G 6G11G 9
  23743706.637    23743707.405   -31167245.421 9  34848655.039 8
  20534212.539    20534212.731    -6226992.544 9  -7062547.097 7
  20903377.429    20903379.086   -14504915.338 9 -13207182.249 9
  21872075.513    21872077.485   -16915913.312 9  -6400929.177 9
 89 11 20 11  8 29.0800000  0  4G13G 6G11G 9
  23722306.985    23722308.098   -31279704.595 9  34761024.537 8
  20531908.900    20531909.491    -6239102.151 8  -7071983.163 8
  20895341.749    20895343.081   -14547147.082 9 -13240090.087 9
  21857416.552    21857417.129   -16992955.073 9  -6460961.737 8
 89 11 20 11  8 59.0800000  0  4G13G 6G11G 9
  23700945.614    23700947.397   -31391956.949 9  34673555.169 8
  20529682.962    20529683.810    -6250795.838 9  -7081095.115 8
  20887408.716    20887408.107   -14588836.588 9 -13272575.408 8
  21842792.443    21842793.251   -17069801.000 8  -6520841.643 8
 89 11 20 11  9 29.0800000  0  4G13G 6G11G 9
  23679623.697    23679625.144   -31503999.804 8  34586249.062 8
  20527538.412    20527537.385    -6262071.383 9  -7089881.250 9
  20879577.200    20879577.502   -14629983.019 9 -13304637.562 8
  21828207.897    21828208.684   -17146448.474 9  -6580566.943 9
 89 11 20 11  9 59.0800000  0  4G13G 6G11G 9
  23658342.057    23658344.770   -31615830.822 9  34499108.004 8
  20525472.507    20525470.595    -6272926.836 8  -7098340.051 8
  20871850.469    20871852.160   -14670585.368 9 -13336275.756 9
  21813660.449    21813659.897   -17222895.042 9  -6640135.696 8
 89 11 20 11 10 29.0800000  0  4G13G 6G11G 9
  23637102.249    23637105.441   -31727447.551 8  34412133.971 9
  20523485.074    20523486.966    -6283360.873 9  -7106470.500 7
  20864227.545    20864229.128   -14710643.260 9 -13367489.697 9
  21799150.673    21799151.407   -17299138.741 9  -6699546.345 9
 89 11 20 11 10 59.0800000  0  4G13G 6G11G 9
  23615903.306    23615906.659   -31838848.286 8  34325328.288 9
  20521579.889    20521581.794    -6293371.926 8  -7114271.314 8
  20856708.624    20856710.398   -14750156.546 9 -13398279.242 8
  21784680.649    21784682.594   -17375177.559 9  -6758797.352 8
 89 11 20 11 11 29.0800000  0  4G13G 6G11G 9
  23594748.024    23594749.766   -31950029.406 8  34238693.703 9
  20519756.553    20519757.128    -6302957.655 9  -7121740.695 9
  20849295.089    20849295.962   -14789123.922 9 -13428643.411 9
  21770251.911    21770252.346   -17451008.393 9  -6817886.252 9
 89 11 20 11 11 59.0800000  0  4G13G 6G11G 9
  23573633.210    23573633.593   -32060988.778 9  34152231.874 8
  20518014.321    20518015.140    -6312116.584 8  -7128877.500 8
  20841983.559    20841983.799   -14827545.284 9 -13458582.120 8
  21755861.713    21755861.935   -17526629.163 9  -6876811.501 9
 89 11 20 11 12 29.0800000  0  4G13G 6G11G 9
  23552560.723    23552561.934   -32171723.777 9  34065944.827 9
  20516353.995    20516353.814    -6320846.289 9  -7135679.883 9
  20834775.352    20834776.729   -14865419.533 8 -13488094.531 8
  21741511.681    21741512.353   -17602036.783 9  -6935570.677 8
 89 11 20 11 12 59.0800000  0  4G13G 6G11G 9
  23531531.687    23531533.379   -32282232.390 9  33979834.223 8
  20514773.201    20514773.805    -6329145.587 9  -7142146.888 8
  20827672.624    20827673.397   -14902746.487 9 -13517180.470 9
  21727202.725    21727203.341   -17677229.604 9  -6994162.456 8
 89 11 20 11 13 29.0800000  0  4G13G 6G11G 9
  23510545.628    23510546.761   -32392513.441 9  33893900.953 9
  20513274.884    20513276.075    -6337014.145 9  -7148278.239 8
  20820672.278    20820675.235   -14939527.166 9 -13545840.723 9
  21712935.680    21712935.485   -17752206.341 9  -7052585.835 8
 89 11 20 11 13 59.0800000  0  4G13G 6G11G 9
  23489604.279    23489604.315   -32502563.094 9  33808148.017 8
  20511860.675    20511861.365    -6344448.576 9  -7154071.295 8
  20813777.877    20813780.354   -14975759.496 9 -13574073.679 8
  21698710.117    21698709.657   -17826963.175 9  -7110837.851 8
 89 11 20 11 14 29.0800000  0  4G13G 6G11G 9
  23468704.361    23468709.104   -32612377.309 8  33722578.497 8
  20510529.661    20510531.482    -6351445.920 8  -7159523.795 8
  20806987.965    20806990.951   -15011441.826 9 -13601878.082 8
  21684526.472    21684525.936   -17901496.306 9  -7168915.584 8
 89 11 20 11 14 59.0800000  0  4G13G 6G11G 9
  23447855.345    23447856.519   -32721955.839 8  33637192.674 9
  20509281.755    20509282.345    -6358006.482 9  -7164635.891 9
  20800302.262    20800304.553   -15046575.864 9 -13629255.249 9
  21670386.157    21670386.379   -17975805.436 9  -7226818.745 9
 89 11 20 11 15 29.0800000  0  4G13G 6G11G 9
  23427048.309    23427050.030   -32831296.705 9  33551992.040 9
  20508116.813    20508116.072    -6364128.952 8  -7169406.650 9
  20793719.843    20793721.789   -15081161.653 9 -13656205.189 8
  21656288.175    21656289.025   -18049888.477 9  -7284545.753 9
 89 11 20 11 15 59.0800000  0  4G13G 6G11G 9
  23406287.880    23406288.717   -32940395.281 9  33466980.173 9
  20507034.723    20507034.583    -6369809.873 9  -7173833.319 9
  20787244.552    20787246.124   -15115196.461 8 -13682725.790 9
  21642233.478    21642234.127   -18123740.968 9  -7342093.141 8
 89 11 20 11 16 29.0800000  0  4G13G 6G11G 9
  23385572.683    23385575.208   -33049249.402 9  33382158.765 9
  20506038.857    20506038.618    -6375047.640 9  -7177914.728 9
  20780873.228    20780873.505   -15148680.317 9 -13708817.093 9
  21628225.271    21628224.692   -18197360.815 9  -7399459.275 9
 89 11 20 11 16 59.0800000  0  4G13G 6G11G 9
  23364904.543    23364907.416   -33157857.303 9  33297529.248 8
  20505126.503    20505126.534    -6379841.169 9  -7181649.940 8
  20774607.242    20774606.962   -15181613.891 9 -13734479.561 8
  21614259.729    21614260.264   -18270746.222 9  -7456642.716 9
 89 11 20 11 17 29.0800000  0  4G13G 6G11G 9
  23344284.636    23344286.677   -33266217.590 9  33213092.697 9
  20504298.686    20504298.318    -6384189.866 9  -7185038.554 8
  20768445.307    20768445.826   -15213997.713 9 -13759713.723 8
  21600340.783    21600341.425   -18343895.498 9  -7513642.148 9
 89 11 20 11 17 59.0800000  0  4G13G 6G11G 9
  23323712.278    23323714.319   -33374326.989 9  33128851.646 9
  20503556.981    20503556.971    -6388091.095 9  -7188078.478 8
  20762384.302    20762386.193   -15245830.409 8 -13784518.400 8
  21586465.709    21586466.567   -18416805.441 9  -7570455.083 9
 89 11 20 11 18 29.0800000  0  4G13G 6G11G 9
  23303190.024    23303187.946   -33482182.677 9  33044808.280 8
  20502900.331    20502900.292    -6391542.487 9  -7190767.892 9
  20756432.139    20756434.000   -15277111.211 9 -13808893.044 9
  21572638.257    21572637.940   -18489472.623 9  -7627078.864 8
 89 11 20 11 18 59.0800000  0  4G13G 6G11G 9
  23282712.837    23282714.432   -33589782.705 9  32960964.056 7
  20502329.306    20502328.508    -6394543.190 8  -7193106.099 8
  20750583.571    20750587.082   -15307840.458 8 -13832837.911 8
  21558856.292    21558857.030   -18561895.539 9  -7683512.348 9
 89 11 20 11 19 29.0800000  0  4G13G 6G11G 9
  23262286.058    23262287.934   -33697125.693 9  32877320.148 9
  20501843.107    20501843.510    -6397092.312 9  -7195092.434 8
  20744843.553    20744844.543   -15338018.697 8 -13856353.398 8
  21545122.294    21545122.836   -18634072.265 9  -7739753.964 9
 89 11 20 11 19 59.0800000  0  4G13G 6G11G 9
  23241908.463    23241910.847   -33804207.504 9  32793879.773 9
  20501444.165    20501444.656    -6399186.764 8  -7196724.445 8
  20739205.773    20739207.472   -15367644.480 8 -13879438.420 8
  21531433.245    21531435.103   -18705998.884 9  -7795800.684 8
 89 11 20 11 20 29.0800000  0  4G13G 6G11G 9
  23221582.008    23221584.983   -33911026.468 9  32710644.294 9
  20501133.169    20501133.128    -6400825.276 9  -7198001.215 8
  20733673.276    20733673.977   -15396717.814 8 -13902092.936 8
  21517794.683    21517795.138   -18777672.975 9  -7851650.603 9
 89 11 20 11 20 59.0800000  0  4G13G 6G11G 9
  23201305.216    23201307.334   -34017580.905 9  32627614.897 8
  20500909.028    20500909.260    -6402007.714 9  -7198922.617 8
  20728245.615    20728246.227   -15425239.951 8 -13924317.973 9
  21504204.125    21504203.787   -18849093.609 9  -7907303.064 8
 89 11 20 11 21 29.0800000  0  4G13G 6G11G 9
  23181079.389    23181081.176   -34123868.048 9  32544793.748 7
  20500770.456    20500771.660    -6402731.761 8  -7199486.812 9
  20722921.890    20722925.269   -15453210.091 8 -13946112.866 9
  21490662.012    21490662.031   -18920257.622 9  -7962755.547 9
 89 11 20 11 21 59.0800000  0  4G13G 6G11G 9
  23160904.583    23160907.578   -34229885.057 8  32462183.150 9
  20500720.399    20500720.747    -6402995.059 9  -7199691.961 9
  20717705.041    20717706.394   -15480627.174 8 -13967476.798 8
  21477169.745    21477169.257   -18991161.426 9  -8018005.257 9
 89 11 20 11 22 29.0800000  0  4G13G 6G11G 9
  23140781.823    23140783.024   -34335629.174 9  32379785.161 8
  20500758.431    20500758.321    -6402795.748 8  -7199536.674 9
  20712592.768    20712594.139   -15507491.110 8 -13988409.723 8
  21463726.687    21463728.152   -19061802.309 9  -8073050.121 8
 89 11 20 11 22 59.0800000  0  4G13G 6G11G 9
  23120711.008    23120713.749   -34441098.996 9  32297600.876 8
  20500884.322    20500884.098    -6402133.562 8  -7199020.689 8
  20707586.099    20707587.308   -15533802.697 8 -14008912.245 9
  21450335.693    21450335.759   -19132179.125 9  -8127889.177 9
 89 11 20 11 23 29.0800000  0  4G13G 6G11G 9
  23100694.845    23100694.964   -34546293.131 9  32215631.417 8
  20501098.643    20501099.433    -6401007.728 9  -7198143.416 8
  20702684.949    20702685.438   -15559562.913 9 -14028985.129 8
  21436992.249    21436994.315   -19202290.055 9  -8182521.049 8
 89 11 20 11 23 59.0800000  0  4G13G 6G11G 9
  23080729.822    23080731.839   -34651206.712 9  32133880.589 8
  20501401.654    20501401.499    -6399413.869 8  -7196901.451 8
  20697888.470    20697889.514   -15584768.984 9 -14048626.222 8
  21423703.652    21423703.536   -19272129.425 9  -8236941.332 9
 89 11 20 11 24 29.0800000  0  4G13G 6G11G 9
  23060818.463    23060820.168   -34755838.614 9  32052349.202 8
  20501795.097    20501794.256    -6397352.332 9  -7195295.061 8
  20693195.897    20693198.985   -15609422.629 9 -14067836.862 8
  21410464.650    21410464.685   -19341696.585 9  -8291149.506 8
 89 11 20 11 24 59.0800000  0  4G13G 6G11G 9
  23040962.024    23040963.609   -34860188.070 9  31971037.979 9
  20502276.087    20502276.060    -6394822.749 9  -7193323.973 8
  20688609.159    20688611.243   -15633525.209 9 -14086618.078 8
  21397279.108    21397278.664   -19410990.173 9  -8345144.482 8
 89 11 20 11 25 29.0800000  0  4G13G 6G11G 9
  23021159.338    23021161.499   -34964250.736 9  31889950.252 9
  20502845.990    20502846.638    -6391821.642 9  -7190985.449 8
  20684128.804    20684129.157   -15657074.761 9 -14104968.375 8
  21384146.045    21384145.814   -19480005.641 9  -8398922.780 8
 89 11 20 11 25 59.0800000  0  4G13G 6G11G 9
  23001412.049    23001413.800   -35068024.713 8  31809087.438 9
  20503505.958    20503507.435    -6388348.199 9  -7188278.888 9
  20679752.236    20679754.318   -15680072.175 8 -14122888.421 8
  21371066.183    21371066.424   -19548740.924 9  -8452482.729 8
 89 11 20 11 26 29.0800000  0  4G13G 6G11G 9
  22981719.733    22981722.528   -35171508.253 9  31728450.907 8
  20504257.332    20504259.281    -6384401.193 8  -7185203.301 8
  20675481.391    20675482.551   -15702517.604 9 -14140378.362 7
  21358039.508    21358040.016   -19617193.720 9  -8505822.564 9
 89 11 20 11 26 59.0800000  0  4G13G 6G11G 9
  22962083.278    22962085.542   -35274699.166 9  31648042.445 9
  20505099.568    20505101.173    -6379979.342 8  -7181757.678 8
  20671315.428    20671315.883   -15724410.996 9 -14157438.140 9
  21345068.010    21345068.632   -19685361.462 9  -8558940.266 9
 89 11 20 11 27 29.0800000  0  4G13G 6G11G 9
  22942503.079    22942504.872   -35377595.134 9  31567863.786 8
  20506032.754    20506032.415    -6375081.119 9  -7177940.874 9
  20667253.792    20667254.036   -15745752.594 9 -14174067.910 8
  21332150.822    21332151.351   -19753241.621 9  -8611833.877 8
 89 11 20 11 27 59.0800000  0  4G13G 6G11G 9
  22922978.256    22922980.834   -35480193.570 9  31487916.937 8
  20507054.859    20507054.832    -6369704.870 9  -7173751.587 9
  20663297.819    20663297.891   -15766542.333 8 -14190267.692 8
  21319289.304    21319289.467   -19820831.260 8  -8664501.100 9
 89 11 20 11 28 29.0800000  0  4G13G 6G11G 9
  22903512.470    22903513.849   -35582492.433 9  31408203.589 8
  20508170.001    20508169.489    -6363849.655 8  -7169189.084 8
  20659445.400    20659447.630   -15786780.743 9 -14206037.881 9
  21306483.433    21306482.832   -19888128.273 9  -8716940.310 9
 89 11 20 11 28 59.0800000  0  4G13G 6G11G 9
  22884101.991    22884103.251   -35684490.521 9  31328724.565 8
  20509374.949    20509375.350    -6357514.773 9  -7164252.816 8
  20655699.555    20655700.146   -15806469.050 8 -14221379.409 8
  21293731.947    21293732.989   -19955130.826 9  -8769150.068 9
 89 11 20 11 29 29.0800000  0  4G13G 6G11G 9
  22864752.060    22864753.012   -35786183.412 9  31249483.383 9
  20510671.500    20510671.932    -6350696.887 9  -7158940.187 8
  20652058.098    20652059.100   -15825605.115 9 -14236290.632 8
  21281039.041    21281039.398   -20021833.952 9  -8821126.544 9
 89 11 20 11 29 59.0800000  0  4G13G 6G11G 9
  22845458.500    22845458.849   -35887569.817 9  31170481.005 8
  20512061.838    20512061.684    -6343395.215 9  -7153250.591 9
  20648521.883    20648522.506   -15844190.051 8 -14250772.372 8
  21268403.022    21268403.578   -20088235.959 9  -8872868.359 8
 89 11 20 11 30 29.0800000  0  4G13G 6G11G 9
  22826223.917    22826224.466   -35988647.875 9  31091718.896 8
  20513543.697    20513543.656    -6335609.145 8  -7147183.551 8
  20645089.381    20645090.445   -15862224.908 8 -14264825.520 8
  21255825.004    21255825.253   -20154334.593 9  -8924373.810 8
 89 11 20 11 30 59.0800000  0  4G13G 6G11G 9
  22807047.330    22807049.502   -36089416.271 9  31013198.102 8
  20515116.675    20515117.652    -6327337.990 8  -7140738.492 9
  20641761.629    20641763.817   -15879710.631 8 -14278450.734 9
  21243305.154    21243304.173   -20220128.169 9  -8975641.523 9
 89 11 20 11 31 29.0800000  0  4G13G 6G11G 9
  22787931.454    22787932.512   -36189871.617 9  30934921.209 8
  20516784.096    20516784.001    -6318579.487 8  -7133913.724 8
  20638538.210    20638540.256   -15896646.496 9 -14291647.492 8
  21230844.916    21230843.576   -20285613.131 9  -9026668.772 9
 89 11 20 11 31 59.0800000  0  4G13G 6G11G 9
  22768875.762    22768877.807   -36290010.852 9  30856890.605 9
  20518543.581    20518542.927    -6309331.802 8  -7126707.738 7
  20635420.469    20635421.334   -15913032.449 8 -14304415.758 8
  21218441.328    21218441.406   -20350786.118 9  -9077452.913 9
 89 11 20 11 32 29.0800000  0  4G13G 6G11G 9
  22749879.662    22749882.003   -36389833.862 9  30779106.521 8
  20520396.848    20520397.825    -6299595.455 9  -7119120.980 8
  20632406.674    20632409.321   -15928870.389 8 -14316756.990 8
  21206099.742    21206099.419   -20415646.070 9  -9127993.103 8
 89 11 20 11 32 59.0800000  0  4G13G 6G11G 9
  22730944.188    22730946.478   -36489337.870 9  30701570.918 8
  20522342.611    20522343.901    -6289368.416 9  -7111151.834 9
  20629497.179    20629498.661   -15944160.196 9 -14328671.101 9
  21193817.017    21193817.401   -20480189.980 9  -9178287.049 8
 89 11 20 11 33 29.0800000  0  4G13G 6G11G 9
  22712071.586    22712073.099   -36588520.317 9  30624285.911 9
  20524383.414    20524382.974    -6278648.876 9  -7102798.967 8
  20626692.578    20626693.967   -15958901.449 9 -14340157.790 8
  21181594.884    21181595.231   -20544414.419 9  -9228332.049 9
 89 11 20 11 33 59.0800000  0  4G13G 6G11G 9
  22693258.960    22693260.392   -36687379.674 8  30547252.679 9
  20526514.909    20526515.657    -6267436.440 8  -7094061.997 9
  20623990.481    20623992.721   -15973095.494 9 -14351218.058 9
  21169434.872    21169435.695   -20608317.489 9  -9278126.622 8
 89 11 20 11 34 29.0800000  0  4G13G 6G11G 9
  22674508.679    22674510.060   -36785913.109 9  30470473.371 8
  20528743.565    20528743.798    -6255729.639 9  -7084939.826 8
  20621393.741    20621396.119   -15986742.691 8 -14361852.230 8
  21157337.366    21157337.251   -20671896.516 9  -9327668.712 8
 89 11 20 11 34 59.0800000  0  4G13G 6G11G 9
  22655819.770    22655822.370   -36884119.017 9  30393949.309 8
  20531065.001    20531066.663    -6243527.033 9  -7075431.314 8
  20618901.563    20618903.276   -15999843.471 9 -14372060.618 8
  21145300.043    21145299.241   -20735148.469 9  -9376955.939 9
 89 11 20 11 35 29.0800000  0  4G13G 6G11G 9
  22637195.246    22637196.867   -36981995.185 9  30317682.188 9
  20533482.680    20533483.442    -6230827.766 9  -7065535.795 8
  20616512.449    20616513.207   -16012397.927 8 -14381843.302 9
  21133326.041    21133326.446   -20798071.048 9  -9425986.556 8
 89 11 20 11 35 59.0800000  0  4G13G 6G11G 9
  22618633.397    22618635.323   -37079539.615 9  30241673.516 8
  20535994.799    20535994.401    -6217630.962 9  -7055252.590 8
  20614226.399    20614228.774   -16024407.428 9 -14391201.339 8
  21121414.270    21121415.659   -20860661.662 9  -9474758.448 8
 89 11 20 11 36 29.0800000  0  4G13G 6G11G 9
  22600133.933    22600136.657   -37176749.137 9  30165925.910 8
  20538600.330    20538601.250    -6203934.224 9  -7044579.804 8
  20612046.136    20612047.432   -16035871.350 9 -14400134.257 8
  21109568.788    21109569.177   -20922916.638 8  -9523268.806 8
 89 11 20 11 36 59.0800000  0  4G13G 6G11G 9
  22581701.612    22581702.618   -37273621.767 9  30090440.709 7
  20541303.020    20541302.850    -6189736.796 9  -7033516.869 9
  20609967.621    20609968.599   -16046790.689 9 -14408642.817 8
  21097785.751    21097786.326   -20984833.508 9  -9571515.708 8
 89 11 20 11 37 29.0800000  0  4G13G 6G11G 9
  22563332.056    22563331.553   -37370157.806 9  30015217.895 8
  20544098.177    20544099.395    -6175039.605 9  -7022064.524 8
  20607992.768    20607994.224   -16057167.745 7 -14416728.831 8
  21086067.862    21086068.647   -21046411.885 9  -9619498.862 8
 89 11 20 11 37 59.0800000  0  4G13G 6G11G 9
  22545024.495    22545026.275   -37466354.435 9  29940259.451 8
  20546990.434    20546991.552    -6159840.789 9  -7010221.284 9
  20606120.340    20606122.668   -16067002.401 8 -14424392.193 8
  21074416.082    21074415.658   -21107648.320 9  -9667215.556 8
 89 11 20 11 38 29.0800000  0  4G13G 6G11G 9
  22526784.870    22526786.060   -37562207.892 9  29865568.489 8
  20549979.336    20549978.924    -6144137.784 9  -6997985.186 8
  20604351.756    20604353.505   -16076293.793 8 -14431632.221 8
  21062827.629    21062827.368   -21168538.477 9  -9714662.448 8
 89 11 20 11 38 59.0800000  0  4G13G 6G11G 9
  22508608.595    22508610.587   -37657717.464 9  29791145.462 9
  20553063.395    20553063.956    -6127930.440 9  -6985356.091 8
  20602687.769    20602689.319   -16085043.487 9 -14438450.153 8
  21051307.162    21051307.839   -21229080.699 9  -9761838.179 9
 89 11 20 11 39 29.0800000  0  4G13G 6G11G 9
  22490500.180    22490502.497   -37752881.675 9  29716991.518 9
  20556243.982    20556244.213    -6111218.654 9  -6972333.942 8
  20601126.162    20601127.415   -16093253.001 9 -14444847.164 9
  21039853.455    21039853.715   -21289273.163 9  -9808741.396 8
 89 11 20 11 39 59.0800000  0  4G13G 6G11G 9
  22472457.519    22472459.010   -37847697.875 9  29643108.788 9
  20559519.641    20559519.931    -6094000.594 9  -6958917.302 8
  20599667.226    20599667.729   -16100922.445 8 -14450823.350 8
  21028467.136    21028467.228   -21349112.535 9  -9855369.487 8
 89 11 20 11 40 29.0800000  0  4G13G 6G11G 9
  22454480.450    22454483.717   -37942163.204 9  29569499.386 9
  20562892.230    20562892.934    -6076274.644 9  -6945104.863 8
  20598310.205    20598310.997   -16108051.763 9 -14456378.663 8
  21017146.164    21017147.591   -21408595.449 9  -9901719.807 7
 89 11 20 11 40 59.0800000  0  4G13G 6G11G 9
  22436571.657    22436572.494   -38036277.602 9  29496163.577 9
  20566360.889    20566362.897    -6058041.835 8  -6930897.482 9
  20597054.777    20597056.104   -16114643.765 8 -14461515.273 9
  21005896.022    21005895.664   -21467721.001 9  -9947791.672 8
 89 11 20 11 41 29.0800000  0  4G13G 6G11G 9
  22418729.010    22418732.027   -38130038.122 9  29423103.409 8
  20569928.971    20569930.492    -6039299.775 8  -6916293.278 9
  20595902.843    20595903.838   -16120697.972 9 -14466232.830 8
  20994712.943    20994712.544   -21526485.580 9  -9993582.238 8
 89 11 20 11 41 59.0800000  0  4G13G 6G11G 9
  22400956.826    22400956.968   -38223441.514 9  29350321.614 8
  20573593.096    20573594.402    -6020046.930 9  -6901291.072 8
  20594853.991    20594853.762   -16126214.443 9 -14470531.367 8
  20983600.179    20983599.834   -21584885.716 9 -10039088.822 8
 89 11 20 11 42 29.0800000  0  4G13G 6G11G 9
  22383249.149    22383250.242   -38316488.183 9  29277817.683 8
  20577354.094    20577354.915    -6000283.808 9  -6885891.248 9
  20593907.566    20593907.187   -16131195.259 8 -14474412.526 9
  20972556.635    20972555.611   -21642920.141 9 -10084310.470 9
 89 11 20 11 42 59.0800000  0  4G13G 6G11G 9
  22365612.698    22365613.725   -38409175.314 9  29205593.959 9
  20581211.477    20581211.138    -5980008.687 9  -6870092.462 8
  20593061.040    20593061.173   -16135640.442 8 -14477876.292 9
  20961583.507    20961583.561   -21700585.447 9 -10129244.465 9
 89 11 20 11 43 29.0800000  0  4G13G 6G11G 9
  22348042.746    22348044.153   -38501499.552 9  29133653.027 9
  20585166.481    20585169.145    -5959219.709 9  -6853893.257 9
  20592316.393    20592316.884   -16139549.960 9 -14480922.669 8
  20950679.972    20950680.924   -21757877.904 8 -10173887.913 8
 89 11 20 11 43 59.0800000  0  4G13G 6G11G 9
  22330543.740    22330543.881   -38593460.157 9  29061995.408 8
  20589220.959    20589221.864    -5937917.112 9  -6837293.830 9
  20591673.579    20591674.495   -16142925.582 8 -14483553.005 7
  20939849.817    20939849.521   -21814795.979 9 -10218239.641 8
 89 11 20 11 44 29.0800000  0  4G13G 6G11G 9
  22313112.646    22313116.299   -38685056.857 9  28990621.359 8
  20593372.998    20593372.385    -5916101.669 9  -6820294.805 9
  20591130.781    20591134.153   -16145770.243 8 -14485769.634 8
  20929090.434    20929090.468   -21871338.575 9 -10262298.829 8
 89 11 20 11 44 59.0800000  0  4G13G 6G11G 9
  22295754.408    22295754.663   -38776286.483 9  28919533.339 8
  20597621.597    20597623.144    -5893771.192 9  -6802894.440 9
  20590691.969    20590692.905   -16148083.361 8 -14487572.068 8
  20918402.584    20918402.749   -21927501.973 9 -10306062.508 8
 89 11 20 11 45 29.0800000  0  4G13G 6G11G 9
  22278463.070    22278464.856   -38867146.563 9  28848733.298 9
  20601970.301    20601970.704    -5870924.592 9  -6785091.885 9
  20590352.237    20590353.645   -16149865.220 9 -14488960.495 8
  20907787.494    20907788.236   -21983282.976 9 -10349528.210 8
 89 11 20 11 45 59.0800000  0  4G13G 6G11G 9
  22261243.224    22261244.644   -38957635.298 9  28778222.603 9
  20606415.849    20606415.867    -5847560.921 9  -6766886.447 9
  20590114.065    20590116.155   -16151116.859 8 -14489935.793 8
  20897245.362    20897246.920   -22038678.804 9 -10392693.768 8
 89 11 20 11 46 29.0800000  0  4G13G 6G11G 9
  22244094.064    22244096.515   -39047751.990 9  28708001.789 8
  20610960.590    20610960.008    -5823681.024 9  -6748278.750 8
  20589977.091    20589977.902   -16151841.156 8 -14490500.173 8
  20886778.066    20886778.859   -22093688.564 9 -10435558.522 8
 89 11 20 11 46 59.0800000  0  4G13G 6G11G 9
  22227016.936    22227018.849   -39137494.941 9  28638072.269 9
  20615603.521    20615602.192    -5799283.778 9  -6729267.905 8
  20589939.082    20589940.057   -16152038.620 9 -14490654.036 8
  20876385.128    20876384.494   -22148309.306 9 -10478120.119 8
 89 11 20 11 47 29.0800000  0  4G13G 6G11G 9
  22210013.136    22210012.087   -39226860.311 9  28568436.895 8
  20620345.700    20620344.372    -5774365.945 9  -6709851.438 9
  20590002.377    20590003.833   -16151707.407 9 -14490395.941 7
  20866064.799    20866065.495   -22202535.663 9 -10520374.409 9
 89 11 20 11 47 59.0800000  0  4G13G 6G11G 9
  22193078.011    22193079.166   -39315847.300 9  28499096.388 8
  20625185.639    20625185.014    -5748928.581 9  -6690030.109 9
  20590165.117    20590166.593   -16150850.582 9 -14489728.278 7
  20855822.160    20855822.187   -22256366.762 9 -10562320.705 9
 89 11 20 11 48 29.0800000  0  4G13G 6G11G 9
  22176216.895    22176216.763   -39404456.519 9  28430050.267 9
  20630124.683    20630124.487    -5722972.993 9  -6669804.990 9
  20590426.959    20590428.990   -16149471.219 9 -14488653.451 9
  20845652.913    20845653.191   -22309802.182 9 -10603958.692 8
 89 11 20 11 48 59.0800000  0  4G13G 6G11G 9
  22159426.487    22159428.695   -39492683.548 9  28361301.884 9
  20635162.062    20635163.622    -5696496.371 9  -6649173.888 9
  20590789.459    20590791.066   -16147567.812 8 -14487170.284 7
  20835560.928    20835561.201   -22362836.875 9 -10645284.445 8
 89 11 20 11 49 29.0800000  0  4G13G 6G11G 9
  22142711.977    22142711.816   -39580526.016 9  28292853.225 9
  20640300.976    20640300.979    -5669496.954 8  -6628135.389 9
  20591250.628    20591252.950   -16145140.732 8 -14485279.049 7
  20825545.768    20825546.025   -22415467.393 9 -10686295.248 8
 89 11 20 11 49 59.0800000  0  4G13G 6G11G 9
  22126069.196    22126069.896   -39667983.386 9  28224704.623 9
  20645538.197    20645538.200    -5641975.862 9  -6606690.419 9
  20591812.461    20591813.489   -16142192.627 9 -14482981.818 8
  20815607.665    20815607.761   -22467692.631 9 -10726990.234 9
 89 11 20 11 50 29.0800000  0  4G13G 6G11G 9
  22109499.709    22109500.499   -39755054.207 9  28156857.304 9
  20650874.664    20650874.340    -5613932.672 9  -6584838.573 9
  20592472.604    20592472.938   -16138725.561 8 -14480280.190 8
  20805747.926    20805747.337   -22519510.485 9 -10767367.780 9
 89 11 20 11 50 59.0800000  0  4G13G 6G11G 9
  22093002.626    22093005.354   -39841736.472 9  28089312.647 9
  20656310.869    20656311.028    -5585366.087 9  -6562578.898 9
  20593230.889    20593231.619   -16134739.268 8 -14477173.977 8
  20795965.001    20795964.736   -22570917.318 9 -10807425.058 8
 89 11 20 11 51 29.0800000  0  4G13G 6G11G 9
  22076584.729    22076583.538   -39928029.703 9  28022071.201 9
  20661845.290    20661846.353    -5556276.863 9  -6539911.988 8
  20594088.977    20594088.054   -16130236.396 8 -14473665.252 7
  20786259.698    20786260.680   -22621911.895 9 -10847161.082 9
 89 11 20 11 51 59.0800000  0  4G13G 6G11G 9
  22060237.920    22060237.688   -40013931.712 9  27955134.560 8
  20667480.619    20667480.637    -5526664.161 9  -6516837.177 8
  20595043.530    20595043.716   -16125217.770 8 -14469754.623 8
  20776635.463    20776635.729   -22672491.328 9 -10886573.595 8
 89 11 20 11 52 29.0800000  0  4G13G 6G11G 9
  22043966.515    22043966.711   -40099440.113 9  27888504.635 9
  20673214.970    20673215.873    -5496526.535 9  -6493353.341 9
  20596095.409    20596096.877   -16119683.762 9 -14465442.409 7
  20767090.872    20767090.545   -22722652.022 9 -10925659.833 8
 89 11 20 11 52 59.0800000  0  4G13G 6G11G 9
  22027768.878    22027770.616   -40184552.153 9  27822183.588 9
  20679049.712    20679052.348    -5465862.610 9  -6469459.411 9
  20597246.227    20597248.117   -16113634.871 8 -14460728.977 7
  20757625.279    20757624.859   -22772390.622 9 -10964417.188 7
 89 11 20 11 53 29.0800000  0  4G13G 6G11G 9
  22011647.290    22011651.065   -40269267.526 9  27756171.590 8
  20684986.108    20684986.611    -5434673.182 9  -6445155.955 9
  20598494.529    20598497.036   -16107073.307 8 -14455616.087 8
  20748240.753    20748240.920   -22821705.936 9 -11002844.693 8
 89 11 20 11 53 59.0800000  0  4G13G 6G11G 9
  21995605.446    21995603.848   -40353585.481 9  27690469.381 9
  20691021.523    20691021.755    -5402958.489 9  -6420443.206 8
  20599841.908    20599842.850   -16100001.175 8 -14450105.308 8
  20738938.204    20738936.614   -22870596.101 9 -11040940.928 8
 89 11 20 11 54 29.0800000  0  4G13G 6G11G 9
  21979631.957    21979634.616   -40437504.225 9  27625078.111 9
  20697156.616    20697157.134    -5370717.881 9  -6395320.662 8
  20601283.610    20601284.617   -16092419.387 8 -14444197.411 7
  20729714.168    20729715.832   -22919058.079 9 -11078703.496 9
 89 11 20 11 54 59.0800000  0  4G13G 6G11G 9
  21963742.685    21963740.972   -40521021.593 9  27559999.651 8
  20703390.672    20703393.436    -5337950.657 9  -6369787.793 9
  20602823.168    20602825.365   -16084328.935 8 -14437893.146 8
  20720574.977    20720574.949   -22967088.999 9 -11116130.182 8
 89 11 20 11 55 29.0800000  0  4G13G 6G11G 9
  21947919.436    21947925.628   -40604135.524 8  27495235.574 8
  20709727.638    20709728.529    -5304656.159 9  -6343844.031 8
  20604459.735    20604461.080   -16075731.173 8 -14431193.575 7
  20711518.034    20711517.722   -23014686.236 9 -11153218.930 8
 89 11 20 11 55 59.0800000  0  4G13G 6G11G 9
  21932184.897    21932188.879   -40686845.567 9  27430786.141 9
  20716163.595    20716164.372    -5270834.155 9  -6317489.211 9
  20606191.860    20606193.172   -16066627.354 9 -14424099.702 7
  20702543.293    20702543.168   -23061847.551 9 -11189968.012 8
 89 11 20 11 56 29.0800000  0  4G13G 6G11G 9
  21916525.652    21916523.095   -40769148.863 9  27366653.776 9
  20722701.207    20722701.153    -5236484.159 9  -6290722.992 9
  20608020.692    20608021.248   -16057019.019 8 -14416612.689 7
  20693652.309    20693652.564   -23108569.910 9 -11226375.041 8
 89 11 20 11 56 59.0800000  0  4G13G 6G11G 9
  21900939.821    21900943.196   -40851043.912 9  27302839.433 9
  20729337.093    20729338.727    -5201605.603 9  -6263544.910 8
  20609944.795    20609946.311   -16046907.196 8 -14408733.322 8
  20684845.144    20684846.018   -23154850.876 8 -11262438.119 8
 89 11 20 11 57 29.0800000  0  4G13G 6G11G 9
  21885435.195    21885433.297   -40932530.945 9  27239343.054 8
  20736074.116    20736075.192    -5166199.517 9  -6235955.779 9
  20611963.936    20611965.712   -16036294.205 8 -14400463.448 8
  20676122.047    20676123.016   -23200688.881 8 -11298156.037 8
 89 11 20 11 57 59.0800000  0  4G13G 6G11G 9
  21870001.800    21870005.118   -41013608.035 9  27176166.114 8
  20742914.709    20742913.140    -5130265.284 9  -6207955.100 9
  20614078.953    20614081.484   -16025181.379 8 -14391804.097 8
  20667484.012    20667485.064   -23246081.431 9 -11333526.855 8
 89 11 20 11 58 29.0800000  0  4G13G 6G11G 9
  21854652.956    21854656.302   -41094271.951 9  27113311.112 8
  20749852.347    20749852.394    -5093801.450 9  -6179541.728 8
  20616288.200    20616291.659   -16013569.006 8 -14382755.487 8
  20658931.504    20658932.587   -23291024.605 8 -11368547.505 8
 89 11 20 11 58 59.0800000  0  4G13G 6G11G 9
  21839385.907    21839387.263   -41174522.295 9  27050778.383 9
  20756892.096    20756893.001    -5056808.005 9  -6150715.683 9
  20618593.649    20618595.863   -16001458.726 8 -14373318.902 9
  20650464.739    20650465.463   -23335516.166 8 -11403216.218 8
 89 11 20 11 59 29.0800000  0  4G13G 6G11G 9
  21824192.363    21824191.379   -41254358.268 9  26988568.553 8
  20764031.865    20764031.697    -5019285.834 9  -6121477.639 9
  20620992.483    20620993.925   -15988853.068 8 -14363496.314 8
  20642084.469    20642085.943   -23379554.683 8 -11437531.931 8
 89 11 20 11 59 59.0800000  0  4G13G 6G11G 9
  21809080.286    21809080.849   -41333778.463 9  26926682.681 9
  20771271.371    20771273.808    -4981234.695 9  -6091827.420 9
  20623485.714    20623486.582   -15975753.630 8 -14353288.947 8
  20633790.185    20633791.918   -23423137.792 8 -11471492.780 8
 89 11 20 12  0 29.0800000  0  4G13G 6G11G 9
  21794044.310    21794046.165   -41412780.696 9  26865122.509 8
  20778613.930    20778615.621    -4942653.700 9  -6061764.298 9
  20626071.169    20626072.901   -15962160.872 9 -14342697.179 8
  20625584.687    20625584.918   -23466262.246 8 -11505096.236 6
 89 11 20 12  0 59.0800000  0  4G13G 6G11G 9
  21779090.127    21779090.081   -41491363.124 9  26803889.444 8
  20786058.401    20786056.814    -4903542.479 9  -6031288.022 8
  20628751.716    20628753.065   -15948076.570 8 -14331722.396 8
  20617466.202    20617467.105   -23508925.283 8 -11538340.191 7
 89 11 20 12  1 29.0800000  0  4G13G 6G11G 9
  21764218.588    21764218.806   -41569525.469 8  26742983.766 8
  20793601.289    20793599.617    -4863902.319 9  -6000399.599 9
  20631523.969    20631527.958   -15933503.355 8 -14320366.642 8
  20609435.399    20609436.574   -23551125.936 8 -11571223.809 8
 89 11 20 12  1 59.0800000  0  4G13G 6G11G 9
  21749421.251    21749424.237   -41647266.463 9  26682406.320 8
  20801245.571    20801244.617    -4823732.138 9  -5969098.179 9
  20634391.194    20634392.849   -15918441.931 9 -14308630.465 8
  20601493.990    20601494.777   -23592860.692 9 -11603744.384 8
 89 11 20 12  2 29.0800000  0  4G13G 6G11G 9
  21734710.857    21734712.155   -41724583.488 9  26622159.305 8
  20808991.507    20808991.338    -4783030.964 9  -5937383.002 9
  20637350.844    20637350.198   -15902892.797 9 -14296514.247 8
  20593642.138    20593642.384   -23634126.225 8 -11635899.316 8
 89 11 20 12  2 59.0800000  0  4G13G 6G11G 9
  21720077.816    21720077.615   -41801476.741 9  26562242.506 8
  20816835.433    20816837.383    -4741800.227 9  -5905255.166 9
  20640401.351    20640402.676   -15886859.107 8 -14284020.467 7
  20585879.273    20585878.253   -23674921.685 9 -11667687.961 7
 89 11 20 12  3 29.0800000  0  4G13G 6G11G 9
  21705527.451    21705530.558   -41877945.254 9  26502656.656 9
  20824781.469    20824782.388    -4700040.388 9  -5872715.049 8
  20643543.792    20643544.891   -15870343.056 8 -14271150.823 7
  20578205.407    20578206.682   -23715245.054 9 -11699108.749 7
 89 11 20 12  3 59.0800000  0  4G13G 6G11G 9
  21691059.130    21691057.590   -41953986.754 9  26443403.562 8
  20832828.698    20832829.446    -4657750.448 9  -5839761.851 9
  20646778.547    20646779.913   -15853345.257 9 -14257905.756 7
  20570622.419    20570623.159   -23755093.138 8 -11730159.189 7
 89 11 20 12  4 29.0800000  0  4G13G 6G11G 9
  21676666.916    21676669.249   -42029600.261 9  26384483.976 9
  20840976.980    20840978.800    -4614930.847 9  -5806395.930 9
  20650104.620    20650106.741   -15835867.513 8 -14244286.721 8
  20563131.434    20563130.895   -23794463.922 8 -11760837.719 8
 89 11 20 12  4 59.0800000  0  4G13G 6G11G 9
  21662363.030    21662362.362   -42104782.780 9  26325900.163 9
  20849227.458    20849229.566    -4571579.897 9  -5772615.985 9
  20653521.677    20653523.581   -15817909.873 9 -14230293.757 8
  20555730.509    20555731.436   -23833353.141 9 -11791141.011 8
 89 11 20 12  5 29.0800000  0  4G13G 6G11G 9
  21648138.146    21648138.042   -42179534.098 9  26267652.444 9
  20857577.527    20857579.836    -4527698.762 9  -5738422.914 9
  20657030.266    20657030.232   -15799475.087 8 -14215928.993 8
  20548422.029    20548423.495   -23871759.764 9 -11821068.254 8
 89 11 20 12  5 59.0800000  0  4G13G 6G11G 9
  21633992.457    21633994.894   -42253854.977 9  26209739.993 8
  20866028.536    20866030.613    -4483289.588 9  -5703818.383 9
  20660627.374    20660629.260   -15780566.829 8 -14201195.308 8
  20541206.530    20541205.407   -23909683.301 8 -11850619.070 7
 89 11 20 12  6 29.0800000  0  4G13G 6G11G 9
  21619934.503    21619933.334   -42327742.915 9  26152165.022 8
  20874579.622    20874579.193    -4438350.835 9  -5668801.198 9
  20664314.958    20664316.729   -15761185.174 8 -14186092.713 8
  20534080.009    20534081.176   -23947119.823 8 -11879790.394 8
 89 11 20 12  6 59.0800000  0  4G13G 6G11G 9
  21605956.073    21605956.880   -42401196.036 9  26094928.857 8
  20883231.844    20883232.034    -4392881.885 9  -5633370.868 9
  20668093.074    20668095.615   -15741331.481 9 -14170622.303 8
  20527050.222    20527050.052   -23984066.470 8 -11908579.961 8
 89 11 20 12  7 29.0800000  0  4G13G 6G11G 9
  21592060.637    21592061.794   -42474212.679 9  26038032.771 8
  20891985.719    20891987.482    -4346883.048 9  -5597527.659 9
  20671960.499    20671962.647   -15721007.228 9 -14154785.231 7
  20520114.267    20520112.871   -24020520.817 8 -11936985.935 8
 89 11 20 12  7 59.0800000  0  4G13G 6G11G 9
  21578249.811    21578249.143   -42546792.880 9  25981476.819 9
  20900838.930    20900840.665    -4300354.923 9  -5561271.979 8
  20675918.206    20675919.437   -15700214.793 8 -14138583.328 8
  20513271.070    20513270.375   -24056481.017 9 -11965006.874 7
 89 11 20 12  8 29.0800000  0  4G13G 6G11G 9
  21564517.964    21564523.511   -42618936.354 8  25925261.070 8
  20909794.449    20909794.681    -4253298.408 9  -5524604.565 9
  20679963.182    20679965.317   -15678956.380 9 -14122018.314 8
  20506522.160    20506521.866   -24091945.558 8 -11992641.586 8
 89 11 20 12  8 59.0800000  0  4G13G 6G11G 9
  21550878.133    21550875.448   -42690641.111 9  25869387.282 8
  20918848.789    20918850.022    -4205713.332 9  -5487525.287 9
  20684097.846    20684099.022   -15657233.471 7 -14105091.374 9
  20499868.445    20499867.462   -24126911.750 9 -12019887.962 8
 89 11 20 12  9 29.0800000  0  4G13G 6G11G 9
  21537317.711    21537318.237   -42761905.886 9  25813856.307 9
  20928004.810    20928006.646    -4157599.524 9  -5450034.050 9
  20688319.305    20688321.850   -15635047.519 9 -14087803.620 7
  20493309.592    20493309.981   -24161377.100 9 -12046744.064 9
 89 11 20 12  9 59.0800000  0  4G13G 6G11G 9
  21523833.521    21523836.808   -42832728.418 9  25758669.867 8
  20937260.853    20937264.218    -4108956.386 9  -5412130.307 9
  20692628.919    20692630.392   -15612399.523 9 -14070155.827 8
  20486847.280    20486847.239   -24195338.310 8 -12073207.331 8
 89 11 20 12 10 29.0800000  0  4G13G 6G11G 9
  21510443.291    21510446.529   -42903108.668 9  25703828.104 9
  20946618.577    20946619.437    -4059785.475 9  -5373815.312 8
  20697025.987    20697027.707   -15589292.408 8 -14052150.272 9
  20480481.045    20480481.252   -24228794.491 8 -12099277.092 8
 89 11 20 12 10 59.0800000  0  4G13G 6G11G 9
  21497137.408    21497136.253   -42973045.903 9  25649331.539 8
  20956075.519    20956076.067    -4010087.138 9  -5335089.355 9
  20701510.437    20701511.145   -15565728.113 9 -14033788.477 8
  20474210.982    20474210.931   -24261743.265 9 -12124951.462 8
 89 11 20 12 11 29.0800000  0  4G13G 6G11G 9
  21483910.160    21483913.257   -43042539.063 9  25595181.042 9
  20965633.542    20965634.690    -3959861.770 8  -5295952.723 9
  20706081.633    20706082.663   -15541708.241 8 -14015071.711 9
  20468038.850    20468037.153   -24294182.724 9 -12150228.971 8
 89 11 20 12 11 59.0800000  0  4G13G 6G11G 9
  21470773.192    21470774.950   -43111587.368 9  25541377.155 9
  20975292.817    20975292.520    -3909109.549 9  -5256405.547 9
  20710738.906    20710741.206   -15517234.700 8 -13996001.416 8
  20461962.750    20461962.367   -24326110.464 9 -12175107.738 8
 89 11 20 12 12 29.0800000  0  4G13G 6G11G 9
  21457719.929    21457720.341   -43180189.225 9  25487921.190 9
  20985050.397    20985051.431    -3857830.453 9  -5216447.803 9
  20715481.564    20715482.368   -15492308.851 8 -13976578.667 8
  20455983.734    20455985.286   -24357523.702 9 -12199585.584 9
 89 11 20 12 12 59.0800000  0  4G13G 6G11G 9
  21444746.913    21444748.106   -43248344.253 9  25434813.359 8
  20994908.512    20994908.630    -3806025.189 9  -5176080.060 9
  20720311.059    20720312.660   -15466932.811 9 -13956805.129 8
  20450105.263    20450105.394   -24388420.698 8 -12223661.167 9
 89 11 20 12 13 29.0800000  0  4G13G 6G11G 9
  21431863.580    21431865.917   -43316051.494 9  25382054.478 8
  21004866.135    21004865.695    -3753694.175 9  -5135302.657 8
  20725224.969    20725225.299   -15441108.661 8 -13936682.424 8
  20444323.818    20444324.228   -24418799.405 9 -12247332.887 8
 89 11 20 12 13 59.0800000  0  4G13G 6G11G 9
  21419066.246    21419067.530   -43383309.113 9  25329645.928 8
  21014924.350    21014924.781    -3700837.202 9  -5094115.402 9
  20730222.534    20730225.151   -15414837.760 8 -13916211.595 9
  20438641.804    20438642.420   -24448656.806 8 -12270598.392 8
 89 11 20 12 14 29.0800000  0  4G13G 6G11G 9
  21406351.869    21406353.183   -43450117.343 9  25277587.606 8
  21025082.129    21025081.889    -3647455.926 9  -5052519.612 9
  20735308.129    20735308.675   -15388123.129 9 -13895395.006 8
  20433060.701    20433059.718   -24477992.237 8 -12293457.157 8
 89 11 20 12 14 59.0800000  0  4G13G 6G11G 9
  21393725.758    21393728.917   -43516474.777 9  25225880.500 9
  21035340.157    21035341.063    -3593550.346 9  -5010515.271 8
  20740475.569    20740476.911   -15360966.026 9 -13874233.620 8
  20427577.488    20427577.552   -24506802.983 8 -12315907.076 8
 89 11 20 12 15 29.0800000  0  4G13G 6G11G 9
  21381184.329    21381182.851   -43582380.279 9  25174525.572 8
  21045698.780    21045698.684    -3539121.161 9  -4968102.957 8
  20745727.526    20745727.486   -15333368.643 8 -13852729.163 9
  20422195.699    20422195.701   -24535087.078 9 -12337946.622 8
 89 11 20 12 15 59.0800000  0  4G13G 6G11G 9
  21368726.194    21368729.691   -43647834.232 9  25123522.490 8
  21056155.421    21056154.852    -3484169.376 9  -4925283.387 8
  20751062.642    20751063.602   -15305333.502 8 -13830883.613 8
  20416913.848    20416913.398   -24562843.074 9 -12359574.679 8
 89 11 20 12 16 29.0800000  0  4G13G 6G11G 9
  21356356.646    21356359.906   -43712833.637 9  25072873.583 8
  21066714.201    21066711.370    -3428693.724 9  -4882055.607 9
  20756481.040    20756481.453   -15276860.552 8 -13808696.904 9
  20411732.661    20411732.792   -24590067.017 9 -12380788.136 8
 89 11 20 12 16 59.0800000  0  4G13G 6G11G 9
  21344076.203    21344077.409   -43777378.183 9  25022579.144 9
  21077369.195    21077369.214    -3372695.021 9  -4838420.271 9
  20761981.983    20761983.997   -15247952.052 9 -13786170.802 8
  20406652.924    20406655.066   -24616756.956 8 -12401585.500 7
 89 11 20 12 17 29.0800000  0  4G13G 6G11G 9
  21331880.735    21331882.041   -43841468.133 9  24972638.945 9
  21088124.010    21088125.429    -3316175.208 9  -4794378.870 9
  20767563.757    20767566.455   -15218611.288 9 -13763307.874 8
  20401676.780    20401677.765   -24642912.310 8 -12421966.281 8
 89 11 20 12 17 59.0800000  0  4G13G 6G11G 9
  21319771.858    21319773.179   -43905102.285 9  24923053.870 9
  21098978.162    21098978.822    -3259134.715 9  -4749931.739 8
  20773229.927    20773231.366   -15188840.132 9 -13740109.575 8
  20396801.091    20396803.077   -24668530.990 8 -12441928.881 9
 89 11 20 12 18 29.0800000  0  4G13G 6G11G 9
  21307751.112    21307750.201   -43968280.035 9  24873824.472 8
  21109930.901    21109930.660    -3201573.981 9  -4705079.228 9
  20778976.505    20778977.374   -15158640.291 9 -13716577.240 9
  20392028.978    20392030.525   -24693610.731 8 -12461471.540 8
 89 11 20 12 18 59.0800000  0  4G13G 6G11G 9
  21295814.474    21295814.000   -44031000.263 9  24824951.595 9
  21120983.290    21120983.795    -3143493.206 9  -4659821.483 9
  20784805.542    20784805.659   -15128013.323 9 -13692712.068 8
  20387359.498    20387359.428   -24718149.134 8 -12480592.366 7
 89 11 20 12 19 29.0800000  0  4G13G 6G11G 9
  21283964.294    21283966.816   -44093263.037 9  24776435.161 9
  21132133.355    21132135.390    -3084894.029 9  -4614159.773 9
  20790713.114    20790714.352   -15096962.047 8 -13668516.252 8
  20382793.117    20382793.056   -24742145.024 9 -12499290.446 8
 89 11 20 12 19 59.0800000  0  4G13G 6G11G 9
  21272203.460    21272206.626   -44155066.281 9  24728276.785 8
  21143382.924    21143385.559    -3025776.040 9  -4568093.804 9
  20796702.802    20796703.365   -15065487.476 9 -13643990.603 8
  20378330.940    20378330.939   -24765595.361 8 -12517563.426 8
 89 11 20 12 20 29.0800000  0  4G13G 6G11G 9
  21260530.556    21260530.874   -44216409.680 9  24680476.737 9
  21154731.801    21154734.122    -2966140.128 9  -4521624.280 9
  20802773.022    20802773.376   -15033591.987 8 -13619136.996 8
  20373972.680    20373973.119   -24788498.328 8 -12535409.888 8
 89 11 20 12 20 59.0800000  0  4G13G 6G11G 9
  21248945.918    21248947.639   -44277294.184 9  24633034.261 8
  21166179.009    21166179.244    -2905988.578 9  -4474752.952 8
  20808920.950    20808923.216   -15001278.862 9 -13593957.940 8
  20369718.161    20369718.936   -24810853.895 8 -12552829.814 8
 89 11 20 12 21 29.0800000  0  4G13G 6G11G 9
  21237447.351    21237448.442   -44337718.194 9  24585950.634 8
  21177724.751    21177724.998    -2845321.384 9  -4427479.810 9
  20815148.928    20815151.317   -14968549.509 9 -13568454.536 8
  20365568.919    20365570.028   -24832659.172 9 -12569820.935 8
 89 11 20 12 21 59.0800000  0  4G13G 6G11G 9
  21226038.163    21226037.211   -44397679.877 9  24539227.274 8
  21189367.195    21189368.085    -2784138.370 9  -4379804.753 9
  20821456.146    20821458.598   -14935405.056 8 -13542627.708 8
  20361524.420    20361525.371   -24853911.312 8 -12586381.019 7
 89 11 20 12 22 29.0800000  0  4G13G 6G11G 9
  21214716.795    21214715.960   -44457178.900 9  24492864.413 8
  21201107.599    21201106.845    -2722440.144 9  -4331728.212 9
  20827842.437    20827844.684   -14901847.443 8 -13516478.911 8
  20357585.770    20357584.588   -24874608.460 9 -12602508.654 8
 89 11 20 12 22 59.0800000  0  4G13G 6G11G 9
  21203480.449    21203483.701   -44516214.650 9  24446862.539 9
  21212946.794    21212947.371    -2660227.803 9  -4283251.096 9
  20834306.322    20834309.211   -14867878.843 8 -13490009.891 8
  20353754.193    20353753.752   -24894748.665 8 -12618202.325 8
 89 11 20 12 23 29.0800000  0  4G13G 6G11G 9
  21192332.364    21192336.345   -44574788.259 9  24401220.772 8
  21224881.460    21224884.410    -2597503.837 9  -4234375.276 8
  20840848.571    20840849.192   -14833502.951 8 -13463223.474 9
  20350028.541    20350027.818   -24914332.258 9 -12633462.267 8
 89 11 20 12 23 59.0800000  0  4G13G 6G11G 9
  21181274.726    21181277.463   -44632897.810 9  24355940.591 9
  21236915.460    21236915.305    -2534267.538 9  -4185100.257 9
  20847467.291    20847468.804   -14798720.334 8 -13436120.136 7
  20346407.041    20346406.898   -24933355.280 8 -12648285.423 9
 89 11 20 12 24 29.0800000  0  4G13G 6G11G 9
  21170308.024    21170308.707   -44690542.777 9  24311022.442 9
  21249045.618    21249048.184    -2470520.003 9  -4135426.880 8
  20854162.247    20854164.941   -14763533.393 8 -13408701.731 8
  20342893.488    20342893.432   -24951816.346 8 -12662670.654 8
 89 11 20 12 24 59.0800000  0  4G13G 6G11G 9
  21159428.007    21159427.188   -44747722.445 9  24266466.874 8
  21261274.195    21261275.701    -2406262.316 9  -4085355.959 9
  20860935.557    20860936.767   -14727944.555 9 -13380970.176 7
  20339487.315    20339487.603   -24969714.152 8 -12676616.962 7
 89 11 20 12 25 29.0800000  0  4G13G 6G11G 9
  21148634.616    21148635.700   -44804436.970 9  24222273.741 9
  21273599.502    21273598.619    -2341496.073 9  -4034888.772 9
  20867783.666    20867785.337   -14691956.103 9 -13352927.238 9
  20336188.705    20336190.566   -24987047.175 8 -12690123.212 8
 89 11 20 12 25 59.0800000  0  4G13G 6G11G 9
  21137930.002    21137931.514   -44860685.815 9  24178443.490 9
  21286020.700    21286021.906    -2276221.975 9  -3984025.854 9
  20874707.948    20874708.348   -14655570.139 8 -13324574.523 8
  20333000.773    20332999.820   -25003813.665 9 -12703188.005 8
 89 11 20 12 26 29.0800000  0  4G13G 6G11G 9
  21127316.156    21127315.895   -44916469.079 9  24134976.039 8
  21298538.423    21298538.563    -2210441.382 9  -3932768.267 9
  20881706.294    20881708.177   -14618789.159 9 -13295914.033 8
  20329916.746    20329915.982   -25020012.332 8 -12715810.329 8
 89 11 20 12 26 59.0800000  0  4G13G 6G11G 9
  21116788.167    21116790.138   -44971784.877 9  24091872.793 8
  21311151.431    21311152.028    -2144154.048 9  -3881115.840 9
  20888780.978    20888783.690   -14581613.955 8 -13266946.373 8
  20326942.796    20326942.622   -25035640.189 9 -12727987.906 8
 89 11 20 12 27 29.0800000  0  4G13G 6G11G 9
  21106349.181    21106351.208   -45026633.136 9  24049133.892 8
  21323861.662    21323864.055    -2077361.260 9  -3829069.514 9
  20895930.591    20895930.491   -14544047.082 9 -13237673.487 8
  20324076.565    20324078.814   -25050695.794 8 -12739719.533 8
 89 11 20 12 27 59.0800000  0  4G13G 6G11G 9
  21096002.788    21096002.800   -45081013.923 9  24006759.260 8
  21336667.337    21336668.375    -2010064.579 9  -3776630.553 9
  20903152.857    20903153.035   -14506091.039 9 -13208097.347 8
  20321321.410    20321322.372   -25065178.075 8 -12751004.432 7
 89 11 20 12 28 29.0800000  0  4G13G 6G11G 9
  21085744.470    21085746.570   -45134926.467 9  23964749.481 9
  21349570.391    21349570.926    -1942264.788 9  -3723799.578 8
  20910449.763    20910449.160   -14467747.725 9 -13178219.444 8
  20318675.565    20318675.218   -25079085.067 8 -12761841.043 7
 89 11 20 12 28 59.0800000  0  4G13G 6G11G 9
  21075574.954    21075574.249   -45188371.079 9  23923104.347 9
  21362567.486    21362568.918    -1873963.430 9  -3670577.760 9
  20917818.752    20917820.348   -14429019.977 9 -13148041.974 8
  20316139.398    20316138.959   -25092415.697 9 -12772228.545 7
 89 11 20 12 29 29.0800000  0  4G13G 6G11G 9
  21065492.351    21065492.190   -45241346.875 9  23881824.529 8
  21375658.161    21375660.011    -1805161.363 9  -3616965.787 9
  20925261.313    20925262.599   -14389909.364 9 -13117566.183 7
  20313711.131    20313712.906   -25105168.109 8 -12782165.506 8
 89 11 20 12 29 59.0800000  0  4G13G 6G11G 9
  21055499.797    21055503.428   -45293853.270 9  23840910.451 7
  21388846.629    21388849.249    -1735859.169 9  -3562964.114 9
  20932776.926    20932777.503   -14350417.933 9 -13086793.622 8
  20311396.035    20311396.796   -25117340.166 8 -12791650.211 7
 89 11 20 12 30 29.0800000  0  4G13G 6G11G 9
  21045599.222    21045597.002   -45345889.916 9  23800362.427 8
  21402130.400    21402131.390    -1666058.688 9  -3508574.110 9
  20940364.004    20940364.638   -14310548.400 9 -13055726.452 8
  20309189.808    20309189.864   -25128931.022 9 -12800682.037 7
 89 11 20 12 30 59.0800000  0  4G13G 6G11G 9
  21035785.790    21035785.818   -45397456.516 9  23760180.666 7
  21415509.321    21415507.365    -1595760.532 9  -3453796.333 8
  20948021.688    20948022.237   -14270302.171 8 -13024365.764 7
  20307094.184    20307095.855   -25139938.770 8 -12809259.510 8
 89 11 20 12 31 29.0800000  0  4G13G 6G11G 9
  21026061.819    21026065.954   -45448553.822 9  23720364.579 7
  21428980.222    21428980.453    -1524966.629 9  -3398632.274 9
  20955750.677    20955752.711   -14229682.208 8 -12992713.854 8
  20305111.796    20305112.114   -25150362.389 8 -12817381.810 8
 89 11 20 12 31 59.0800000  0  4G13G 6G11G 9
  21016429.599    21016427.507   -45499181.304 9  23680914.635 9
  21442543.646    21442546.496    -1453678.341 9  -3343082.977 8
  20963551.757    20963554.283   -14188690.965 8 -12960772.629 8
  20303238.324    20303238.690   -25160200.767 8 -12825048.078 8
 89 11 20 12 32 29.0800000  0  4G13G 6G11G 9
  21006886.913    21006887.167   -45549337.399 9  23641831.992 9
  21456203.492    21456206.050    -1381895.343 9  -3287148.164 9
  20971421.622    20971424.540   -14147329.192 9 -12928542.686 8
  20301479.841    20301479.993   -25169450.808 9 -12832255.907 8
 89 11 20 12 32 59.0800000  0  4G13G 6G11G 9
  20997432.641    20997431.194   -45599022.776 9  23603116.119 8
  21469959.146    21469958.620    -1309619.916 9  -3230829.655 9
  20979363.503    20979364.231   -14105600.015 9 -12896026.455 8
  20299831.351    20299831.983   -25178112.144 8 -12839005.015 8
 89 11 20 12 33 29.0800000  0  4G13G 6G11G 9
  20988062.723    20988064.537   -45648237.416 9  23564767.064 8
  21483805.670    21483806.009    -1236853.548 9  -3174128.628 9
  20987372.959    20987375.049   -14063505.670 8 -12863225.689 8
  20298295.546    20298296.514   -25186183.561 8 -12845294.433 8
 89 11 20 12 33 59.0800000  0  4G13G 6G11G 9
  20978786.316    20978791.406   -45696980.771 9  23526785.216 8
  21497744.754    21497747.161    -1163597.397 9  -3117045.897 9
  20995453.716    20995454.205   -14021048.374 8 -12830142.073 8
  20296870.682    20296873.449   -25193663.494 8 -12851122.949 8
 89 11 20 12 34 29.0800000  0  4G13G 6G11G 9
  20969601.515    20969602.955   -45745252.376 9  23489170.980 8
  21511778.385    21511778.172    -1089852.736 9  -3059582.536 9
  21003601.411    21003601.459   -13978230.241 8 -12796777.291 7
  20295561.713    20295562.339   -25200550.544 8 -12856489.475 7
 89 11 20 12 34 59.0800000  0  4G13G 6G11G 9
  20960507.835    20960508.490   -45793052.726 9  23451923.972 8
  21525905.424    21525907.160    -1015620.209 9  -3001739.043 9
  21011818.026    21011818.142   -13935053.256 8 -12763132.887 8
  20294364.637    20294364.267   -25206842.873 9 -12861392.592 7
 89 11 20 12 35 29.0800000  0  4G13G 6G11G 9
  20951500.984    20951504.258   -45840381.566 9  23415044.355 8
  21540123.989    21540123.026     -940902.014 9  -2943517.096 9
  21020101.449    21020103.131   -13891520.061 9 -12729210.920 8
  20293281.062    20293281.250   -25212539.768 8 -12865831.734 7
 89 11 20 12 35 59.0800000  0  4G13G 6G11G 9
  20942584.783    20942584.620   -45887238.300 9  23378532.656 8
  21554432.156    21554434.865     -865698.979 9  -2884917.374 9
  21028453.463    21028454.652   -13847632.451 8 -12695012.779 8
  20292308.104    20292310.008   -25217639.514 8 -12869805.555 7
 89 11 20 12 36 29.0800000  0  4G13G 6G11G 9
  20933756.652    20933755.736   -45933623.959 9  23342388.023 8
  21568835.202    21568837.277     -790013.710 9  -2825941.818 9
  21036871.590    21036872.041   -13803393.914 8 -12660541.187 8
  20291451.592    20291451.951   -25222142.101 8 -12873314.079 7
 89 11 20 12 36 59.0800000  0  4G13G 6G11G 9
  20925019.045    20925021.460   -45979538.716 9  23306610.294 8
  21583331.426    21583330.242     -713847.482 9  -2766591.505 9
  21045356.146    21045356.980   -13758806.591 8 -12625797.816 8
  20290709.254    20290709.784   -25226045.998 8 -12876356.077 7
 89 11 20 12 37 29.0800000  0  4G13G 6G11G 9
  20916370.881    20916373.610   -46024980.666 9  23271200.990 8
  21597916.148    21597917.223     -637199.684 9  -2706865.956 9
  21053907.354    21053909.826   -13713870.567 9 -12590782.745 9
  20290081.254    20290081.439   -25229348.300 8 -12878929.304 7
 89 11 20 12 37 59.0800000  0  4G13G 6G11G 9
  20907815.128    20907814.223   -46069949.637 9  23236160.236 8
  21612591.333    21612592.636     -560072.375 9  -2646766.772 9
  21062523.637    21062525.528   -13668588.787 8 -12555498.245 8
  20289565.860    20289567.560   -25232048.123 8 -12881033.067 8
 89 11 20 12 38 29.0800000  0  4G13G 6G11G 9
  20899349.821    20899346.898   -46114447.743 9  23201486.411 8
  21627360.506    21627361.224     -482468.865 9  -2586296.521 9
  21071206.134    21071207.162   -13622965.175 9 -12519947.367 8
  20289168.137    20289168.771   -25234146.107 8 -12882667.868 7
 89 11 20 12 38 59.0800000  0  4G13G 6G11G 9
  20890971.258    20890970.210   -46158474.168 9  23167180.107 9
  21642218.424    21642217.627     -404389.704 9  -2525455.642 8
  21079953.575    21079953.332   -13577001.295 9 -12484131.370 9
  20288883.831    20288882.666   -25235640.547 9 -12883832.357 7
 89 11 20 12 39 29.0800000  0  4G13G 6G11G 9
  20882682.714    20882682.926   -46202027.930 9  23133242.128 9
  21657166.736    21657168.578     -325835.408 9  -2464244.547 9
  21088764.594    21088764.124   -13530697.976 9 -12448050.858 8
  20288715.471    20288714.840   -25236528.748 9 -12884524.473 7
 89 11 20 12 39 59.0800000  0  4G13G 6G11G 9
  20874482.959    20874484.700   -46245108.803 9  23099672.614 9
  21672204.343    21672205.649     -246807.675 9  -2402664.467 9
  21097639.530    21097640.770   -13484057.840 9 -12411707.916 9
  20288661.033    20288662.951   -25236810.329 8 -12884743.885 7
 89 11 20 12 40 29.0800000  0  4G13G 6G11G 9
  20866374.038    20866374.966   -46287717.552 9  23066470.997 8
  21687334.016    21687333.610     -167308.558 9  -2340717.140 9
  21106578.800    21106580.905   -13437083.713 9 -12375104.710 8
  20288722.165    20288724.208   -25236484.375 8 -12884489.900 7
 89 11 20 12 40 59.0800000  0  4G13G 6G11G 9
  20858353.362    20858356.864   -46329856.549 9  23033635.447 9
  21702551.116    21702552.399      -87340.968 9  -2278404.746 8
  21115580.907    21115580.963   -13389779.673 9 -12338244.425 8
  20288901.341    20288899.819   -25235551.379 8 -12883762.883 7
 89 11 20 12 41 29.0800000  0  4G13G 6G11G 9
  20850425.824    20850428.684   -46371523.987 9  23001167.326 8
  21717856.070    21717857.447       -6905.586 9  -2215727.865 9
  21124644.375    21124646.301   -13342146.539 9 -12301127.704 8
  20289194.791    20289193.648   -25234009.293 8 -12882561.263 8
 89 11 20 12 41 59.0800000  0  4G13G 6G11G 9
  20842588.106    20842587.873   -46412719.424 9  22969067.003 8
  21733250.864    21733254.256       73997.135 9  -2152686.767 9
  21133770.558    21133772.830   -13294185.354 9 -12263755.382 9
  20289603.495    20289604.331   -25231856.118 8 -12880883.465 7
 89 11 20 12 42 29.0800000  0  4G13G 6G11G 9
  20834839.003    20834839.015   -46453441.723 9  22937335.381 9
  21748737.105    21748736.129      155366.161 9  -2089282.345 9
  21142960.710    21142961.215   -13245898.147 9 -12226128.973 9
  20290130.114    20290131.053   -25229090.214 8 -12878728.210 6
 89 11 20 12 42 59.0800000  0  4G13G 6G11G 9
  20827177.704    20827180.619   -46493692.759 9  22905970.924 8
  21764308.153    21764309.344      237198.055 9  -2025517.256 9
  21152209.466    21152211.445   -13197288.532 9 -12188251.361 8
  20290771.784    20290773.131   -25225712.463 8 -12876096.201 8
 89 11 20 12 43 29.0800000  0  4G13G 6G11G 9
  20819608.067    20819609.567   -46533474.663 9  22874972.045 8
  21779967.794    21779968.111      319490.178 9  -1961393.517 9
  21161520.546    21161522.757   -13148360.153 9 -12150125.345 8
  20291532.026    20291532.799   -25221722.903 8 -12872987.468 7
 89 11 20 12 43 59.0800000  0  4G13G 6G11G 9
  20812126.889    20812128.300   -46572785.152 9  22844340.509 8
  21795715.323    21795716.235      402242.732 9  -1896911.044 9
  21170891.586    21170892.741   -13099113.529 9 -12111751.355 8
  20292407.876    20292408.330   -25217118.859 8 -12869399.882 8
 89 11 20 12 44 29.0800000  0  4G13G 6G11G 9
  20804737.768    20804738.328   -46611624.411 9  22814076.158 8
  21811549.274    21811550.742      485454.361 9  -1832070.837 8
  21180323.716    21180324.757   -13049550.390 9 -12073130.737 8
  20293401.516    20293401.952   -25211899.131 7 -12865332.590 8
 89 11 20 12 44 59.0800000  0  4G13G 6G11G 9
  20797437.145    20797437.539   -46649992.852 8  22784178.680 8
  21827471.217    21827471.421      569122.809 9  -1766874.670 8
  21189814.917    21189815.112   -12999673.643 9 -12034265.736 7
  20294512.289    20294513.491   -25206063.159 8 -12860785.067 8
 89 11 20 12 45 29.0800000  0  4G13G 6G11G 9
  20790222.868    20790225.140   -46687892.099 9  22754646.813 8
  21843480.210    21843479.385      653245.123 9  -1701324.851 9
  21199364.815    21199365.814   -12949486.785 9 -11995159.088 9
  20295740.465    20295740.010   -25199611.643 8 -12855757.920 7
 89 11 20 12 45 59.0800000  0  4G13G 6G11G 9
  20783099.045    20783102.015   -46725321.361 8  22725481.157 8
  21859572.785    21859575.405      737820.601 9  -1635421.899 8
  21208973.950    21208975.906   -12898991.086 8 -11955811.822 8
  20297085.099    20297085.160   -25192542.558 8 -12850249.548 9
 89 11 20 12 46 29.0800000  0  4G13G 6G11G 9
  20776065.247    20776069.114   -46762280.544 9  22696681.833 8
  21875754.039    21875754.637      822847.881 9  -1569166.897 9
  21218640.752    21218643.853   -12848188.151 9 -11916225.120 9
  20298548.721    20298548.337   -25184854.918 9 -12844259.183 8
 89 11 20 12 46 59.0800000  0  4G13G 6G11G 9
  20769123.626    20769125.130   -46798769.690 9  22668248.741 7
  21892019.690    21892020.166      908325.263 9  -1502561.190 9
  21228365.967    21228367.322   -12797080.596 8 -11876401.053 9
  20300129.996    20300129.667   -25176547.690 8 -12837786.017 8
 89 11 20 12 47 29.0800000  0  4G13G 6G11G 9
  20762270.771    20762270.477   -46834789.928 9  22640181.054 9
  21908370.215    21908372.157      994250.508 9  -1435606.463 9
  21238149.158    21238151.190   -12745670.888 9 -11836341.520 7
  20301827.786    20301826.905   -25167620.819 8 -12830830.028 8
 89 11 20 12 47 59.0800000  0  4G13G 6G11G 9
  20755505.831    20755506.302   -46870341.455 9  22612478.602 8
  21924807.369    21924807.308     1080621.402 9  -1368304.487 9
  21247988.072    21247991.089   -12693961.748 9 -11796048.707 8
  20303644.382    20303644.635   -25158073.869 8 -12823390.832 8
 89 11 20 12 48 29.0800000  0  4G13G 6G11G 9
  20748830.550    20748831.617   -46905425.235 9  22585140.606 8
  21941327.988    21941327.211     1167436.203 9  -1300656.618 9
  21257884.595    21257887.253   -12641955.607 9 -11755524.442 9
  20305579.627    20305578.920   -25147906.486 8 -12815468.230 8
 89 11 20 12 48 59.0800000  0  4G13G 6G11G 9
  20742241.735    20742241.846   -46940040.204 9  22558167.942 8
  21957931.243    21957931.697     1254693.910 9  -1232663.649 8
  21267838.383    21267840.384   -12589653.553 9 -11714769.605 8
  20307632.896    20307633.295   -25137116.706 8 -12807060.637 8
 89 11 20 12 49 29.0800000  0  4G13G 6G11G 9
  20735743.847    20735744.013   -46974186.516 9  22531560.449 8
  21974620.746    21974621.365     1342393.097 9  -1164326.646 9
  21277847.661    21277848.158   -12537057.757 9 -11673785.857 8
  20309805.076    20309804.842   -25125703.682 9 -12798167.372 8
 89 11 20 12 49 59.0800000  0  4G13G 6G11G 9
  20729334.440    20729336.557   -47007866.209 9  22505316.547 9
  21991391.347    21991393.660     1430530.214 9  -1095648.416 9
  21287910.685    21287911.483   -12484172.045 9 -11632576.225 8
  20312093.997    20312094.989   -25113668.482 9 -12788789.294 8
 89 11 20 12 50 29.0800000  0  4G13G 6G11G 9
  20723014.723    20723016.817   -47041080.610 8  22479435.197 8
  22008245.828    22008247.735     1519103.119 9  -1026630.588 9
  21298029.888    21298029.985   -12430998.615 9 -11591142.379 9
  20314502.944    20314504.273   -25101010.644 8 -12778926.046 8
 89 11 20 12 50 59.0800000  0  4G13G 6G11G 9
  20716782.528    20716782.626   -47073829.157 9  22453916.873 8
  22025184.311    22025185.902     1608110.539 9   -957274.176 9
  21308202.264    21308203.462   -12377539.115 9 -11549485.633 8
  20317029.878    20317029.833   -25087729.312 8 -12768576.958 8
 89 11 20 12 51 29.0800000  0  4G13G 6G11G 9
  20710641.378    20710639.855   -47106110.679 9  22428762.452 8
  22042205.179    22042205.076     1697551.707 9   -887579.786 9
  21318429.357    21318430.983   -12323794.859 9 -11507607.003 8
  20319676.478    20319675.611   -25073822.687 8 -12757740.617 8
 89 11 20 12 51 59.0800000  0  4G13G 6G11G 9
  20704586.507    20704585.451   -47137926.515 9  22403970.936 8
  22059306.680    22059307.047     1787424.326 9   -817549.198 8
  21328711.626    21328711.896   -12269768.608 9 -11465508.623 7
  20322442.462    20322443.149   -25059290.666 8 -12746416.984 8
 89 11 20 12 52 29.0800000  0  4G13G 6G11G 9
  20698622.318    20698620.556   -47169277.437 8  22379541.667 8
  22076491.131    22076491.599     1877726.002 9   -747184.294 9
  21339044.751    21339045.492   -12215463.081 9 -11423192.626 8
  20325325.877    20325327.887   -25044133.371 8 -12734606.108 8
 89 11 20 12 52 59.0800000  0  4G13G 6G11G 9
  20692744.898    20692744.003   -47200163.759 9  22355474.414 8
  22093756.881    22093756.670     1968454.713 9   -676486.629 9
  21349431.562    21349432.204   -12160880.759 9 -11380660.946 9
  20328329.641    20328330.512   -25028350.199 9 -12722307.535 9
 89 11 20 12 53 29.0800000  0  4G13G 6G11G 9
  20686955.315    20686955.004   -47230586.593 8  22331768.323 8
  22111101.522    22111103.280     2059607.923 9   -605458.175 9
  21359870.746    21359871.416   -12106024.132 9 -11337915.521 8
  20331451.901    20331454.503   -25011941.420 8 -12709521.474 8
 89 11 20 12 53 59.0800000  0  4G13G 6G11G 9
  20681253.298    20681251.420   -47260546.343 9  22308423.084 9
  22128529.087    22128529.534     2151184.086 9   -534100.158 9
  21370361.474    21370362.041   -12050895.283 9 -11294957.988 8
  20334694.764    20334694.837   -24994906.352 7 -12696247.409 8
 89 11 20 12 54 29.0800000  0  4G13G 6G11G 9
  20675640.232    20675639.285   -47290042.351 8  22285439.199 8
  22146034.629    22146036.308     2243182.061 9   -462413.440 9
  21380903.714    21380904.696   -11995495.377 9 -11251789.240 9
  20338054.832    20338055.446   -24977243.664 9 -12682484.275 8
 89 11 20 12 54 59.0800000  0  4G13G 6G11G 9
  20670112.941    20670114.998   -47319075.827 8  22262815.708 8
  22163621.762    22163622.059     2335599.261 9   -390400.055 9
  21391496.721    21391498.364   -11939827.133 9 -11208411.381 8
  20341536.163    20341535.609   -24958953.583 8 -12668232.262 9
 89 11 20 12 55 29.0800000  0  4G13G 6G11G 9
  20664676.165    20664678.459   -47347647.975 9  22240551.707 8
  22181287.317    22181288.429     2428433.317 9   -318061.873 9
  21402141.213    21402141.426   -11883893.176 9 -11164826.486 8
  20345134.536    20345137.716   -24940036.120 8 -12653491.389 8
 89 11 20 12 55 59.0800000  0  4G13G 6G11G 9
  20659327.705    20659327.699   -47375759.822 8  22218646.379 8
  22199031.179    22199032.691     2521681.654 9   -245400.877 9
  21412833.843    21412835.086   -11827696.407 9 -11121036.807 8
  20348854.983    20348856.925   -24920491.432 7 -12638261.766 8
 89 11 20 12 56 29.0800000  0  4G13G 6G11G 9
  20654065.255    20654065.764   -47403410.306 9  22197100.583 8
  22216855.072    22216855.948     2615343.806 9   -172417.392 9
  21423577.240    21423579.313   -11771237.413 9 -11077042.802 8
  20352694.240    20352693.895   -24900317.743 7 -12622542.012 8
 89 11 20 12 56 59.0800000  0  4G13G 6G11G 9
  20648891.442    20648891.642   -47430600.864 9  22175913.149 8
  22234756.500    22234756.989     2709416.751 9    -99113.817 9
  21434370.978    21434372.834   -11714519.566 9 -11032847.097 8
  20356652.817    20356651.973   -24879516.225 8 -12606333.058 8
 89 11 20 12 57 29.0800000  0  4G13G 6G11G 9
  20643801.578    20643803.933   -47457333.453 9  22155082.593 8
  22252735.806    22252735.815     2803897.444 9    -25492.498 9
  21445213.826    21445215.423   -11657545.742 9 -10988451.905 8
  20360729.969    20360729.750   -24858087.061 8 -12589635.016 9
 89 11 20 12 57 59.0800000  0  4G13G 6G11G 9
  20638802.519    20638805.230   -47483608.140 9  22134608.822 8
  22270793.002    22270792.476     2898784.466 9     48445.405 9
  21456102.976    21456104.847   -11600317.827 9 -10943858.723 8
  20364927.258    20364928.322   -24836029.730 7 -12572447.483 8
 89 11 20 12 58 29.0800000  0  4G13G 6G11G 9
  20633889.844    20633892.140   -47509424.546 9  22114492.156 8
  22288925.209    22288927.587     2994076.033 9    122698.542 9
  21467041.637    21467042.408   -11542837.373 9 -10899068.776 8
  20369245.262    20369245.336   -24813343.642 8 -12554770.023 8
 89 11 20 12 58 59.0800000  0  4G13G 6G11G 9
  20629064.732    20629066.527   -47534783.484 9  22094731.969 8
  22307134.621    22307136.677     3089770.346 9    197265.496 8
  21478026.604    21478029.335   -11485106.472 9 -10854083.656 7
  20373681.036    20373682.261   -24790028.290 8 -12536602.220 8
 89 11 20 12 59 29.0800000  0  4G13G 6G11G 9
  20624326.691    20624327.850   -47559686.067 8  22075327.383 7
  22325422.060    22325423.414     3185864.808 9    272144.279 9
  21489060.105    21489061.506   -11427127.881 9 -10808905.549 8
  20378237.233    20378238.959   -24766084.187 8 -12517944.479 8
 89 11 20 12 59 59.0800000  0  4G13G 6G11G 9
  20619674.563    20619676.177   -47584132.875 8  22056277.957 9
  22343783.943    22343784.054     3282357.407 9    347333.313 9
  21500139.941    21500142.142   -11368903.729 9 -10763536.081 8
  20382913.575    20382915.317   -24741511.070 9 -12498796.593 8
 89 11 20 13  0 29.0800000  0  4G13G 6G11G 9
  20615108.660    20615110.651   -47608125.558 9  22037582.356 8
  22362221.794    22362222.334     3379245.245 9    422830.304 9
  21511266.711    21511266.978   -11310436.890 9 -10717977.522 8
  20387708.354    20387708.685   -24716309.697 7 -12479159.169 8
 89 11 20 13  0 59.0800000  0  4G13G 6G11G 9
  20610629.398    20610631.428   -47631664.638 9  22019240.239 8
  22380733.658    22380733.762     3476526.206 9    498633.630 9
  21522437.352    21522439.109   -11251729.611 9 -10672231.586 8
  20392623.899    20392624.429   -24690480.253 8 -12459032.329 8
 89 11 20 13  1 29.0800000  0  4G13G 6G11G 9
  20606235.414    20606237.483   -47654750.163 9  22001251.527 8
  22399319.696    22399320.915     3574198.773 9    574742.090 8
  21533653.440    21533655.497   -11192782.883 9 -10626299.075 7
  20397659.860    20397659.777   -24664021.609 8 -12438415.228 8
 89 11 20 13  1 59.0800000  0  4G13G 6G11G 9
  20601928.005    20601929.761   -47677383.401 9  21983615.246 8
  22417980.812    22417982.261     3672260.255 9    651153.613 9
  21544916.834    21544917.503   -11133599.872 9 -10580182.465 8
  20402814.574    20402814.881   -24636934.436 8 -12417308.356 9
 89 11 20 13  2 29.0800000  0  4G13G 6G11G 9
  20597706.685    20597710.005   -47699564.231 9  21966331.492 8
  22436714.750    22436715.932     3770709.731 9    727867.465 9
  21556224.271    21556225.069   -11074181.564 9 -10533882.493 8
  20408088.658    20408089.164   -24609217.593 8 -12395710.828 8
 89 11 20 13  2 59.0800000  0  4G13G 6G11G 9
  20593572.416    20593574.601   -47721294.614 9  21949398.730 7
  22455521.139    22455523.253     3869543.515 9    804880.750 9
  21567574.207    21567575.435   -11014531.506 9 -10487401.931 8
  20413480.507    20413483.790   -24580872.845 8 -12373624.018 8
 89 11 20 13  3 29.0800000  0  4G13G 6G11G 9
  20589523.243    20589524.486   -47742575.758 9  21932816.055 8
  22474400.664    22474403.122     3968758.992 9    882191.501 8
  21578968.845    21578970.689   -10954652.127 9 -10440742.693 7
  20418995.113    20418995.553   -24551900.611 8 -12351048.229 8
 89 11 20 13  3 59.0800000  0  4G13G 6G11G 9
  20585559.426    20585561.368   -47763406.883 8  21916584.025 8
  22493353.432    22493355.846     4068355.777 9    959799.371 9
  21590406.983    21590408.525   -10894543.670 9 -10393904.945 8
  20424627.799    20424630.346   -24522299.043 8 -12327982.081 9
 89 11 20 13  4 29.0800000  0  4G13G 6G 3G 9
  20581680.632    20581681.335   -47783789.773 9  21900701.261 8
  22512378.957    22512379.944     4168330.395 9   1037701.666 9
                  23953556.062   -74433281.338 9
  20430380.817    20430379.981   -24492069.455 8 -12304426.572 8
 89 11 20 13  4 59.0800000  0  4G13G 6G 3G 9
  20577885.939    20577888.544   -47803725.991 9  21885166.562 8
  22531473.265    22531477.055     4268680.077 9   1115896.179 9
  23937265.235    23937266.402   -74519061.018 9  94477976.961 9
  20436255.070    20436251.899   -24461212.755 7 -12280382.402 8
 89 11 20 13  5 29.0800000  0  4G13G 6G 3G 9
  20574177.260    20574179.166   -47823216.690 9  21869979.023 8
  22550641.678    22550642.650     4369402.434 9   1194381.127 9
  23920986.984    23920988.622   -74604600.003 9  94411323.262 9
  20442243.850    20442245.245   -24429729.269 8 -12255849.861 8
 89 11 20 13  5 59.0800000  0  4G13G 6G 3G 9
  20570554.604    20570554.571   -47842261.435 9  21855138.980 8
  22569877.737    22569879.026     4470496.159 9   1273155.441 9
  23904755.219    23904755.788   -74689896.497 9  94344858.430 8
  20448355.032    20448355.496   -24397618.300 8 -12230828.328 8
 89 11 20 13  6 29.0800000  0  4G13G 6G 3G 9
  20567014.745    20567015.618   -47860861.700 9  21840645.260 8
  22589185.666    22589187.927     4571958.347 9   1352216.856 9
  23888569.284    23888571.670   -74774950.156 8  94278582.858 9
  20454583.548    20454583.685   -24364880.524 8 -12205318.359 8
 89 11 20 13  6 59.0800000  0  4G13G 6G 3G 9
  20563559.266    20563559.160   -47879018.909 9  21826496.786 8
  22608564.119    22608565.383     4673786.039 9   1431563.075 9
  23872431.778    23872433.109   -74859761.049 9  94212496.468 9
  20460932.681    20460933.302   -24331517.175 8 -12179320.934 8
 89 11 20 13  7 29.0800000  0  4G13G 6G 3G 9
  20560187.551    20560189.145   -47896732.985 9  21812693.619 8
  22628010.395    22628011.009     4775978.199 9   1511193.290 8
  23856339.624    23856339.753   -74944326.838 9  94146601.048 8
  20467401.676    20467401.711   -24297527.253 7 -12152835.284 8
 89 11 20 13  7 59.0800000  0  4G13G 6G 3G 9
  20556901.281    20556902.527   -47914005.077 9  21799234.869 8
  22647525.870    22647528.202     4878532.573 9   1591105.754 9
  23840293.639    23840294.660   -75028646.606 9  94080897.359 8
  20473989.211    20473988.744   -24262910.979 8 -12125861.585 8
 89 11 20 13  8 29.0800000  0  4G13G 6G 3G 9
  20553697.506    20553699.354   -47930837.686 9  21786118.566 7
  22667110.631    22667111.190     4981444.945 9   1671297.216 9
  23824293.866    23824294.678   -75112721.437 9  94015384.484 8
  20480694.653    20480695.259   -24227670.572 9 -12098401.537 8
 89 11 20 13  8 59.0800000  0  4G13G 6G 3G 9
  20550578.549    20550580.303   -47947230.413 8  21773345.019 7
  22686761.236    22686761.544     5084714.062 9   1751766.654 9
  23808342.943    23808343.048   -75196549.076 9  93950064.286 9
  20487519.106    20487519.684   -24191805.446 9 -12070454.698 8
 89 11 20 13  9 29.0800000  0  4G13G 6G 3G 9
  20547542.639    20547545.037   -47963184.654 9  21760913.151 8
  22706479.687    22706479.552     5188337.565 9   1832512.191 9
  23792439.090    23792439.092   -75280129.191 9  93884936.891 8
  20494462.627    20494462.561   -24155316.059 8 -12042021.408 8
 89 11 20 13  9 59.0800000  0  4G13G 6G 3G 9
  20544588.536    20544591.283   -47978702.627 8  21748821.265 8
  22726264.859    22726266.166     5292312.057 9   1913531.232 9
  23776579.767    23776582.447   -75363461.868 9  93820002.329 9
  20501525.625    20501525.632   -24118203.993 8 -12013102.919 8
 89 11 20 13 10 29.0800000  0  4G13G 6G 3G 9
  20541719.664    20541721.049   -47993784.284 8  21737069.326 9
  22746117.858    22746119.674     5396635.931 9   1994822.539 9
  23760769.796    23760771.325   -75446545.335 9  93755261.989 8
  20508704.473    20508707.126   -24080469.011 8 -11983699.047 8
 89 11 20 13 10 59.0800000  0  4G13G 6G 3G 9
  20538933.127    20538933.507   -48008429.121 9  21725657.779 8
  22766036.945    22766037.125     5501307.948 9   2076385.109 9
  23745007.301    23745009.133   -75529377.780 9  93690717.219 9
  20516003.790    20516005.440   -24042110.371 7 -11953809.210 9
 89 11 20 13 11 29.0800000  0  4G13G 6G 3G 9
  20536228.295    20536230.504   -48022639.824 9  21714584.508 8
  22786019.753    22786021.821     5606324.208 9   2158215.939 9
  23729292.049    23729294.051   -75611960.142 9  93626367.341 8
  20523422.647    20523422.951   -24003130.125 7 -11923435.004 8
 89 11 20 13 11 59.0800000  0  4G13G 6G 3G 9
  20533606.497    20533608.831   -48036417.726 9  21703848.491 9
  22806068.426    22806070.106     5711682.460 9   2240313.272 9
  23713626.548    23713626.389   -75694291.299 9  93562213.197 8
  20530958.308    20530958.516   -23963528.516 8 -11892576.617 8
 89 11 20 13 12 29.0800000  0  4G13G 6G 3G 9
  20531066.922    20531068.240   -48049762.667 8  21693449.852 8
  22826182.913    22826183.715     5817381.120 9   2322675.819 9
  23698007.247    23698006.983   -75776369.697 9  93498256.025 9
  20538613.781    20538613.644   -23923305.610 7 -11861234.098 8
 89 11 20 13 12 59.0800000  0  4G13G 6G 3G 9
  20528609.668    20528610.735   -48062677.520 9  21683386.334 9
  22846361.256    22846362.242     5923416.220 9   2405300.515 9
  23682435.443    23682438.066   -75858196.168 9  93434495.108 8
  20546386.045    20546386.509   -23882463.518 8 -11829409.092 9
 89 11 20 13 13 29.0800000  0  4G13G 6G 3G 9
  20526233.994    20526234.589   -48075163.607 9  21673656.936 9
  22866601.693    22866603.696     6029784.719 8   2488185.014 9
  23666913.615    23666914.560   -75939770.490 9  93370930.728 9
  20554275.687    20554274.220   -23841003.449 9 -11797102.529 8
 89 11 20 13 13 59.0800000  0  4G13G 6G 3G 9
  20523939.120    20523941.388   -48087220.701 9  21664261.809 7
  22886905.706    22886907.938     6136485.764 9   2571328.636 8
  23651438.845    23651438.919   -76021090.318 9  93307564.622 8
  20562281.978    20562283.302   -23798924.443 8 -11764313.730 8
 89 11 20 13 14 29.0800000  0  4G13G 6G 3G 9
  20521727.488    20521727.359   -48098848.566 9  21655201.150 7
  22907275.405    22907276.233     6243517.992 9   2654730.352 8
  23636012.984    23636012.522   -76102153.861 9  93244398.223 9
  20570407.324    20570407.458   -23756226.307 7 -11731042.484 8
 89 11 20 13 14 59.0800000  0  4G13G 6G 3G 9
  20519594.560    20519596.128   -48110051.171 9  21646471.873 8
  22927705.467    22927704.786     6350876.764 9   2738386.546 9
  23620635.087    23620634.708   -76182962.860 9  93181430.188 9
  20578650.559    20578650.352   -23712911.759 8 -11697290.916 8
 89 11 20 13 15 29.0800000  0  4G13G 6G 3G 9
  20517543.854    20517545.316   -48120829.643 9  21638073.072 8
  22948195.542    22948197.616     6458559.197 9   2822294.878 9
  23605306.113    23605306.861   -76263516.868 9  93118660.817 8
  20587009.458    20587010.640   -23668982.129 8 -11663060.054 9
 89 11 20 13 15 59.0800000  0  4G13G 6G 3G 9
  20515572.582    20515574.638   -48131184.477 8  21630004.370 7
  22968748.297    22968749.014     6566563.090 9   2906453.735 9
  23590025.506    23590026.937   -76343814.423 9  93056091.287 9
  20595485.506    20595486.944   -23624437.992 9 -11628350.342 8
 89 11 20 13 16 29.0800000  0  4G13G 6G 3G 9
  20513683.746    20513685.125   -48141114.767 9  21622266.510 9
  22989362.263    22989362.898     6674888.268 9   2990862.914 9
  23574795.329    23574796.299   -76423853.208 9  92993723.430 9
  20604080.693    20604079.841   -23579277.744 8 -11593160.556 8
 89 11 20 13 16 59.0800000  0  4G13G 6G 3G 9
  20511873.891    20511874.516   -48150624.358 8  21614856.450 7
  23010034.187    23010036.432     6783529.792 9   3075518.578 9
  23559613.146    23559613.584   -76503634.865 9  92931555.885 9
  20612791.812    20612791.190   -23533504.614 9 -11557493.188 8
 89 11 20 13 17 29.0800000  0  4G13G 6G 3G 9
  20510144.719    20510144.900   -48159714.673 8  21607773.108 8
  23030768.456    23030771.038     6892484.721 9   3160418.453 9
  23544480.127    23544480.534   -76583158.868 9  92869589.150 9
  20621618.335    20621616.122   -23487120.088 9 -11521349.425 8
 89 11 20 13 17 59.0800000  0  4G13G 6G 3G 9
  20508494.560    20508494.640   -48168385.449 9  21601016.666 8
  23051562.900    23051562.026     7001751.744 9   3245561.534 9
  23529396.292    23529396.528   -76662423.792 9  92807824.287 9
  20630561.505    20630558.852   -23440123.603 9 -11484728.796 8
 89 11 20 13 18 29.0800000  0  4G13G 6G 3G 9
  20506924.110    20506924.613   -48176638.595 9  21594585.645 7
  23072414.476    23072415.283     7111328.165 9   3330945.744 9
  23514362.342    23514362.890   -76741428.818 9  92746261.905 9
  20639620.883    20639619.201   -23392516.533 9 -11447632.400 8
 89 11 20 13 18 59.0800000  0  4G13G 6G 3G 9
  20505431.978    20505433.255   -48184475.470 9  21588478.999 7
  23093324.342    23093324.298     7221211.044 9   3416568.757 8
  23499376.955    23499379.396   -76820173.755 9  92684902.240 9
  20648797.294    20648794.426   -23344300.115 9 -11410061.174 8
 89 11 20 13 19 29.0800000  0  4G13G 6G 3G 9
  20504020.062    20504020.830   -48191896.973 9  21582696.022 8
  23114291.450    23114293.172     7331398.437 9   3502429.072 8
  23484442.788    23484444.136   -76898657.501 9  92623746.054 9
  20658087.003    20658085.035   -23295474.792 8 -11372015.505 7
 89 11 20 13 19 59.0800000  0  4G13G 6G 3G 9
  20502686.052    20502688.218   -48198903.873 9  21577236.092 8
  23135316.638    23135318.197     7441888.020 9   3588524.800 9
  23469556.975    23469558.623   -76976879.151 9  92562794.160 9
  20667492.821    20667492.330   -23246041.187 8 -11333495.828 8
 89 11 20 13 20 29.0800000  0  4G13G 6G 3G 9
  20501431.085    20501433.464   -48205498.423 8  21572097.482 8
  23156398.127    23156401.231     7552676.270 9   3674853.238 9
  23454722.715    23454722.428   -77054839.227 9  92502046.029 9
  20677015.200    20677015.320   -23196001.523 9 -11294503.886 8
 89 11 20 13 20 59.0800000  0  4G13G 6G 3G 9
  20500254.481    20500257.477   -48211683.148 8  21567278.234 7
  23177537.846    23177539.214     7663759.168 8   3761411.257 9
  23439936.715    23439937.553   -77132538.452 9  92441501.207 9
  20686651.553    20686651.673   -23145358.058 9 -11255041.444 8
 89 11 20 13 21 29.0800000  0  4G13G 6G 3G 9
  20499156.521    20499156.182   -48217457.964 9  21562778.388 8
  23198731.397    23198733.172     7775135.617 9   3848198.068 9
  23425200.242    23425201.432   -77209975.018 9  92381161.010 9
  20696403.421    20696404.156   -23094110.646 8 -11215108.384 7
 89 11 20 13 21 59.0800000  0  4G13G 6G 3G 9
  20498133.622    20498136.753   -48222823.659 9  21558597.331 8
  23219982.214    23219983.307     7886803.276 9   3935211.805 9
  23410513.917    23410516.702   -77287147.667 8  92321026.511 9
  20706271.310    20706270.001   -23042259.861 9 -11174705.198 8
 89 11 20 13 22 29.0800000  0  4G13G 6G 3G 9
  20497191.740    20497192.111   -48227782.227 8  21554733.510 8
  23241286.590    23241286.783     7998759.816 9   4022450.632 9
  23395880.116    23395881.161   -77364055.962 9  92261097.942 8
  20716253.329    20716254.437   -22989807.028 9 -11133832.883 8
 89 11 20 13 22 59.0800000  0  4G13G 6G 3G 9
  20496324.239    20496326.494   -48232334.756 9  21551186.096 9
  23262644.924    23262647.064     8111002.033 9   4109912.050 9
  23381294.886    23381296.273   -77440699.734 9  92201375.567 9
  20726347.832    20726349.057   -22936753.758 9 -11092492.683 9
 89 11 20 13 23 29.0800000  0  4G13G 6G 3G 9
  20495534.372    20495536.747   -48236482.932 8  21547953.761 8
  23284057.622    23284059.237     8223527.069 9   4197593.891 9
  23366761.107    23366762.610   -77517078.889 9  92141859.362 9
  20736558.213    20736557.372   -22883101.348 9 -11050685.616 8
 89 11 20 13 23 59.0800000  0  4G13G 6G 3G 9
  20494823.275    20494825.406   -48240228.280 9  21545035.306 8
  23305523.082    23305525.099     8336332.420 8   4285494.135 8
  23352277.059    23352277.730   -77593192.506 9  92082550.036 8
  20746880.675    20746880.911   -22828850.855 9 -11008412.539 8
 89 11 20 13 24 29.0800000  0  4G13G 6G 3G 9
  20494187.158    20494187.524   -48243570.905 9  21542430.667 8
  23327043.449    23327044.508     8449416.273 8   4373611.371 9
  23337842.443    23337844.490   -77669039.638 9  92023448.369 9
  20757318.757    20757321.608   -22774003.093 8 -10965674.030 9
 89 11 20 13 24 59.0800000  0  4G13G 6G 3G 9
  20493627.824    20493628.149   -48246514.055 9  21540137.317 8
  23348613.196    23348615.856     8562774.066 8   4461942.061 9
  23323461.897    23323462.456   -77744621.757 9  91964553.207 9
  20767868.635    20767868.056   -22718560.912 9 -10922472.339 9
 89 11 20 13 25 29.0800000  0  4G13G 6G 3G 9
  20493142.738    20493144.187   -48249058.504 9  21538154.636 8
  23370236.644    23370239.856     8676403.828 9   4550484.695 9
  23309129.449    23309129.858   -77819937.456 9  91905865.661 9
  20778533.775    20778531.579   -22662525.079 9 -10878808.080 8
 89 11 20 13 25 59.0800000  0  4G13G 6G 3G 9
  20492733.858    20492735.828   -48251205.167 8  21536481.920 8
  23391912.258    23391914.268     8790303.356 9   4639237.489 9
  23294847.264    23294848.773   -77894985.826 9  91847386.421 9
  20789309.854    20789309.660   -22605896.350 9 -10834681.819 8
 89 11 20 13 26 29.0800000  0  4G13G 6G 3G 9
  20492401.862    20492402.007   -48252956.332 9  21535117.382 8
  23413637.425    23413638.604     8904469.312 9   4728197.980 9
  23280616.431    23280617.984   -77969767.142 9  91789115.255 9
  20800196.413    20800198.752   -22548676.991 9 -10790095.318 8
 89 11 20 13 26 59.0800000  0  4G13G 6G 3G 9
  20492143.169    20492143.596   -48254313.205 9  21534060.101 7
  23435412.774    23435414.425     9018899.064 9   4817363.946 9
  23266437.359    23266437.612   -78044280.991 9  91731052.524 9
  20811195.944    20811197.425   -22490868.122 9 -10745049.441 8
 89 11 20 13 27 29.0800000  0  4G13G 6G 3G 9
  20491959.322    20491960.715   -48255275.993 9  21533309.874 7
  23457235.698    23457238.776     9133591.793 7   4906734.869 9
  23252310.279    23252310.011   -78118525.144 9  91673199.922 9
  20822308.504    20822310.828   -22432469.610 8 -10699544.130 8
 89 11 20 13 27 59.0800000  0  4G13G 6G 3G 9
  20491851.224    20491851.288   -48255847.815 9  21532864.303 8
  23479112.571    23479113.967     9248542.698 9   4996306.939 8
  23238232.820    23238232.399   -78192501.242 9  91615556.223 9
  20833535.793    20833536.158   -22373484.834 9 -10653581.988 8
 89 11 20 13 28 29.0800000  0  4G13G 6G 3G 9
  20491815.932    20491817.416   -48256030.328 9  21532722.105 7
  23501034.819    23501037.086     9363748.671 9   5086077.791 9
  23224206.658    23224206.566   -78266209.146 9  91558121.505 9
  20844871.750    20844872.642   -22313915.495 9 -10607164.328 8
 89 11 20 13 28 59.0800000  0  4G13G 6G 3G 9
  20491856.068    20491855.396   -48255823.054 9  21532883.633 8
  23523007.685    23523008.550     9479208.816 9   5176046.668 9
  23210231.366    23210233.252   -78339646.848 9  91500897.333 8
  20856318.114    20856316.360   -22253761.450 9 -10560291.057 8
 89 11 20 13 29 29.0800000  0  4G13G 6G 3G 9
  20491968.643    20491969.218   -48255228.895 9  21533346.624 7
  23545026.560    23545026.869     9594918.924 9   5266210.354 9
  23196307.034    23196308.229   -78412815.399 9  91443882.874 9
  20867874.386    20867875.152   -22193025.788 9 -10512964.580 9
 89 11 20 13 29 59.0800000  0  4G13G 6G 3G 9
  20492154.909    20492155.780   -48254250.052 9  21534109.348 8
  23567091.885    23567093.158     9710875.751 9   5356566.304 9
  23182436.137    23182437.013   -78485714.864 9  91387078.085 9
  20879541.756    20879545.440   -22131710.352 9 -10465186.339 9
 89 11 20 13 30 29.0800000  0  4G13G 6G 3G 9
  20492414.193    20492415.750   -48252885.977 9  21535172.268 8
  23589203.764    23589205.947     9827078.886 9   5447114.128 8
  23168614.743    23168617.371   -78558342.782 8  91330484.903 9
  20891321.413    20891321.619   -22069814.844 9 -10416956.076 8
 89 11 20 13 30 59.0800000  0  4G13G 6G 3G 9
  20492747.392    20492748.191   -48251138.108 9  21536534.243 8
  23611362.270    23611364.773     9943525.168 8   5537851.410 9
  23154845.595    23154848.413   -78630699.187 9  91274103.272 8
  20903211.417    20903209.408   -22007340.925 9 -10368275.128 7
 89 11 20 13 31 29.0800000  0  4G13G 6G 3G 9
  20493151.158    20493153.399   -48249008.625 8  21538193.574 8
  23633567.904    23633569.434    10060211.223 8   5628775.540 9
  23141128.798    23141129.376   -78702784.481 9  91217932.933 9
  20915208.901    20915208.206   -21944290.839 9 -10319145.229 9
 89 11 20 13 31 59.0800000  0  4G13G 6G 3G 9
  20493628.995    20493630.429   -48246500.320 9  21540148.096 8
  23655817.703    23655819.024    10177133.512 9   5719883.760 9
  23127464.245    23127463.501   -78774598.697 9  91161973.833 9
  20927315.348    20927315.927   -21880667.360 9 -10269568.511 8
 89 11 20 13 32 29.0800000  0  4G13G 6G 3G 9
  20494178.090    20494179.504   -48243614.710 8  21542396.631 8
  23678112.066    23678113.682    10294289.052 9   5811173.787 9
  23113848.198    23113850.051   -78846141.847 8  91106225.907 9
  20939530.760    20939532.396   -21816471.933 9 -10219546.119 9
 89 11 20 13 32 59.0800000  0  4G13G 6G 3G 9
  20494798.591    20494800.619   -48240352.826 9  21544938.365 8
  23700449.079    23700451.276    10411675.364 9   5902643.578 9
  23100287.782    23100285.722   -78917413.962 9  91050689.216 9
  20951855.921    20951855.872   -21751706.332 8 -10169079.428 8
 89 11 20 13 33 29.0800000  0  4G13G 6G 3G 9
  20495490.687    20495493.734   -48236714.454 9  21547773.463 7
  23722830.872    23722834.041    10529291.530 9   5994292.500 8
  23086775.128    23086777.472   -78988412.516 8  90995365.692 9
  20964288.521    20964289.272   -21686370.293 9 -10118168.273 8
 89 11 20 13 33 59.0800000  0  4G13G 6G 3G 9
  20496255.010    20496257.059   -48232702.135 9  21550899.943 8
  23745255.959    23745258.671    10647134.129 9   6086117.822 9
  23073314.910    23073317.679   -79059137.870 8  90940254.999 8
  20976828.079    20976831.305   -21620466.407 9 -10066814.607 8
 89 11 20 13 34 29.0800000  0  4G13G 6G 3G 9
  20497090.022    20497090.544   -48228318.852 9  21554315.489 8
  23767722.584    23767724.702    10765198.774 9   6178116.190 9
  23059910.080    23059912.235   -79129591.404 9  90885356.140 9
  20989478.403    20989478.367   -21553997.553 9 -10015020.701 9
 89 11 20 13 34 59.0800000  0  4G13G 6G 3G 9
  20497993.676    20497994.844   -48223565.353 9  21558019.520 7
  23790230.725    23790233.929    10883483.285 8   6270285.822 9
  23046552.451    23046554.183   -79199772.414 8  90830669.649 8
  21002234.847    21002234.638   -21486965.507 9  -9962787.973 9
 89 11 20 13 35 29.0800000  0  4G13G 6G 3G 9
  20498967.475    20498970.222   -48218443.225 8  21562010.803 7
  23812781.643    23812785.149    11001984.874 9   6362624.629 9
  23033252.411    23033253.732   -79269680.407 9  90776195.882 9
  21015097.004    21015096.395   -21419371.871 9  -9910117.609 9
 89 11 20 13 35 59.0800000  0  4G13G 6G 3G 9
  20500012.964    20500013.708   -48212954.257 9  21566287.922 9
  23835373.467    23835374.354    11120700.899 9   6455130.572 9
  23019999.679    23020000.595   -79339315.207 9  90721935.036 9
  21028065.467    21028066.561   -21351218.260 8  -9857010.917 8
 89 11 20 13 36 29.0800000  0  4G13G 6G 3G 9
  20501127.570    20501129.005   -48207098.880 9  21570850.574 8
  23858005.077    23858005.994    11239629.161 9   6547801.923 9
  23006801.491    23006804.152   -79408675.845 9  90667887.733 9
  21041141.978    21041141.642   -21282505.780 9  -9803468.725 8
 89 11 20 13 36 59.0800000  0  4G13G 6G 3G 9
  20502310.861    20502312.362   -48200880.197 9  21575696.293 7
  23880675.875    23880677.541    11358765.766 9   6640635.546 9
  22993656.185    22993654.090   -79477763.729 9  90614053.077 8
  21054324.676    21054323.523   -21213237.829 9  -9749493.738 7
 89 11 20 13 37 29.0800000  0  4G13G 6G 3G 9
  20503563.015    20503563.959   -48194298.772 9  21580824.674 7
  23903387.430    23903387.868    11478108.711 9   6733629.981 9
  22980556.414    22980561.559   -79546577.229 8  90560432.121 9
  21067610.959    21067611.324   -21143415.299 9  -9695086.601 9
 89 11 20 13 37 59.0800000  0  4G13G 6G 3G 9
  20504884.658    20504885.711   -48187356.352 9  21586234.356 7
  23926134.967    23926136.148    11597655.340 8   6826783.155 8
  22967518.634    22967518.458   -79615116.222 8  90507025.139 9
  21081002.057    21081002.377   -21073040.050 9  -9640248.744 9
 89 11 20 13 38 29.0800000  0  4G13G 6G 3G 9
  20506273.044    20506273.681   -48180055.491 9  21591923.353 8
  23948920.589    23948923.270    11717402.221 7   6920092.290 8
  22954529.876    22954529.819   -79683381.421 9  90453831.489 9
  21094497.285    21094498.579   -21002114.639 9  -9584982.217 9
 89 11 20 13 38 59.0800000  0  4G13G 6G 3G 9
  20507730.831    20507732.074   -48172396.635 9  21597891.280 7
  23971746.032    23971747.976    11837347.023 8   7013555.654 9
  22941584.992    22941587.740   -79751371.662 9  90400852.052 8
  21108099.170    21108101.209   -20930640.548 9  -9529288.119 8
 89 11 20 13 39 29.0800000  0  4G13G 6G 3G 9
  20509256.199    20509257.828   -48164380.848 9  21604137.374 9
  23994609.279    23994610.489    11957487.483 9   7107171.526 9
  22928704.690    22928705.158   -79819086.612 9  90348087.138 9
  21121803.727    21121805.063   -20858619.237 9  -9473167.634 8
 89 11 20 13 39 59.0800000  0  4G13G 6G 3G 9
  20510848.351    20510849.757   -48156012.472 9  21610658.182 7
  24017506.633    24017509.066    12077818.255 9   7200935.706 9
  22915870.262    22915869.269   -79886528.584 9  90295535.021 9
  21135611.779    21135612.571   -20786055.137 9  -9416624.213 9
 89 11 20 13 40 29.0800000  0  4G13G 6G 3G 9
  20512507.427    20512509.887   -48147292.088 9  21617453.281 7
  24040440.799    24040442.664    12198337.973 9   7294847.107 8
  22903085.733    22903090.254   -79953695.951 9  90243196.768 9
  21149523.589    21149523.710   -20712948.911 8  -9359658.359 9
 89 11 20 13 40 59.0800000  0  4G13G 6G 3G 9
  20514234.364    20514234.648   -48138219.307 9  21624522.990 7
  24063411.015    24063411.793    12319045.041 9   7388904.494 9
  22890359.723    22890358.785   -80020587.318 9  90191073.655 9
  21163539.225    21163540.335   -20639301.421 9  -9302270.722 9
 89 11 20 13 41 29.0800000  0  4G13G 6G 3G 9
  20516026.598    20516028.368   -48128797.466 9  21631864.695 8
  24086416.110    24086416.397    12439935.399 9   7483104.674 9
  22877682.210    22877684.480   -80087203.991 9  90139164.549 9
  21177657.116    21177656.406   -20565115.885 9  -9244463.837 9
 89 11 20 13 41 59.0800000  0  4G13G 6G 3G 9
  20517886.410    20517886.611   -48119028.132 9  21639477.177 8
  24109455.583    24109457.299    12561006.081 9   7577445.342 9
  22865056.907    22865056.393   -80153545.870 9  90087469.581 9
  21191875.844    21191875.851   -20490394.639 9  -9186239.533 9
 89 11 20 13 42 29.0800000  0  4G13G 6G 3G 9
  20519812.268    20519811.273   -48108913.221 8  21647358.920 7
  24132527.443    24132529.561    12682254.477 9   7671924.500 9
  22852487.799    22852487.076   -80219612.695 9  90035988.952 9
  21206194.423    21206197.320   -20415139.358 9  -9127599.063 9
 89 11 20 13 42 59.0800000  0  4G13G 6G 3G 9
  20521801.578    20521802.595   -48098453.011 8  21655509.719 8
  24155633.469    24155634.871    12803678.723 9   7766540.719 8
  22839964.292    22839965.822   -80285403.087 8  89984723.699 9
  21220617.586    21220618.465   -20339351.339 9  -9068543.466 9
 89 11 20 13 43 29.0800000  0  4G13G 6G 3G 9
  20523857.569    20523859.264   -48087649.834 9  21663927.764 8
  24178772.699    24178775.224    12925275.324 9   7861291.225 9
  22827498.670    22827502.446   -80350918.080 9  89933673.010 9
  21235140.982    21235142.692   -20263033.702 9  -9009075.198 8
 89 11 20 13 43 59.0800000  0  4G13G 6G 3G 9
  20525978.175    20525978.061   -48076506.074 8  21672611.221 7
  24201944.518    24201946.978    13047041.207 8   7956173.619 9
  22815087.126    22815084.995   -80416157.793 9  89882836.899 9
  21249764.575    21249763.137   -20186188.515 8  -8949195.837 9
 89 11 20 13 44 29.0800000  0  4G13G12G 3G 9
  20528162.659    20528163.607   -48065023.703 9  21681558.527 9
                  20646347.010   -88781126.733 9
  22802721.925    22802724.354   -80481122.518 8  89832215.055 9
  21264485.875    21264487.355   -20108818.694 8  -8888907.695 9
 89 11 20 13 44 59.0800000  0  4G13G12G 3G 9
  20530412.465    20530412.636   -48053203.179 8  21690769.314 9
  20641174.960    20641174.901   -88808464.359 9 112743033.307 9
  22790410.121    22790411.638   -80545811.577 8  89781807.949 9
  21279311.012    21279309.529   -20030925.675 9  -8828211.843 8
 89 11 20 13 45 29.0800000  0  4G13G12G 3G 9
  20532726.177    20532726.538   -48041047.245 8  21700241.476 8
  20636082.131    20636085.463   -88835219.370 9 112722185.236 7
  22778156.668    22778156.064   -80610225.904 9  89731615.012 9
  21294231.970    21294231.591   -19952512.622 9  -8767110.815 9
 89 11 20 13 45 59.0800000  0  4G13G12G 3G 9
  20535102.997    20535104.770   -48028556.935 8  21709974.169 7
  20631102.257    20631103.802   -88861389.397 9 112701793.004 9
  22765950.719    22765949.931   -80674364.456 9  89681636.924 7
  21309250.389    21309251.884   -19873580.654 9  -8705605.419 8
 89 11 20 13 46 29.0800000  0  4G13G12G 3G 9
  20537542.600    20537543.832   -48015734.144 8  21719965.950 8
  20626234.969    20626235.727   -88886973.137 9 112681857.619 7
  22753790.624    22753798.222   -80738227.150 9  89631873.768 9
  21324367.705    21324369.894   -19794132.381 8  -8643697.698 9
 89 11 20 13 46 59.0800000  0  4G13G12G 3G 9
  20540045.691    20540046.872   -48002580.074 9  21730215.875 8
  20621477.688    20621479.119   -88911968.735 9 112662380.526 9
  22741699.054    22741698.905   -80801813.960 9  89582325.550 9
  21339587.726    21339587.289   -19714169.755 9  -8581389.181 9
 89 11 20 13 47 29.0800000  0  4G13G12G 3G 9
  20542610.558    20542613.729   -47989096.607 9  21740722.485 8
  20616833.137    20616835.127   -88936374.774 9 112643362.828 9
  22729652.871    22729649.691   -80865125.155 9  89532992.284 8
  21354900.590    21354899.352   -19633695.294 9  -8518681.841 9
 89 11 20 13 47 59.0800000  0  4G13G12G 3G 9
  20545238.699    20545239.888   -47975285.832 9  21751484.129 8
  20612301.801    20612303.289   -88960189.917 9 112624805.576 9
  22717652.194    22717657.005   -80928161.228 8  89483873.227 9
  21370310.222    21370311.145   -19552711.822 9  -8455577.869 9
 89 11 20 13 48 29.0800000  0  4G13G12G 3G 9
  20547929.892    20547930.331   -47961150.715 9  21762498.505 7
  20607882.190    20607883.377   -88983413.738 9 112606709.096 8
  22705708.550    22705708.749   -80990922.791 9  89434968.060 8
  21385817.328    21385818.808   -19471222.665 9  -8392079.836 9
 89 11 20 13 48 59.0800000  0  4G13G12G 3G 9
  20550681.151    20550682.192   -47946691.485 8  21773765.430 8
  20603576.638    20603577.225   -89006043.089 9 112589075.827 9
  22693823.528    22693822.945   -81053409.228 9  89386277.363 9
  21401421.257    21401421.657   -19389228.836 9  -8328188.567 9
 89 11 20 13 49 29.0800000  0  4G13G12G 3G 9
  20553493.709    20553496.355   -47931907.528 8  21785285.386 7
  20599384.244    20599384.200   -89028075.106 9 112571908.004 9
  22681986.693    22681982.551   -81115618.126 9  89337802.937 9
  21417119.347    21417120.420   -19306730.859 9  -8263904.453 9
 89 11 20 13 49 59.0800000  0  4G13G12G 3G 9
  20556368.466    20556369.892   -47916803.608 9  21797054.683 7
  20595304.748    20595305.822   -89049510.403 9 112555205.161 9
  22670192.245    22670197.794   -81177551.727 9  89289542.986 9
  21432914.111    21432914.262   -19223733.327 9  -8199231.062 9
 89 11 20 13 50 29.0800000  0  4G13G12G 3G 9
  20559303.896    20559304.466   -47901381.507 9  21809071.907 7
  20591339.166    20591340.340   -89070348.442 9 112538967.725 9
  22658461.220    22658464.470   -81239210.862 9  89241496.851 9
  21448802.536    21448802.206   -19140239.178 8  -8134170.707 8
 89 11 20 13 50 59.0800000  0  4G13G12G 3G 9
  20562298.433    20562299.024   -47885642.826 9  21821335.828 8
  20587487.761    20587488.475   -89090586.977 9 112523197.444 8
  22646782.125    22646780.716   -81300595.135 9  89193665.003 8
  21464784.242    21464784.091   -19056250.347 8  -8068724.915 8
 89 11 20 13 51 29.0800000  0  4G13G12G 3G 9
  20565354.230    20565354.062   -47869588.496 9  21833845.690 8
  20583750.011    20583752.429   -89110223.764 9 112507896.050 9
  22635152.647    22635155.319   -81361704.062 8  89146047.646 9
  21480860.174    21480861.166   -18971768.761 8  -8002895.124 7
 89 11 20 13 51 59.0800000  0  4G13G12G 3G 9
  20568467.529    20568469.790   -47853219.873 8  21846600.456 7
  20580128.940    20580129.512   -89129257.548 9 112493064.538 9
  22623576.606    22623576.285   -81422537.094 9  89098645.277 8
  21497030.412    21497029.737   -18886796.627 8  -7936683.109 9
 89 11 20 13 52 29.0800000  0  4G13G12G 3G 9
  20571641.588    20571642.643   -47836539.619 9  21859598.053 8
  20576622.240    20576621.726   -89147687.669 9 112478703.383 9
  22612053.520    22612053.967   -81483095.511 9  89051456.918 9
  21513294.023    21513293.078   -18801337.139 9  -7870091.322 9
 89 11 20 13 52 59.0800000  0  4G13G12G 3G 9
  20574875.003    20574876.540   -47819549.175 9  21872837.378 7
  20573230.274    20573231.073   -89165513.030 9 112464813.495 9
  22600582.129    22600582.713   -81543379.501 9  89004482.384 8
  21529647.430    21529647.044   -18715392.865 8  -7803121.787 8
 89 11 20 13 53 29.0800000  0  4G13G12G 3G 9
  20578167.474    20578168.910   -47802250.430 9  21886316.896 7
  20569954.024    20569954.181   -89182732.381 9 112451395.793 8
  22589159.970    22589161.129   -81603388.827 9  88957721.875 8
  21546093.620    21546093.821   -18628966.341 9  -7735776.469 8
 89 11 20 13 53 59.0800000  0  4G13G12G 3G 9
  20581515.854    20581519.783   -47784645.634 8  21900034.910 8
  20566791.804    20566793.422   -89199345.192 9 112438450.739 8
  22577794.212    22577794.568   -81663124.660 9  88911174.462 9
  21562631.496    21562632.505   -18542060.700 9  -7668057.822 9
 89 11 20 13 54 29.0800000  0  4G13G12G 3G 9
  20584925.010    20584926.976   -47766734.623 9  21913991.536 8
  20563745.560    20563747.851   -89215348.731 9 112425980.442 9
  22566479.640    22566481.203   -81722585.450 9  88864841.375 9
  21579260.636    21579260.064   -18454677.010 9  -7599966.670 9
 89 11 20 13 54 59.0800000  0  4G13G12G 3G 9
  20588391.160    20588393.019   -47748519.755 9  21928184.925 7
  20560816.782    20560818.785   -89230741.464 9 112413986.110 9
  22555217.267    22555217.784   -81781771.051 8  88818722.733 9
  21595980.275    21595980.260   -18366817.524 9  -7531504.772 9
 89 11 20 13 55 29.0800000  0  4G13G12G 3G 9
  20591915.080    20591916.902   -47730003.709 9  21942613.016 8
  20558004.465    20558005.884   -89245523.133 9 112402467.923 9
  22544003.012    22544005.302   -81840682.835 9  88772817.461 9
  21612789.032    21612788.165   -18278486.545 9  -7462675.455 9
 89 11 20 13 55 59.0800000  0  4G13G12G 3G 9
  20595495.682    20595497.513   -47711188.728 9  21957274.018 8
  20555308.483    20555309.427   -89259693.312 9 112391426.217 9
  22532845.193    22532849.381   -81899321.473 9  88727124.976 9
  21629684.635    21629687.769   -18189686.668 9  -7393480.780 8
 89 11 20 13 56 29.0800000  0  4G13G12G 3G 9
  20599132.198    20599134.449   -47692075.596 8  21972167.379 7
  20552729.062    20552729.937   -89273249.520 9 112380862.922 8
  22521741.786    22521740.972   -81957686.254 9  88681645.918 9
  21646671.864    21646673.352   -18100419.407 9  -7323921.896 8
 89 11 20 13 56 59.0800000  0  4G13G12G 3G 9
  20602826.008    20602827.874   -47672665.776 9  21987291.902 8
  20550265.690    20550266.521   -89286190.865 9 112370778.761 9
  22510688.211    22510687.489   -82015777.272 9  88636380.234 9
  21663747.477    21663748.675   -18010687.556 9  -7254001.030 9
 89 11 20 13 57 29.0800000  0  4G13G12G 3G 9
  20606576.327    20606577.493   -47652960.676 8  22002646.524 8
  20547920.053    20547921.214   -89298516.117 9 112361174.660 8
  22499685.170    22499686.529   -82073594.544 9  88591327.809 8
  21680912.211    21680913.477   -17920493.713 9  -7183720.114 9
 89 11 20 13 57 59.0800000  0  4G13G12G 3G 9
  20610381.795    20610381.865   -47632962.159 8  22018229.779 8
  20545691.966    20545693.957   -89310223.980 9 112352051.630 9
  22488735.778    22488733.321   -82131137.953 9  88546488.786 9
  21698163.136    21698163.444   -17829840.212 9  -7113081.069 9
 89 11 20 13 58 29.0800000  0  4G13G12G 3G 9
  20614242.644    20614243.394   -47612673.256 9  22034039.309 9
  20543581.917    20543582.774   -89321315.116 9 112343409.175 8
  22477837.603    22477837.042   -82188409.269 9  88501861.808 9
  21715500.753    21715501.767   -17738731.127 9  -7042087.005 9
 89 11 20 13 58 59.0800000  0  4G13G12G 3G 9
  20618159.151    20618159.458   -47592096.259 9  22050073.320 8
  20541589.173    20541590.417   -89331788.622 9 112335247.993 8
  22466990.991    22466990.990   -82245408.698 9  88457446.675 9
  21732924.060    21732924.174   -17647169.249 9  -6970740.101 8
 89 11 20 13 59 29.0800000  0  4G13G12G 3G 9
  20622128.613    20622129.648   -47571230.633 8  22066332.240 7
  20539714.567    20539715.111   -89341641.286 9 112327570.584 9
  22456195.231    22456194.991   -82302134.603 9  88413244.692 9
  21750433.265    21750433.844   -17555155.380 9  -6899041.028 9
 89 11 20 13 59 59.0800000  0  4G13G12G 3G 9
  20626153.686    20626155.635   -47550077.680 9  22082815.049 8
  20537958.154    20537958.626   -89350872.247 9 112320377.606 8
  22445452.370    22445453.584   -82358587.008 9  88369255.795 9
  21768027.631    21768027.838   -17462692.103 9  -6826991.749 8
 89 11 20 14  0 29.0800000  0  4G13G12G 3G 9
  20630233.852    20630234.527   -47528640.703 8  22099519.176 7
  20536319.278    20536321.197   -89359481.834 9 112313668.816 9
  22434761.962    22434762.892   -82414767.467 9  88325478.810 9
  21785708.225    21785709.526   -17369783.304 9  -6754595.315 8
 89 11 20 14  0 59.0800000  0  4G13G12G 3G 9
  20634366.626    20634367.397   -47506922.513 9  22116442.415 7
  20534798.910    20534800.839   -89367470.093 9 112307444.201 9
  22424121.106    22424122.904   -82470677.542 9  88281912.515 9
  21803473.572    21803472.999   -17276432.875 9  -6681854.757 8
 89 11 20 14  1 29.0800000  0  4G13G12G 3G 9
  20638552.227    20638553.243   -47484924.728 9  22133583.548 8
  20533396.934    20533398.881   -89374835.772 8 112301704.687 9
  22413533.804    22413535.623   -82526316.829 9  88238557.231 9
  21821321.548    21821320.604   -17182643.346 9  -6608772.043 9
 89 11 20 14  1 59.0800000  0  4G13G12G 3G 9
  20642790.993    20642793.393   -47462646.814 9  22150942.936 7
  20532114.729    20532115.833   -89381576.291 9 112296452.330 9
  22402998.312    22402998.171   -82581683.564 8  88195414.332 9
  21839253.311    21839252.982   -17088415.296 9  -6535347.630 9
 89 11 20 14  2 29.0800000  0  4G13G12G 3G 9
  20647085.000    20647085.121   -47440091.121 9  22168518.789 8
  20530951.590    20530951.631   -89387691.370 9 112291687.332 8
  22392514.644    22392514.561   -82636778.889 9  88152482.939 9
  21857265.936    21857266.398   -16993751.979 9  -6461584.061 8
 89 11 20 14  2 59.0800000  0  4G13G12G 3G 9
  20651428.917    20651429.535   -47417260.889 9  22186308.560 7
  20529906.230    20529908.033   -89393182.030 9 112287408.880 9
  22382082.959    22382082.567   -82691604.505 9  88109761.687 9
  21875361.188    21875361.566   -16898658.128 9  -6387485.009 9
 89 11 20 14  3 29.0800000  0  4G13G12G 3G 9
  20655824.427    20655827.150   -47394156.705 8  22204311.828 8
  20528980.580    20528982.054   -89398046.026 9 112283618.741 9
  22371700.393    22371701.752   -82746159.394 9  88067251.377 9
  21893537.795    21893539.956   -16803135.259 9  -6313051.658 8
 89 11 20 14  3 59.0800000  0  4G13G12G 3G 9
  20660272.291    20660274.530   -47370779.724 9  22222527.637 8
  20528175.143    20528175.645   -89402282.136 9 112280317.849 8
  22361367.873    22361369.583   -82800443.302 9  88024952.238 9
  21911797.089    21911796.687   -16707185.312 9  -6238285.490 8
 89 11 20 14  4 29.0800000  0  4G13G12G 3G 9
  20664773.437    20664774.516   -47347132.686 9  22240953.893 8
  20527487.826    20527489.973   -89405890.652 9 112277506.002 9
  22351088.528    22351091.291   -82854457.586 9  87982863.197 9
  21930136.678    21930137.207   -16610812.276 9  -6163189.662 9
 89 11 20 14  4 59.0800000  0  4G13G12G 3G 9
  20669324.139    20669325.523   -47323217.414 8  22259589.159 8
  20526920.595    20526923.098   -89408871.238 9 112275183.462 9
  22340861.675    22340865.481   -82908202.715 9  87940983.873 9
  21948554.289    21948556.413   -16514019.190 9  -6087766.523 9
 89 11 20 14  5 29.0800000  0  4G13G12G 3G 9
  20673925.787    20673927.518   -47299035.148 9  22278432.476 7
  20526473.013    20526474.788   -89411222.653 9 112273351.192 8
  22330687.391    22330690.386   -82961678.624 9  87899314.323 8
  21967053.812    21967055.262   -16416808.473 9  -6012017.947 8
 89 11 20 14  5 59.0800000  0  4G13G12G 3G 9
  20678577.448    20678579.157   -47274588.344 9  22297481.924 8
  20526144.715    20526146.048   -89412944.766 9 112272009.274 9
  22320563.737    22320563.366   -83014886.159 9  87857853.891 9
  21985631.347    21985631.892   -16319183.559 9  -5935946.672 8
 89 11 20 14  6 29.0800000  0  4G13G12G 3G 9
  20683280.576    20683280.569   -47249877.348 9  22316737.237 7
  20525937.945    20525937.904   -89414035.624 9 112271159.238 9
  22310490.192    22310487.577   -83067824.245 9  87816603.448 8
  22004286.821    22004288.981   -16221145.850 8  -5859553.693 9
 89 11 20 14  6 59.0800000  0  4G13G12G 3G 9
  20688032.679    20688034.715   -47224904.827 9  22336196.339 7
  20525850.857    20525852.416   -89414495.832 9 112270800.610 9
  22300465.643    22300466.724   -83120494.630 9  87775561.596 9
  22023021.364    22023021.874   -16122699.358 9  -5782842.182 8
 89 11 20 14  7 29.0800000  0  4G13G12G 3G 9
  20692835.113    20692834.591   -47199673.422 9  22355857.164 8
  20525882.693    20525883.983   -89414325.458 9 112270933.340 9
  22290493.330    22290497.914   -83172897.733 9  87734727.986 9
  22041831.097    22041831.376   -16023847.657 9  -5705814.929 9
 89 11 20 14  7 59.0800000  0  4G13G12G 3G 9
  20697685.030    20697685.169   -47174184.043 8  22375718.997 8
  20526035.928    20526037.658   -89413523.142 9 112271558.504 8
  22280571.516    22280575.307   -83225033.300 9  87694102.871 9
  22060718.742    22060720.908   -15924592.669 9  -5628473.436 8
 89 11 20 14  8 29.0800000  0  4G13G12G 3G 9
  20702583.645    20702585.310   -47148437.850 9  22395780.937 8
  20526307.758    20526310.707   -89412088.045 9 112272676.745 9
  22270701.982    22270702.296   -83276901.536 9  87653686.085 8
  22079682.921    22079684.845   -15824936.987 9  -5550819.701 9
 89 11 20 14  8 59.0800000  0  4G13G12G 3G 9
  20707531.570    20707531.864   -47122435.500 9  22416042.481 8
  20526701.316    20526703.234   -89410019.520 9 112274288.571 8
  22260881.671    22260883.529   -83328502.158 9  87613477.795 9
  22098721.851    22098724.985   -15724883.268 8  -5472855.814 8
 89 11 20 14  9 29.0800000  0  4G13G12G 3G 9
  20712528.850    20712528.240   -47096180.706 9  22436500.757 8
  20527215.357    20527217.704   -89407318.154 9 112276393.515 9
  22251112.112    22251115.907   -83379836.501 9  87573477.002 8
  22117839.615    22117838.879   -15624435.248 9  -5394584.682 9
 89 11 20 14  9 59.0800000  0  4G13G12G 3G 9
  20717571.656    20717572.958   -47069674.339 9  22457155.038 8
  20527850.354    20527851.971   -89403982.979 9 112278992.346 9
  22241394.409    22241397.586   -83430904.994 8  87533683.399 8
  22137026.882    22137028.127   -15523595.760 9  -5316008.540 8
 89 11 20 14 10 29.0800000  0  4G13G12G 3G 9
  20722662.782    20722664.550   -47042919.485 9  22478002.953 9
  20528605.791    20528607.753   -89400014.663 9 112282084.529 9
  22231726.515    22231731.245   -83481708.648 9  87494096.138 8
  22156291.490    22156290.603   -15422368.708 9  -5237130.363 8
 89 11 20 14 10 59.0800000  0  4G13G12G 3G 9
  20727803.166    20727803.251   -47015916.479 9  22499044.248 8
  20529481.554    20529483.613   -89395411.955 9 112285671.034 9
  22222110.387    22222114.192   -83532247.017 9  87454715.585 9
  22175627.887    22175627.828   -15320755.971 9  -5157951.676 9
 89 11 20 14 11 29.0800000  0  4G13G12G 3G 9
  20732987.214    20732988.795   -46988667.346 9  22520277.313 8
  20530478.816    20530479.274   -89390174.528 9 112289752.134 8
  22212545.386    22212546.053   -83582520.682 8  87415541.301 9
  22195035.800    22195035.606   -15218760.735 9  -5078474.913 8
 89 11 20 14 11 59.0800000  0  4G13G12G 3G 9
  20738219.502    20738220.960   -46961172.456 9  22541701.869 8
  20531596.907    20531597.106   -89384300.895 9 112294328.958 9
  22203029.354    22203029.676   -83632528.686 9  87376574.040 9
  22214517.651    22214517.871   -15116384.714 9  -4998701.455 9
 89 11 20 14 12 29.0800000  0  4G13G12G 3G 9
  20743498.119    20743498.807   -46933434.574 9  22563315.779 9
  20532835.280    20532836.022   -89377791.881 9 112299400.897 9
  22193562.860    22193563.434   -83682272.953 8  87337812.284 9
  22234070.722    22234072.166   -15013632.107 9  -4918634.567 8
 89 11 20 14 12 59.0800000  0  4G13G12G 3G 9
  20748822.512    20748822.797   -46905457.666 9  22585115.968 8
  20534194.992    20534196.336   -89370649.387 9 112304966.450 9
  22184145.198    22184148.117   -83731755.255 9  87299254.646 9
  22253695.628    22253695.099   -14910507.598 9  -4838277.855 9
 89 11 20 14 13 29.0800000  0  4G13G12G 3G 9
  20754191.585    20754192.172   -46877240.856 9  22607103.038 8
  20535674.160    20535676.077   -89362871.320 9 112311027.269 9
  22174777.583    22174782.869   -83780974.642 9  87260901.861 9
  22273389.562    22273389.589   -14807012.533 9  -4757632.437 9
 89 11 20 14 13 59.0800000  0  4G13G12G 3G 9
  20759606.614    20759607.545   -46848785.971 9  22629275.655 9
  20537276.216    20537274.900   -89354456.989 9 112317583.852 8
  22165462.340    22165467.511   -83829930.705 9  87222754.270 9
  22293154.375    22293154.946   -14703149.393 8  -4676700.165 8
 89 11 20 14 14 29.0800000  0  4G13G12G 3G 9
  20765066.407    20765066.350   -46820094.475 9  22651632.648 8
  20538998.023    20538998.352   -89345406.254 9 112324636.352 9
  22156195.739    22156199.444   -83878624.044 8  87184811.389 8
  22312988.058    22312988.873   -14598921.065 9  -4595483.357 8
 89 11 20 14 14 59.0800000  0  4G13G12G 3G 9
  20770570.719    20770571.595   -46791167.994 9  22674172.734 8
  20540840.974    20540843.806   -89335719.137 9 112332184.735 8
  22146980.145    22146983.184   -83927055.018 9  87147072.967 8
  22332891.292    22332891.645   -14494330.508 9  -4513984.287 9
 89 11 20 14 15 29.0800000  0  4G13G12G 3G 9
  20776119.888    20776120.525   -46762009.869 9  22696893.322 7
  20542806.283    20542807.484   -89325397.366 9 112340227.649 8
  22137815.794    22137816.074   -83975225.367 9  87109537.617 9
  22352862.336    22352863.429   -14389382.321 9  -4432206.574 8
 89 11 20 14 15 59.0800000  0  4G13G12G 3G 9
  20781711.823    20781713.263   -46732621.730 9  22719793.133 8
  20544892.517    20544891.471   -89314441.042 9 112348765.008 9
  22128699.637    22128699.855   -84023136.287 9  87072204.435 9
  22372899.498    22372900.313   -14284080.036 9  -4350152.938 9
 89 11 20 14 16 29.0800000  0  4G13G12G 3G 9
  20787346.915    20787348.789   -46703003.690 9  22742872.096 8
  20547098.377    20547096.775   -89302847.823 9 112357798.654 8
  22119632.286    22119631.339   -84070786.413 9  87035074.448 9
  22393007.088    22393006.710   -14178424.702 9  -4267824.147 9
 89 11 20 14 16 59.0800000  0  4G13G12G 3G 9
  20793027.527    20793027.805   -46673156.631 9  22766129.525 7
  20549425.320    20549426.394   -89290617.593 9 112367328.658 8
  22110614.941    22110615.016   -84118175.596 9  86998147.799 8
  22413178.754    22413178.596   -14072419.107 9  -4185222.486 8
 89 11 20 14 17 29.0800000  0  4G13G12G 3G 9
  20798749.218    20798751.556   -46643084.509 9  22789562.320 8
  20551872.820    20551875.152   -89277752.412 9 112377353.447 9
  22101646.344    22101648.271   -84165306.064 9  86961422.741 9
  22433416.730    22433416.715   -13966068.280 9  -4102351.783 9
 89 11 20 14 17 59.0800000  0  4G13G12G 3G 9
  20804514.874    20804514.140   -46612788.271 9  22813169.768 8
  20554442.104    20554442.334   -89264251.908 9 112387873.300 8
  22092724.246    22092728.595   -84212178.053 9  86924899.087 9
  22453718.906    22453719.282   -13859374.544 9  -4019213.881 8
 89 11 20 14 18 29.0800000  0  4G13G12G 3G 9
  20810321.768    20810323.883   -46582268.491 9  22836951.384 8
  20557131.185    20557133.146   -89250115.166 9 112398888.914 8
  22083855.143    22083856.541   -84258791.106 9  86888577.228 8
  22474087.110    22474087.968   -13752340.054 9  -3935810.492 9
 89 11 20 14 18 59.0800000  0  4G13G12G 3G 9
  20816172.563    20816173.324   -46551527.583 9  22860905.305 8
  20559942.597    20559943.384   -89235342.851 9 112410399.792 9
  22075033.416    22075033.681   -84305146.149 9  86852456.412 8
  22494519.331    22494520.548   -13644968.538 8  -3852144.444 9
 89 11 20 14 19 29.0800000  0  4G13G12G 3G 9
  20822063.818    20822064.228   -46520568.238 9  22885029.438 8
  20562873.919    20562875.821   -89219935.962 9 112422405.119 9
  22066262.014    22066262.944   -84351244.476 9  86816535.637 8
  22515015.210    22515016.018   -13537263.901 9  -3768218.827 9
 89 11 20 14 19 59.0800000  0  4G13G12G 3G 9
  20827996.913    20827997.910   -46489391.172 9  22909323.237 8
  20565927.369    20565928.485   -89203893.923 9 112434905.375 8
  22057537.398    22057539.636   -84397086.265 9  86780814.756 9
  22535574.255    22535574.269   -13429228.726 8  -3684035.677 9
 89 11 20 14 20 29.0800000  0  4G13G12G 3G 9
  20833971.128    20833972.020   -46457997.084 9  22933786.131 8
  20569100.444    20569102.033   -89187216.291 9 112447900.890 8
  22048863.217    22048865.015   -84442671.067 9  86745294.131 9
  22556194.894    22556195.189   -13320865.398 9  -3599596.812 9
 89 11 20 14 20 59.0800000  0  4G13G12G 3G 9
  20839985.849    20839986.704   -46426389.129 9  22958415.673 8
  20572395.075    20572395.691   -89169904.231 9 112461390.761 9
  22040237.740    22040240.636   -84488000.321 9  86709972.625 8
  22576877.034    22576878.481   -13212177.925 8  -3514905.364 8
 89 11 20 14 21 29.0800000  0  4G13G12G 3G 9
  20846041.493    20846042.682   -46394568.278 9  22983211.108 9
  20575810.120    20575811.293   -89151957.856 9 112475374.929 9
  22031661.453    22031663.106   -84533074.353 9  86674849.995 9
  22597620.254    22597621.219   -13103169.032 8  -3429963.449 9
 89 11 20 14 21 59.0800000  0  4G13G12G 3G 9
  20852137.318    20852137.189   -46362536.160 9  23008171.161 8
  20579344.976    20579346.577   -89133377.542 9 112489853.047 8
  22023132.469    22023134.247   -84577893.868 9  86639925.698 9
  22618424.917    22618426.512   -12993841.994 9  -3344773.666 9
 89 11 20 14 22 29.0800000  0  4G13G12G 3G 9
  20858272.270    20858272.090   -46330293.993 9  23033294.893 8
  20583000.898    20583003.746   -89114163.414 9 112504825.068 9
  22014651.603    22014652.735   -84622459.143 9  86605199.517 9
  22639289.528    22639290.728   -12884199.725 9  -3259338.235 9
 89 11 20 14 22 59.0800000  0  4G13G12G 3G 9
  20864447.690    20864449.445   -46297843.502 9  23058580.955 8
  20586778.752    20586781.028   -89094315.846 9 112520290.653 9
  22006219.685    22006220.091   -84666770.536 9  86570671.164 9
  22660212.477    22660213.966   -12774245.343 9  -3173659.606 8
 89 11 20 14 23 29.0800000  0  4G13G12G 3G 9
  20870661.719    20870662.731   -46265186.904 9  23084027.615 8
  20590677.505    20590679.106   -89073835.412 9 112536249.401 8
  21997835.265    21997836.262   -84710828.988 9  86536339.893 9
  22681195.260    22681196.735   -12663982.115 9  -3087740.305 9
 89 11 20 14 23 59.0800000  0  4G13G12G 3G 9
  20876914.567    20876916.773   -46232325.279 9  23109634.046 8
  20594695.322    20594695.895   -89052722.402 9 112552701.062 9
  21989499.175    21989500.152   -84754634.826 9  86502205.484 9
  22702236.862    22702236.569   -12553413.212 9  -3001582.777 8
 89 11 20 14 24 29.0800000  0  4G13G12G 3G 9
  20883206.641    20883207.698   -46199260.528 9  23135398.730 8
  20598832.923    20598833.912   -89030977.347 9 112569645.205 9
  21981212.126    21981212.473   -84798188.723 9  86468267.370 9
  22723334.406    22723335.688   -12442541.888 9  -2915189.678 9
 89 11 20 14 24 59.0800000  0  4G13G12G 3G 9
  20889537.898    20889538.581   -46165994.249 9  23161320.463 7
  20603090.378    20603092.210   -89008600.804 9 112587081.427 9
  21972970.624    21972971.613   -84841491.256 9  86434525.128 8
  22744488.192    22744489.573   -12331371.342 8  -2828563.389 8
 89 11 20 14 25 29.0800000  0  4G13G12G 3G 9
  20895906.514    20895907.288   -46132527.723 9  23187398.231 8
  20607467.915    20607470.308   -88985592.948 9 112605009.590 9
  21964777.963    21964779.919   -84884542.849 9  86400978.429 8
  22765700.053    22765702.149   -12219904.357 9  -2741706.141 9
 89 11 20 14 25 59.0800000  0  4G13G12G 3G 9
  20902312.076    20902313.198   -46098862.882 9  23213630.533 7
  20611966.824    20611968.598   -88961955.026 9 112623428.705 9
  21956632.752    21956634.902   -84927344.548 9  86367626.460 8
  22786967.996    22786969.927   -12108144.788 9  -2654620.838 9
 89 11 20 14 26 29.0800000  0  4G13G12G 3G 9
  20908756.106    20908757.085   -46065000.954 9  23240016.405 8
  20616584.799    20616586.600   -88937686.924 9 112642338.870 9
  21948536.968    21948537.286   -84969896.411 9  86334469.156 9
  22808292.012    22808291.648   -11996094.969 9  -2567309.413 8
 89 11 20 14 26 59.0800000  0  4G13G12G 3G 9
  20915236.517    20915239.032   -46030943.139 9  23266554.913 8
  20621322.628    20621324.802   -88912788.936 9 112661739.859 9
  21940488.593    21940487.989   -85012198.687 9  86301506.335 9
  22829667.805    22829669.607   -11883757.942 8  -2479774.187 9
 89 11 20 14 27 29.0800000  0  4G13G12G 3G 9
  20921754.675    20921756.033   -45996692.328 9  23293243.809 8
  20626178.678    20626182.055   -88887263.491 9 112681629.766 9
  21932485.376    21932484.691   -85054253.616 9  86268736.248 9
  22851098.940    22851101.728   -11771138.683 8  -2392019.078 9
 89 11 20 14 27 59.0800000  0  4G13G12G 3G 9
  20928309.059    20928310.702   -45962249.997 9  23320081.931 8
  20631156.229    20631158.790   -88861110.963 9 112702008.318 9
  21924528.999    21924530.689   -85096061.393 9  86236158.738 9
  22872583.023    22872584.490   -11658239.899 9  -2304046.099 8
 89 11 20 14 28 29.0800000  0  4G13G12G 3G 9
  20934899.884    20934901.779   -45927615.194 9  23347070.044 9
  20636253.047    20636254.377   -88834329.585 9 112722876.879 8
  21916619.918    21916621.521   -85137620.394 9  86203775.081 9
  22894119.966    22894122.348   -11545062.322 9  -2215855.951 9
 89 11 20 14 28 59.0800000  0  4G13G12G 3G 9
  20941526.248    20941528.932   -45892791.290 9  23374205.500 8
  20641468.515    20641470.617   -88806921.574 9 112744233.712 9
  21908757.956    21908759.703   -85178932.768 9  86171583.603 9
  22915708.715    22915710.338   -11431610.877 9  -2127452.314 9
 89 11 20 14 29 29.0800000  0  4G13G12G 3G 9
  20948188.551    20948190.062   -45857781.137 9  23401486.086 8
  20646802.807    20646805.542   -88778888.640 9 112766077.501 9
  21900944.263    21900944.150   -85220000.440 9  86139582.797 9
  22937349.844    22937351.274   -11317889.933 9  -2038838.726 9
 89 11 20 14 29 59.0800000  0  4G13G12G 3G 9
  20954885.935    20954887.737   -45822585.006 9  23428911.590 8
  20652254.710    20652258.858   -88750231.069 9 112788408.037 9
  21893175.038    21893175.947   -85260822.957 9  86107773.014 9
  22959040.145    22959041.123   -11203901.963 9  -1950017.051 8
 89 11 20 14 30 29.0800000  0  4G13G12G 3G 9
  20961619.321    20961622.205   -45787202.714 9  23456482.138 8
  20657828.036    20657830.512   -88720947.708 9 112811226.176 9
  21885453.495    21885454.135   -85301399.273 9  86076155.086 9
  22980781.910    22980784.814   -11089648.185 9  -1860988.281 9
 89 11 20 14 30 59.0800000  0  4G13G12G 3G 9
  20968387.609    20968389.992   -45751637.742 9  23484195.051 8
  20663520.245    20663523.679   -88691041.251 9 112834529.861 9
  21877779.012    21877779.817   -85341731.266 8  86044727.540 8
  23002574.115    23002575.788   -10975132.948 8  -1771755.753 9
 89 11 20 14 31 29.0800000  0  4G13G12G 3G 9
  20975190.108    20975191.091   -45715891.587 9  23512049.144 8
  20669329.145    20669332.464   -88660512.791 9 112858318.225 9
  21870150.956    21870151.051   -85381820.374 8  86013489.259 8
  23024414.170    23024416.745   -10860360.653 9  -1682322.941 9
 89 11 20 14 31 59.0800000  0  4G13G12G 3G 9
  20982027.064    20982027.422   -45679964.612 9  23540044.130 8
  20675256.954    20675259.015   -88629362.214 9 112882591.355 9
  21862568.028    21862568.556   -85421666.365 9  85982440.414 8
  23046304.558    23046304.770   -10745333.596 9  -1592691.638 8
 89 11 20 14 32 29.0800000  0  4G13G12G 3G 9
  20988897.543    20988897.965   -45643859.641 9  23568177.822 8
  20681304.303    20681305.505   -88597591.814 9 112907347.454 9
  21855031.593    21855031.414   -85461270.784 9  85951579.815 9
  23068240.498    23068242.272   -10630055.798 9  -1502864.887 8
 89 11 20 14 32 59.0800000  0  4G13G12G 3G 9
  20995801.865    20995803.066   -45607577.094 9  23596449.865 8
  20687468.215    20687469.388   -88565200.780 9 112932587.158 9
  21847540.928    21847541.722   -85500632.688 9  85920908.173 8
  23090225.591    23090227.444   -10514528.994 9  -1412844.179 9
 89 11 20 14 33 29.0800000  0  4G13G12G 3G 9
  21002739.020    21002739.822   -45571118.980 9  23624858.728 8
  20693750.177    20693750.205   -88532190.812 9 112958309.138 9
  21840096.935    21840097.325   -85539753.334 9  85890424.539 8
  23112255.556    23112257.203   -10398756.626 9  -1322632.079 8
 89 11 20 14 33 59.0800000  0  4G13G12G 3G 9
  21009710.390    21009711.613   -45534487.422 9  23653402.725 8
  20700148.516    20700151.021   -88498563.709 9 112984512.035 9
  21832698.109    21832699.648   -85578634.260 9  85860127.671 8
  23134332.572    23134334.089   -10282743.275 8  -1232232.229 9
 89 11 20 14 34 29.0800000  0  4G13G12G 3G 9
  21016714.018    21016716.061   -45497683.024 9  23682081.411 7
  20706664.047    20706665.620   -88464319.909 9 113011195.475 8
  21825344.436    21825346.048   -85617275.491 9  85830017.583 8
  23156453.740    23156455.912   -10166491.421 9  -1141646.513 9
 89 11 20 14 34 59.0800000  0  4G13G12G 3G 9
  21023750.479    21023751.888   -45460706.809 9  23710893.988 9
  20713298.315    20713298.959   -88429460.320 9 113038358.723 8
  21818038.069    21818037.686   -85655677.344 9  85800094.048 8
  23178621.094    23178623.024   -10050003.964 9  -1050877.214 9
 89 11 20 14 35 29.0800000  0  4G13G12G 3G 9
  21030818.086    21030820.285   -45423561.496 9  23739838.321 8
  20720048.059    20720050.407   -88393986.721 9 113066000.426 9
  21810774.647    21810775.342   -85693841.321 9  85770355.858 8
  23200832.036    23200834.754    -9933284.900 9   -959927.468 9
 89 11 20 14 35 59.0800000  0  4G13G12G 3G 9
  21037920.123    21037922.522   -45386246.981 9  23768914.500 9
  20726916.039    20726918.616   -88357898.526 9 113094121.028 9
  21803558.469    21803558.611   -85731766.703 9  85740803.584 8
  23223087.186    23223089.497    -9816336.126 9   -868798.697 9
 89 11 20 14 36 29.0800000  0  4G13G12G 3G 9
  21045052.540    21045053.034   -45348765.632 9  23798120.682 7
  20733899.339    20733902.329   -88321198.660 9 113122718.276 9
  21796386.988    21796386.554   -85769455.157 9  85711435.925 9
  23245384.756    23245386.109    -9699161.764 9   -777494.207 9
 89 11 20 14 36 59.0800000  0  4G13G12G 3G 9
  21052215.682    21052216.528   -45311118.497 9  23827456.059 8
  20740998.070    20741000.774   -88283887.782 9 113151791.628 8
  21789258.437    21789259.485   -85806907.209 9  85682252.496 8
  23267724.831    23267725.933    -9581765.109 9   -686016.439 8
 89 11 20 14 37 29.0800000  0  4G13G12G 3G 9
  21059410.670    21059412.500   -45273306.678 9  23856919.756 8
  20748216.797    20748218.386   -88245966.436 9 113181340.655 8
  21782176.295    21782177.662   -85844123.028 9  85653253.135 9
  23290106.975    23290109.093    -9464148.440 9   -594367.255 8
 89 11 20 14 37 59.0800000  0  4G13G12G 3G 9
  21066637.465    21066638.966   -45235333.239 9  23886509.388 8
  20755548.196    20755552.044   -88207437.090 9 113211363.464 9
  21775139.637    21775141.562   -85881104.412 9  85624436.446 8
  23312526.683    23312530.694    -9346316.455 8   -502550.353 9
 89 11 20 14 38 29.0800000  0  4G13G12G 3G 9
  21073894.704    21073895.885   -45197198.465 9  23916224.746 8
  20762994.883    20762995.713   -88168300.657 9 113241859.329 9
  21768147.822    21768148.766   -85917851.528 9  85595802.281 8
  23334992.564    23334993.913    -9228272.220 8   -410567.975 8
 89 11 20 14 38 59.0800000  0  4G13G12G 3G 9
  21081181.667    21081183.036   -45158904.438 9  23946064.195 8
  20770555.586    20770559.178   -88128558.622 9 113272827.068 9
  21761198.394    21761199.577   -85954365.476 9  85567349.827 9
  23357496.249    23357497.029    -9110018.756 9   -318422.606 8
 89 11 20 14 39 29.0800000  0  4G13G12G 3G 9
  21088499.548    21088500.865   -45120451.100 9  23976027.774 7
  20778233.610    20778239.092   -88088211.463 9 113304266.355 9
  21754294.544    21754295.936   -85990645.719 9  85539079.475 8
  23380037.907    23380039.409    -8991558.387 9   -226115.983 9
 89 11 20 14 39 59.0800000  0  4G13G12G 3G 9
  21095847.021    21095848.206   -45081839.915 9  24006114.344 8
  20786028.955    20786031.788   -88047260.281 9 113336176.316 9
  21747436.140    21747436.187   -86026692.763 9  85510990.845 9
  23402619.692    23402621.523    -8872894.310 9   -133650.646 8
 89 11 20 14 40 29.0800000  0  4G13G12G 3G 9
  21103223.995    21103225.313   -45043073.421 9  24036321.936 9
  20793938.174    20793937.844   -88005707.367 9 113368555.149 9
  21740620.425    21740621.766   -86062508.454 9  85483082.474 8
  23425235.844    23425239.591    -8754030.744 8    -41029.902 8
 89 11 20 14 40 59.0800000  0  4G13G12G 3G 9
  21110629.488    21110631.175   -45004153.408 9  24066649.139 8
  20801958.116    20801958.831   -87963554.376 9 113401401.552 8
  21733847.821    21733849.900   -86098093.657 9  85455353.716 8
  23447894.233    23447897.236    -8634971.199 8     51743.595 9
 89 11 20 14 41 29.0800000  0  4G13G12G 3G 9
  21118065.312    21118066.816   -44965079.268 9  24097096.443 7
  20810092.217    20810096.294   -87920801.449 9 113434715.442 8
  21727120.672    21727121.611   -86133447.840 9  85427804.975 8
  23470588.460    23470591.457    -8515717.501 9    144668.315 9
 89 11 20 14 41 59.0800000  0  4G13G12G 3G 9
  21125529.903    21125531.232   -44925853.386 9  24127662.009 8
  20818342.750    20818344.341   -87877450.571 9 113468495.302 9
  21720436.780    21720438.659   -86168572.264 9  85400435.253 9
  23493317.587    23493320.600    -8396273.711 8    237741.209 9
 89 11 20 14 42 29.0800000  0  4G13G12G 3G 9
  21133024.194    21133025.299   -44886478.224 9  24158343.880 8
  20826708.318    20826706.343   -87833504.242 9 113502739.126 8
  21713797.003    21713796.467   -86203468.458 9  85373243.370 8
  23516082.932    23516084.412    -8276643.840 9    330959.119 7
 89 11 20 14 42 59.0800000  0  4G13G12G 3G 9
  21140544.705    21140546.967   -44846954.419 9  24189141.594 8
  20835185.295    20835184.165   -87788963.628 9 113537446.010 9
  21707199.391    21707200.792   -86238136.968 9  85346228.900 9
  23538882.276    23538885.144    -8156830.610 9    424319.914 8
 89 11 20 14 43 29.0800000  0  4G13G12G 3G 9
  21148092.861    21148095.266   -44807283.042 9  24220054.281 7
  20843771.796    20843771.483   -87743829.754 9 113572615.195 8
  21700644.961    21700646.377   -86272578.023 9  85319391.672 8
  23561717.657    23561719.125    -8036837.195 9    517821.064 8
 89 11 20 14 43 59.0800000  0  4G13G12G 3G 9
  21155670.351    21155672.527   -44767464.720 9  24251081.480 8
  20852472.384    20852473.072   -87698103.417 9 113608246.021 9
  21694135.194    21694135.147   -86306791.628 9  85292731.673 9
  23584584.998    23584585.700    -7916666.031 8    611460.763 8
 89 11 20 14 44 29.0800000  0  4G13G12G 3G 9
  21163275.410    21163277.608   -44727501.108 9  24282221.875 9
  20861285.828    20861286.848   -87651786.357 9 113644337.168 9
  21687667.507    21687668.787   -86340778.406 9  85266248.436 8
  23607485.521    23607488.519    -7796320.454 9    705236.344 9
 89 11 20 14 44 59.0800000  0  4G13G12G 3G 9
  21170907.174    21170909.444   -44687393.470 9  24313474.499 8
  20870211.267    20870212.067   -87604880.749 9 113680886.910 8
  21681242.037    21681244.556   -86374539.519 9  85239941.016 8
  23630418.692    23630422.641    -7675803.863 8    799145.125 9
 89 11 20 14 45 29.0800000  0  4G13G12G 3G 9
  21178567.370    21178569.499   -44647143.229 9  24344838.251 8
  20879247.502    20879250.901   -87557388.351 9 113717893.894 9
  21674861.120    21674862.105   -86408075.882 9  85213808.752 9
  23653384.379    23653388.027    -7555119.741 9    893184.471 8
 89 11 20 14 45 59.0800000  0  4G13G12G 3G 9
  21186253.567    21186254.850   -44606752.522 9  24376311.450 8
  20888397.270    20888400.554   -87509311.281 9 113755356.469 9
  21668521.479    21668523.157   -86441388.846 9  85187850.546 9
  23676381.404    23676384.436    -7434272.095 9    987351.278 9
 89 11 20 14 46 29.0800000  0  4G13G12G 3G 9
  21193965.849    21193968.935   -44566221.977 9  24407893.616 9
  20897657.230    20897660.356   -87460650.213 9 113793274.097 8
  21662225.028    21662226.434   -86474477.862 9  85162066.850 9
  23699409.422    23699411.783    -7313263.069 9   1081643.819 9
 89 11 20 14 46 59.0800000  0  4G13G12G 3G 9
  21201704.961    21201707.974   -44525552.704 9  24439583.883 8
  20907028.035    20907030.607   -87411407.446 9 113831645.019 9
  21655970.949    21655971.747   -86507344.707 9  85136456.296 8
  23722465.973    23722469.221    -7192096.670 9   1176058.991 8
 89 11 20 14 47 29.0800000  0  4G13G12G 3G 9
  21209470.373    21209472.686   -44484745.194 9  24471381.850 8
  20916508.420    20916511.013   -87361584.227 9 113870468.234 9
  21649758.299    21649759.576   -86539989.050 9  85111019.114 8
  23745553.833    23745556.029    -7070774.952 9   1270595.223 8
 89 11 20 14 47 59.0800000  0  4G13G12G 3G 9
  21217261.513    21217265.071   -44443801.655 9  24503285.834 8
  20926099.983    20926103.218   -87311182.424 9 113909742.286 9
  21643588.911    21643590.270   -86572411.952 9  85085754.463 9
  23768666.562    23768671.726    -6949301.754 8   1365249.449 8
 89 11 20 14 48 29.0800000  0  4G13G12G 3G 9
  21225078.352    21225081.382   -44402723.252 9  24535294.892 9
  20935802.561    20935804.405   -87260204.024 9 113949465.652 8
  21637460.726    21637462.959   -86604614.414 9  85060661.596 9
  23791812.086    23791815.865    -6827680.576 8   1460018.929 9
 89 11 20 14 48 59.0800000  0  4G13G12G 3G 9
  21232920.418    21232923.477   -44361511.668 9  24567407.731 8
  20945614.307    20945613.525   -87208650.982 9 113989636.751 9
  21631375.838    21631377.673   -86636597.565 9  85035739.625 8
  23814984.606    23814987.618    -6705915.018 9   1554900.965 9
 89 11 20 14 49 29.0800000  0  4G13G12G 3G 9
  21240788.299    21240792.329   -44320166.930 9  24599624.324 9
  20955532.765    20955533.897   -87156524.745 9 114030254.499 9
  21625331.224    21625331.156   -86668361.138 9  85010988.768 8
  23838182.554    23838187.012    -6584007.582 9   1649893.534 8
 89 11 20 14 49 59.0800000  0  4G13G12G 3G 9
  21248681.665    21248684.278   -44278690.784 9  24631943.312 8
  20965559.412    20965561.486   -87103827.052 9 114071317.563 9
  21619328.645    21619328.459   -86699906.011 9  84986408.299 8
  23861407.882    23861411.064    -6461961.206 9   1744994.423 9
 89 11 20 14 50 29.0800000  0  4G13G12G 3G 9
  21256599.025    21256600.894   -44237084.987 9  24664363.312 9
  20975695.147    20975697.851   -87050560.490 9 114112823.907 8
  21613366.445    21613367.381   -86731233.411 9  84961997.301 8
  23884656.908    23884661.910    -6339779.833 8   1840200.489 8
 89 11 20 14 50 59.0800000  0  4G13G12G 3G 9
  21264541.255    21264542.039   -44195349.922 9  24696884.053 8
  20985940.101    20985941.019   -86996726.661 9 114154772.241 8
  21607446.716    21607447.296   -86762343.470 9  84937755.659 9
  23907932.052    23907937.956    -6217465.966 7   1935509.731 9
 89 11 20 14 51 29.0800000  0  4G13G12G 3G 9
  21272507.354    21272509.825   -44153487.075 9  24729504.369 8
  20996291.726    20996294.763   -86942326.933 9 114197161.555 8
  21601567.852    21601568.765   -86793236.929 9  84913682.804 9
  23931233.764    23931237.770    -6095023.176 8   2030919.468 8
 89 11 20 14 51 59.0800000  0  4G13G12G 3G 9
  21280498.194    21280500.649   -44111498.457 9  24762222.696 8
  21006750.615    21006754.149   -86887364.427 9 114239989.402 8
  21595730.419    21595730.938   -86823915.631 9  84889777.278 8
  23954557.675    23954561.009    -5972455.498 9   2126426.494 8
 89 11 20 14 52 29.0800000  0  4G13G12G 3G 9
  21288512.085    21288513.625   -44069384.508 9  24795038.689 8
  21017318.178    21017319.573   -86831839.909 9 114283255.178 8
  21589934.083    21589933.495   -86854379.279 9  84866039.332 8
  23977905.818    23977908.680    -5849765.109 9   2222029.173 9
 89 11 20 14 52 59.0800000  0  4G13G12G 3G 9
  21296550.960    21296550.183   -44027146.738 9  24827951.170 9
  21027988.034    21027990.653   -86775756.094 9 114326956.756 9
  21584176.740    21584177.876   -86884628.929 9  84842468.137 9
  24001275.854    24001280.056    -5726955.625 9   2317724.666 9
 89 11 20 14 53 29.0800000  0  4G13G12G 3G 9
  21304610.855    21304612.038   -43984785.849 9  24860959.574 8
  21038766.899    21038770.398   -86719114.475 9 114371093.005 9
  21578461.068    21578462.409   -86914664.404 9  84819063.849 8
  24024668.464    24024672.270    -5604029.614 8   2413510.927 9
 89 11 20 14 53 59.0800000  0  4G13G12G 3G 9
  21312694.576    21312697.676   -43942302.819 9  24894063.147 8
  21049652.550    21049654.627   -86661917.138 9 114415662.289 8
  21572786.511    21572787.751   -86944487.114 9  84795825.308 8
  24048081.401    24048085.600    -5480990.809 8   2509385.075 9
 89 11 20 14 54 29.0800000  0  4G13G12G 3G 9
  21320802.778    21320804.233   -43899698.372 9  24927261.357 8
  21060643.968    21060643.075   -86604166.069 9 114460663.015 8
  21567151.925    21567153.257   -86974097.592 9  84772752.187 8
  24071516.643    24071519.749    -5357841.909 8   2605345.029 9
 89 11 20 14 54 59.0800000  0  4G13G12G 3G 9
  21328932.102    21328933.686   -43856975.660 9  24960551.681 9
  21071737.629    21071740.662   -86545865.034 9 114506092.292 9
  21561556.344    21561558.229   -87003497.954 9  84749842.768 9
  24094969.605    24094974.976    -5234587.907 8   2701386.850 9
 89 11 20 14 55 29.0800000  0  4G13G12G 3G 9
  21337084.893    21337087.579   -43814134.766 9  24993934.122 8
  21082934.767    21082936.419   -86487015.064 9 114551949.336 9
  21556001.633    21556003.646   -87032687.903 9  84727097.313 8
  24118446.817    24118449.148    -5111230.650 9   2797509.113 8
 89 11 20 14 55 59.0800000  0  4G13G12G 3G 9
  21345259.433    21345261.390   -43771175.316 9  25027408.940 8
  21094239.323    21094240.111   -86427616.676 9 114598233.692 9
  21550487.484    21550489.456   -87061666.834 9  84704516.271 8
  24141938.554    24141941.743    -4987772.284 8   2893710.193 8
 89 11 20 14 56 29.0800000  0  4G13G12G 3G 9
  21353456.496    21353458.121   -43728098.438 9  25060975.256 8
  21105648.325    21105649.514   -86367672.461 9 114644943.372 9
  21545013.503    21545013.946   -87090435.769 9  84682098.880 8
  24165450.759    24165454.615    -4864216.365 9   2989987.324 9
 89 11 20 14 56 59.0800000  0  4G13G12G 3G 9
  21361676.312    21361677.236   -43684907.586 9  25094630.390 8
  21117156.814    21117156.899   -86307186.742 9 114692075.013 9
  21539576.737    21539578.505   -87118997.380 9  84659843.030 8
  24188980.245    24188985.302    -4740568.007 8   3086336.465 9
 89 11 20 14 57 29.0800000  0  4G13G12G 3G 9
  21369915.916    21369919.646   -43641602.870 9  25128374.234 8
  21128767.929    21128771.820   -86246160.798 9 114739627.602 9
  21534181.381    21534183.024   -87147351.687 9  84637748.716 9
  24212527.320    24212532.680    -4616829.361 8   3182755.926 9
 89 11 20 14 57 59.0800000  0  4G13G12G 3G 9
  21378179.074    21378180.229   -43598184.321 9  25162206.798 8
  21140483.215    21140486.924   -86184595.794 9 114787600.265 9
  21528825.890    21528826.950   -87175498.191 9  84615816.330 8
  24236090.775    24236096.179    -4493002.679 8   3279243.982 9
 89 11 20 14 58 29.0800000  0  4G13G12G 3G 9
  21386463.337    21386465.536   -43554653.421 9  25196126.906 8
  21152300.939    21152303.236   -86122494.543 9 114835990.750 8
  21523510.264    21523510.840   -87203438.100 9  84594044.934 8
  24259669.499    24259675.923    -4369091.411 8   3375797.954 9
 89 11 20 14 58 59.0800000  0  4G13G12G 3G 9
  21394767.176    21394770.617   -43511012.265 9  25230132.920 7
  21164219.568    21164224.737   -86059859.808 9 114884796.952 9
  21518231.452    21518232.789   -87231172.513 9  84572433.635 8
  24283263.867    24283270.682    -4245099.517 9   3472414.755 8
 89 11 20 14 59 29.0800000  0  4G13G12G 3G 9
  21403093.508    21403095.193   -43467261.120 9  25264224.634 7
  21176242.450    21176244.335   -85996694.073 9 114934016.935 9
  21512994.493    21512993.858   -87258702.191 9  84550981.898 9
  24306874.818    24306880.858    -4121030.033 9   3569092.011 9
 89 11 20 14 59 59.0800000  0  4G13G12G 3G 9
  21411440.518    21411441.429   -43423400.777 9  25298401.445 8
  21188364.723    21188364.777   -85932998.835 9 114983649.472 9
  21507793.339    21507794.892   -87286027.093 9  84529689.731 9
  24330499.116    24330504.276    -3996885.277 9   3665827.924 9
 89 11 20 15  0 29.0800000  0  4G13G12G 3G 9
  21419808.490    21419808.728   -43379432.930 9  25332662.030 8
  21200585.043    21200586.492   -85868777.506 9 115033691.946 9
  21502632.645    21502633.664   -87313148.988 9  84508555.741 8
  24354135.865    24354142.454    -3872669.465 8   3762619.179 9
 89 11 20 15  0 59.0800000  0  4G13G12G 3G 9
  21428194.935    21428195.804   -43335358.337 9  25367005.776 8
  21212902.357    21212906.425   -85804031.666 9 115084143.176 9
  21497510.651    21497510.577   -87340068.442 9  84487579.497 9
  24377787.190    24377792.960    -3748385.487 9   3859463.557 9
 89 11 20 15  1 29.0800000  0  4G13G12G 3G 9
  21436601.098    21436602.196   -43291177.607 9  25401432.238 7
  21225322.499    21225325.902   -85738763.377 9 115135001.486 9
  21492426.064    21492426.583   -87366785.483 9  84466760.981 8
  24401451.241    24401456.243    -3624036.151 9   3956358.872 8
 89 11 20 15  1 59.0800000  0  4G13G12G 3G 9
  21445027.310    21445029.108   -43246892.082 9  25435940.352 7
  21237843.833    21237845.762   -85672975.034 9 115186265.028 9
  21487379.821    21487381.420   -87393301.082 9  84446099.432 8
  24425125.914    24425130.506    -3499624.645 9   4053302.652 9
 89 11 20 15  2 29.0800000  0  4G13G12G 3G 9
  21453474.998    21453478.254   -43202501.899 9  25470529.990 8
  21250461.206    21250462.969   -85606668.670 9 115237932.235 9
  21482372.389    21482373.803   -87419615.221 9  84425594.862 8
  24448813.517    24448818.235    -3375153.692 8   4150292.754 7
 89 11 20 15  2 59.0800000  0  4G13G12G 3G 9
  21461942.534    21461944.405   -43158010.128 9  25505198.815 8
  21263174.213    21263178.180   -85539848.442 9 115289999.848 9
  21477403.449    21477403.902   -87445730.730 8  84405245.087 9
  24472509.236    24472515.090    -3250628.146 8   4247325.422 7
 89 11 20 15  3 29.0800000  0  4G13G12G 3G 9
  21470429.329    21470431.843   -43113416.108 9  25539947.317 7
  21275989.109    21275993.018   -85472515.845 9 115342466.729 9
  21472471.633    21472472.112   -87471647.103 9  84385050.461 8
  24496215.206    24496220.722    -3126049.784 7   4344399.201 6
 89 11 20 15  3 59.0800000  0  4G13G12G 3G 9
  21478932.810    21478936.769   -43068719.855 9  25574775.471 8
  21288900.091    21288903.736   -85404672.012 9 115395331.962 9
  21467577.574    21467578.540   -87497363.252 9  84365011.845 9
  24519931.427    24519937.080    -3001420.482 7   4441512.671 7
 89 11 20 15  4 29.0800000  0  4G13G12G 3G 9
  21487457.739    21487461.411   -43023923.223 9  25609681.861 7
  21301908.032    21301908.329   -85336320.407 9 115448592.845 9
  21462721.801    21462722.316   -87522881.349 9  84345127.574 8
  24543656.490    24543662.477    -2876744.655 6   4538662.388 7
 89 11 20 15  4 59.0800000  0  4G13G12G 3G 9
  21496001.987    21496003.656   -42979027.687 9  25644665.307 7
  21315010.242    21315012.091   -85267464.126 9 115502246.974 9
  21457903.657    21457904.108   -87548202.697 9  84325396.599 8
  24567390.788    24567394.912    -2752025.696 6   4635845.676 6
 89 11 20 15  5 29.0800000  0  4G13G12G 3G 9
  21504564.722    21504566.477   -42934033.965 9  25679725.248 8
  21328207.923    21328211.597   -85198105.539 9 115556292.541 8
  21453122.750    21453123.735   -87573327.852 9  84305818.516 8
  24591133.522    24591137.248    -2627266.787 6   4733060.132 6
 89 11 20 15  5 59.0800000  0  4G13G12G 3G 9
  21513143.812    21513148.530   -42888942.347 9  25714861.468 8
  21341500.852    21341504.269   -85128246.563 9 115610728.015 8
  21448378.214    21448380.409   -87598256.481 9  84286393.556 9
  24614880.577    24614884.176    -2502470.402 6   4830303.782 6
 89 11 20 15  6 29.0800000  0  4G13G12G 3G 9
  21521743.523    21521747.753   -42843754.572 9  25750072.623 8
  21354889.296    21354894.809   -85057890.404 9 115665550.894 9
  21443672.015    21443673.270   -87622989.944 9  84267120.675 9
  24638633.596    24638639.489    -2377640.006 6   4927573.928 6
 89 11 20 15  6 59.0800000  0  4G13G12G 3G 9
  21530360.015    21530362.859   -42798471.739 9  25785357.873 7
  21368372.804    21368378.087   -84987039.751 9 115720759.107 9
  21439001.611    21439004.729   -87647529.385 9  84247998.980 8
  24662394.695    24662399.133    -2252779.194 6   5024867.801 5
 89 11 20 15  7 29.0800000  0  4G13G12G 3G 9
  21538996.473    21538998.314   -42753094.388 9  25820716.740 8
  21381948.794    21381952.622   -84915696.506 9 115776351.157 9
  21434369.832    21434371.842   -87671874.781 9  84229028.488 8
  24686159.379    24686166.050    -2127890.256 7   5122183.566 6
 89 11 20 15  7 59.0800000  0  4G13G12G 3G 9
  21547650.341    21547651.938   -42707622.019 9  25856149.650 8
  21395619.528    21395622.155   -84843862.692 9 115832325.452 9
  21429773.558    21429774.764   -87696026.040 9  84210209.283 8
  24709931.288    24709938.499    -2002975.532 5   5219519.451 6
 89 11 20 15  8 29.0800000  0  4G13G12G 3G 9
  21556319.936    21556320.850   -42662056.601 9  25891655.072 9
  21409382.292    21409384.258   -84771541.470 9 115888679.561 9
  21425214.345    21425216.927   -87719984.542 9  84191540.261 8
  24733705.155    24733712.121    -1878039.064 5   5316872.259 7
 89 11 20 15  8 59.0800000  0  4G13G12G 3G 9
  21565009.766    21565013.224   -42616399.308 9  25927232.081 8
  21423233.767    21423237.399   -84698736.170 9 115945410.866 8
  21420691.995    21420692.822   -87743751.618 9  84173020.424 8
  24757484.653    24757489.394    -1753084.303 6   5414239.326 4
 89 11 20 15  9 29.0800000  0  4G13G12G 3G 9
  21573713.203    21573715.817   -42570650.482 9  25962880.423 8
  21437180.877    21437185.655   -84625449.125 9 116002517.578 9
  21416206.389    21416205.365   -87767327.419 9  84154649.621 8
  24781267.056    24781273.100    -1628113.789 5   5511618.659 3
 89 11 20 15  9 59.0800000  0  4G13G12G 3G 9
  21582435.714    21582439.359   -42524811.751 9  25998598.798 8
  21451221.155    21451221.896   -84551683.471 9 116059997.233 9
  21411755.343    21411756.617   -87790713.251 9  84136426.843 8
  24805050.926    24805054.675    -1503131.358 5   5609007.265 3
 89 11 20 15 10 29.0800000  0  4G13G12G 3G 9
  21591176.984    21591178.182   -42478883.234 9  26034387.143 8
  21465347.146    21465350.362   -84477441.365 9 116117848.093 9
  21407341.495    21407342.755   -87813909.297 9  84118351.970 8
  24828835.431    24828840.210    -1378139.691 5   5706403.065 3
 89 11 20 15 10 59.0800000  0  4G13G12G 3G 9
  21599933.251    21599937.725   -42432865.697 9  26070244.829 7
  21479564.294    21479569.369   -84402725.467 9 116176068.172 9
  21402963.415    21402966.081   -87836915.970 9  84100424.647 8
  24852623.062    24852624.955    -1253141.269 3   5803804.150 1
 89 11 20 15 11 29.0800000  0  4G13G12G 3G 9
  21608708.349    21608711.550   -42386759.676 9  26106171.486 8
  21493872.226    21493876.270   -84327538.022 9 116234655.727 9
  21398621.465    21398623.712   -87859733.360 9  84082644.837 9
  24876409.225    24876415.491    -1128138.838 3   5901208.342 3
 89 11 20 15 11 59.0800000  0  4G13G12G 3G 9
  21617498.114    21617498.882   -42340566.477 9  26142166.083 8
  21508267.842    21508271.395   -84251882.405 9 116293608.051 8
  21394315.098    21394316.399   -87882363.003 9  84065011.296 8
  24900194.779    24900203.700    -1003136.068 2   5998612.787 3
 89 11 20 15 12 29.0800000  0  4G13G12G 3G 9
  21626304.549    21626307.620   -42294286.295 9  26178228.462 7
  21522754.524    21522759.149   -84175761.626 9 116352922.860 9
  21390045.441    21390045.727   -87904805.669 9  84047523.443 9
  24923980.327    24923986.261     -878136.123 1   6096015.027 2
 89 11 20 15 12 59.0800000  0  4G13G12G 3G 9
  21635128.697    21635131.355   -42247921.014 9  26214357.157 8
  21537329.373    21537330.105   -84099178.415 9 116412597.982 8
  21385809.295    21385810.803   -87927062.485 9  84030180.427 8
  24947771.678    24947775.379     -753142.785 1   6193412.135 1
 89 11 20 15 13 29.0800000  0  4G13G12G 3G 9
  21643966.971    21643969.742   -42201471.379 9  26250551.569 8
  21551990.017    21551995.045   -84022135.273 6 116472631.452 6
  21381609.118    21381610.880   -87949133.276 9  84012982.351 8
                  24971560.669                     6290802.264 1
 89 11 20 15 13 59.0800000  0  3G13G12G 3
  21652822.701    21652825.241   -42154936.882 9  26286812.108 8
  21566736.837    21566740.736   -83944634.098 9 116533021.947 9
  21377445.871    21377446.329   -87971017.867 9  83995929.364 9
 89 11 20 15 14 29.0800000  0  3G13G12G 3
  21661693.383    21661696.969   -42108318.389 9  26323138.122 8
  21581572.606    21581574.887   -83866678.468 9 116593766.456 8
  21373315.447    21373317.326   -87992717.730 9  83979020.336 9
 89 11 20 15 14 59.0800000  0  3G13G12G 3
  21670580.594    21670582.978   -42061618.107 9  26359527.848 9
  21596494.087    21596493.993   -83788272.294 9 116654862.107 8
  21369221.608    21369223.376   -88014234.471 9  83962253.976 8
 89 11 20 15 15 29.0800000  0  3G13G12G 3
  21679484.516    21679484.899   -42014836.360 9  26395981.059 7
  21611495.452    21611500.920   -83709418.034 1 116716306.826 1
  21365161.242    21365163.061   -88035568.292 9  83945630.159 9
 89 11 20 15 15 59.0800000  0  3G13G12G 3
  21688400.144    21688403.130   -41967973.035 9  26432497.816 7
  21626588.336    21626592.013   -83630117.816 9 116778099.116 9
  21361136.077    21361138.445   -88056719.222 9  83929148.851 9
 89 11 20 15 16 29.0800000  0  3G13G12G 3
  21697334.960    21697337.474   -41921028.321 9  26469077.997 9
  21641761.336    21641764.794   -83550373.989 9 116840237.096 9
  21357146.960    21357149.071   -88077687.086 9  83912810.211 8
 89 11 20 15 16 59.0800000  0  3G13G12G 3
  21706281.726    21706283.811   -41874004.636 9  26505719.724 8
  21657023.212    21657024.356   -83470190.817 9 116902717.375 9
  21353190.366    21353193.598   -88098474.178 9  83896612.426 8
 89 11 20 15 17 29.0800000  0  3G13G12G 3
  21715245.203    21715250.924   -41826901.753 9  26542423.169 8
  21672362.989    21672366.006   -83389570.857 1 116965538.019 1
  21349269.583    21349271.988   -88119080.551 9  83880555.442 8
 89 11 20 15 17 59.0800000  0  3G13G12G 3
  21724224.293    21724228.023   -41779720.664 9  26579187.550 8
  21687783.421    21687788.448   -83308517.039 8 117028696.711 8
  21345383.237    21345385.224   -88139506.596 9  83864638.985 8
 89 11 20 15 18 29.0800000  0  3G13G12G 3
  21733217.034    21733220.578   -41732461.602 9  26616012.656 7
  21703294.040    21703297.363   -83227032.083 9 117092191.405 9
  21341530.287    21341531.869   -88159753.144 9  83848862.410 8
 89 11 20 15 18 59.0800000  0  3G13G12G 3
  21742225.485    21742230.045   -41685124.624 9  26652898.524 9
  21718881.356    21718883.672   -83145118.358 9 117156020.176 9
  21337711.192    21337713.882   -88179820.254 8  83833225.647 9
 89 11 20 15 19 29.0800000  0  3G13G12G 3
  21751246.846    21751251.161   -41637710.610 9  26689844.399 8
  21734548.767    21734553.553   -83062779.261 1 117220180.419 1
  21333926.840    21333929.992   -88199708.692 9  83817728.114 9
 89 11 20 15 19 59.0800000  0  3G13G12G 3
  21760283.757    21760288.156   -41590221.470 9  26726848.827 7
  21750299.564    21750300.422   -82980018.373 8 117284669.344 9
  21330176.005    21330178.359   -88219420.061 9  83802368.558 8
 89 11 20 15 20 29.0800000  0  3G13G12G 3
  21769338.772    21769339.954   -41542658.027 9  26763911.154 8
  21766127.533    21766132.154   -82896838.505 9 117349484.700 9
  21326458.523    21326461.346   -88238954.778 9  83787146.648 9
 89 11 20 15 20 59.0800000  0  3G13G12G 3
  21778403.401    21778404.281   -41495018.967 9  26801032.389 8
  21782036.096    21782037.555   -82813241.396 8 117414625.222 8
  21322774.957    21322777.179   -88258312.254 9  83772062.842 8
 89 11 20 15 21 29.0800000  0  3G13G12G 3
  21787479.521    21787484.898   -41447305.159 9  26838211.878 8
  21798021.017    21798025.775   -82729230.105 9 117480088.416 8
  21319126.352    21319127.436   -88277492.669 9  83757117.016 8
 89 11 20 15 21 59.0800000  0  3G13G12G 3
  21796574.858    21796578.933   -41399518.731 9  26875447.983 8
  21814086.388    21814091.010   -82644809.427 9 117545870.676 9
  21315509.926    21315511.430   -88296498.565 9  83742307.166 8
 89 11 20 15 22 29.0800000  0  3G13G12G 3
  21805681.027    21805686.789   -41351659.751 9  26912740.598 8
  21830228.779    21830232.629   -82559982.063 9 117611969.828 9
  21311925.246    21311927.018   -88315329.729 9  83727633.475 9
 89 11 20 15 22 59.0800000  0  3G13G12G 3
  21814802.235    21814805.666   -41303728.257 9  26950089.712 7
  21846448.412    21846450.937   -82474750.528 9 117678383.918 9
  21308374.582    21308377.786   -88333986.621 9  83713095.579 8
 89 11 20 15 23 29.0800000  0  3G13G12G 3
  21823938.527    21823942.400   -41255724.377 9  26987495.214 8
  21862745.491    21862747.575   -82389117.403 9 117745110.928 8
  21304857.527    21304860.697   -88352469.161 9  83698693.544 8
 89 11 20 15 23 59.0800000  0  3G13G12G 3
  21833087.407    21833090.036   -41207649.530 9  27024956.048 8
  21879114.370    21879119.034   -82303086.640 9 117812147.769 9
  21301373.775    21301375.686   -88370778.936 9  83684426.126 9
 89 11 20 15 24 29.0800000  0  3G13G12G 3
  21842250.628    21842251.526   -41159504.441 9  27062471.588 8
  21895560.304    21895564.180   -82216661.464 9 117879491.952 9
  21297922.200    21297924.150   -88388916.333 9  83670293.036 8
 89 11 20 15 24 59.0800000  0  3G13G12G 3
  21851422.476    21851427.235   -41111288.935 9  27100041.999 8
  21912080.198    21912087.775   -82129844.411 9 117947141.464 9
  21294503.380    21294505.352   -88406881.481 9  83656294.161 9
 89 11 20 15 25 29.0800000  0  3G13G12G 3
  21860611.109    21860617.200   -41063003.157 9  27137667.196 7
  21928676.062    21928680.671   -82042638.569 9 118015094.018 9
  21291117.541    21291119.695   -88424675.121 9  83642428.931 8
 89 11 20 15 25 59.0800000  0  3G13G12G 3
  21869815.526    21869816.409   -41014648.341 9  27175346.170 8
  21945346.321    21945347.946   -81955047.069 9 118083346.990 9
  21287764.908    21287767.494   -88442297.660 9  83628697.024 8
 89 11 20 15 26 29.0800000  0  3G13G12G 3
  21879030.073    21879032.243   -40966225.035 9  27213078.501 7
  21962086.399    21962089.169   -81867072.827 8 118151898.266 9
  21284444.127    21284445.827   -88459749.614 9  83615098.043 8
 89 11 20 15 26 59.0800000  0  3G13G12G 3
  21888255.725    21888259.842   -40917734.303 9  27250863.394 8
  21978900.021    21978901.924   -81778719.591 9 118220744.844 9
  21281154.378    21281156.757   -88477032.056 9  83601631.133 8
 89 11 20 15 27 29.0800000  0  3G13G12G 3
  21897496.458    21897501.890   -40869176.111 9  27288700.838 8
  21995782.456    21995786.655   -81689989.767 9 118289884.811 9
  21277897.778    21277900.382   -88494144.986 9  83588296.318 9
 89 11 20 15 27 59.0800000  0  3G13G12G 3
  21906748.982    21906754.557   -40820550.423 9  27326590.873 8
  22012739.170    22012743.891   -81600886.868 9 118359315.572 9
  21274673.948    21274676.091   -88511088.895 9  83575093.201 8
 89 11 20 15 28 29.0800000  0  3G13G12G 3
  21916016.514    21916021.246   -40771859.146 9  27364531.999 8
  22029766.449    22029770.313   -81511415.231 9 118429033.581 9
  21271481.642    21271484.468   -88527865.757 9  83562020.259 8
 89 11 20 15 28 59.0800000  0  3G13G12G 3
  21925293.078    21925296.411   -40723100.825 9  27402525.386 7
  22046862.362    22046865.932   -81421576.340 9 118499037.802 9
  21268320.489    21268322.586   -88544474.445 9  83549078.360 7
 89 11 20 15 29 29.0800000  0  3G13G12G 3
  21934586.526    21934589.969   -40674277.199 9  27440569.650 8
  22064027.782    22064029.649   -81331373.571 9 118569325.550 9
  21265192.058    21265194.646   -88560915.681 9  83536266.945 7
 89 11 20 15 29 59.0800000  0  3G13G12G 3
  21943887.701    21943892.348   -40625387.247 9  27478665.572 9
  22081259.495    22081264.933   -81240809.590 9 118639894.764 9
  21262095.694    21262096.971   -88577189.341 9  83523586.107 8
 89 11 20 15 30 29.0800000  0  3G13G12G 3
  21953204.029    21953207.115   -40576433.574 9  27516811.166 8
  22098560.734    22098564.303   -81149889.394 8 118710741.597 9
  21259030.132    21259032.445   -88593297.799 9  83511034.017 8
 89 11 20 15 30 59.0800000  0  3G13G12G 3
  21962532.065    21962535.795   -40527415.204 9  27555007.145 7
  22115930.975    22115936.361   -81058614.388 9 118781864.791 9
  21255996.577    21255998.570   -88609239.738 9  83498611.661 8
 89 11 20 15 31 29.0800000  0  3G13G12G 3
  21971872.031    21971876.319   -40478332.077 9  27593253.611 8
  22133367.032    22133371.538   -80966987.819 9 118853262.054 9
  21252994.603    21252997.238   -88625015.587 9  83486318.750 9
 89 11 20 15 31 59.0800000  0  3G13G12G 3
  21981225.190    21981230.525   -40429186.277 9  27631548.887 8
  22150869.198    22150873.353   -80875014.897 9 118924929.123 9
  21250023.158    21250025.938   -88640627.658 9  83474153.456 8
 89 11 20 15 32 29.0800000  0  3G13G12G 3
  21990587.609    21990592.369   -40379977.120 9  27669893.557 7
  22168436.920    22168441.442   -80782698.064 9 118996864.193 9
  21247084.339    21247086.343   -88656075.716 9  83462115.942 9
 89 11 20 15 32 59.0800000  0  3G13G12G 3
  21999965.983    21999970.986   -40330704.262 9  27708287.830 8
  22186068.218    22186072.390   -80690039.226 9 119069065.735 8
  21244175.545    21244177.866   -88671359.086 9  83450206.760 9
 89 11 20 15 33 29.0800000  0  3G13G12G 3
  22009352.912    22009357.617   -40281369.613 9  27746730.284 9
  22203765.719    22203769.427   -80597043.333 9 119141529.948 9
  21241299.275    21241300.303   -88686479.651 9  83438424.462 8
 89 11 20 15 33 59.0800000  0  3G13G12G 3
  22018755.138    22018758.152   -40231973.516 9  27785220.610 7
  22221526.330    22221529.986   -80503713.546 9 119214254.342 9
  21238451.824    21238454.549   -88701437.947 9  83426768.580 8
 89 11 20 15 34 29.0800000  0  3G13G12G 3
  22028163.936    22028170.425   -40182514.937 9  27823759.606 8
  22239349.881    22239353.658   -80410051.898 9 119287237.270 9
  21235637.515    21235639.031   -88716233.089 9  83415239.844 9
 89 11 20 15 34 59.0800000  0  3G13G12G 3
  22037589.040    22037592.769   -40132994.955 9  27862346.478 8
  22257233.128    22257239.618   -80316062.094 9 119360475.962 9
  21232852.715    21232855.002   -88730866.067 9  83403837.461 8
 89 11 20 15 35 29.0800000  0  3G13G12G 3
  22047024.465    22047029.452   -40083413.893 9  27900980.922 7
  22275182.428    22275187.321   -80221747.919 9 119433967.389 8
  21230098.130    21230101.321   -88745337.683 9  83392560.816 8
 89 11 20 15 35 59.0800000  0  3G13G12G 3
  22056470.048    22056473.920   -40033772.480 9  27939662.407 8
  22293191.060    22293194.896   -80127112.416 9 119507709.174 9
  21227375.255    21227377.922   -88759648.447 9  83381409.506 7
 89 11 20 15 36 29.0800000  0  3G13G12G 3
  22065929.627    22065932.382   -39984069.825 9  27978391.605 8
  22311259.197    22311265.442   -80032158.301 9 119581699.303 9
  21224682.860    21224685.488   -88773797.931 9  83370383.869 8
 89 11 20 15 36 59.0800000  0  3G13G12G 3
  22075397.315    22075403.063   -39934307.244 9  28017167.490 7
  22329390.360    22329393.529   -79936888.826 9 119655935.083 9
  21222020.414    21222023.300   -88787786.915 9  83359483.304 8
 89 11 20 15 37 29.0800000  0  3G13G12G 3
  22084879.519    22084884.475   -39884484.986 9  28055989.936 8
  22347577.793    22347583.016   -79841307.995 9 119730413.523 9
  21219389.089    21219391.447   -88801616.216 9  83348707.163 8
 89 11 20 15 37 59.0800000  0  3G13G12G 3
  22094369.172    22094376.337   -39834603.208 9  28094858.703 8
  22365825.968    22365829.537   -79745418.824 9 119805132.203 9
  21216788.156    21216790.653   -88815285.886 9  83338055.394 8
 89 11 20 15 38 29.0800000  0  3G13G12G 3
  22103874.640    22103880.444   -39784662.400 9  28133773.528 8
  22384130.358    22384134.499   -79649224.706 9 119880088.527 8
  21214217.587    21214219.083   -88828796.618 9  83327527.500 8
 89 11 20 15 38 59.0800000  0  3G13G12G 3
  22113389.380    22113394.769   -39734661.637 9  28172734.999 9
  22402493.628    22402497.635   -79552727.836 9 119955280.778 9
  21211677.450    21211677.954   -88842147.797 9  83317123.924 9
 89 11 20 15 39 29.0800000  0  3G13G12G 3
  22122915.882    22122918.998   -39684601.871 9  28211742.518 7
  22420913.407    22420917.060   -79455932.488 9 120030705.571 9
  21209166.005    21209168.806   -88855340.420 9  83306843.898 8
 89 11 20 15 39 59.0800000  0  3G13G12G 3
  22132455.118    22132458.105   -39634485.205 9  28250794.331 8
  22439389.141    22439393.562   -79358844.020 9 120106358.829 9
  21206685.156    21206688.495   -88868376.866 9  83296685.566 7
 89 11 20 15 40 29.0800000  0  3G13G12G 3
  22141999.550    22142004.768   -39584310.527 9  28289891.362 7
  22457918.249    22457924.645   -79261463.891 9 120182239.263 9
  21204234.707    21204237.347   -88881255.558 9  83286650.149 8
 89 11 20 15 40 59.0800000  0  3G13G12G 3
  22151560.879    22151565.226   -39534077.283 9  28329034.040 8
  22476504.900    22476510.110   -79163794.725 9 120258344.990 9
  21201813.649    21201816.874   -88893976.684 9  83276737.511 8
 89 11 20 15 41 29.0800000  0  3G13G12G 3
  22161129.707    22161135.014   -39483785.917 9  28368222.006 8
  22495145.170    22495150.938   -79065840.724 9 120334672.653 9
  21199423.022    21199426.376   -88906540.786 8  83266947.250 8
 89 11 20 15 41 59.0800000  0  3G13G12G 3
  22170712.376    22170716.134   -39433436.847 9  28407454.921 8
  22513838.999    22513845.429   -78967604.929 9 120411219.862 9
  21197062.335    21197065.200   -88918948.664 9  83257278.709 9
 89 11 20 15 42 29.0800000  0  3G13G12G 3
  22180303.311    22180304.522   -39383030.776 9  28446732.262 7
  22532585.763    22532590.801   -78869090.577 9 120487984.191 8
  21194731.300    21194733.526   -88931200.015 9  83247732.149 8
 89 11 20 15 42 59.0800000  0  3G13G12G 3
  22189909.156    22189912.543   -39332568.151 9  28486053.663 9
  22551384.907    22551390.745   -78770301.475 9 120564962.536 9
  21192429.104    21192430.764   -88943296.119 9  83238306.542 8
 89 11 20 15 43 29.0800000  0  3G13G12G 3
  22199521.498    22199523.770   -39282048.157 9  28525419.746 9
  22570236.801    22570240.500   -78671240.617 9 120642152.667 8
  21190157.817    21190160.075   -88955236.450 9  83229002.316 9
 89 11 20 15 43 59.0800000  0  3G13G12G 3
  22209144.360    22209149.879   -39231470.544 9  28564830.729 7
  22589137.178    22589142.850   -78571911.269 9 120719552.078 9
  21187915.223    21187916.426   -88967021.109 9  83219819.401 9
 89 11 20 15 44 29.0800000  0  3G13G12G 3
  22218782.702    22218784.657   -39180836.282 9  28604285.883 7
  22608089.850    22608095.705   -78472316.501 9 120797158.206 9
  21185700.449    21185702.864   -88978650.799 9  83210757.246 8
 89 11 20 15 44 59.0800000  0  3G13G12G 3
  22228427.369    22228431.802   -39130145.219 9  28643785.241 8
  22627089.824    22627096.871   -78372460.231 8 120874968.145 9
  21183517.737    21183520.598   -88990126.080 9  83201815.400 8
 89 11 20 15 45 29.0800000  0  3G13G12G 3
  22238084.015    22238088.156   -39079398.992 9  28683327.644 8
  22646143.571    22646148.916   -78272347.198 9 120952978.150 9
  21181362.601    21181365.142   -89001448.447 9  83192992.717 8
 89 11 20 15 45 59.0800000  0  3G13G12G 3
  22247754.236    22247756.851   -39028596.114 9  28722914.140 8
  22665241.306    22665247.758   -78171978.787 9 121031187.135 9
  21179237.896    21179241.843   -89012616.327 9  83184290.411 9
 89 11 20 15 46 29.0800000  0  3G13G12G 3
  22257427.322    22257432.926   -38977736.555 9  28762544.822 7
  22684390.067    22684395.868   -78071358.447 9 121109592.424 9
  21177142.773    21177146.143   -89023630.011 9  83175708.242 8
 89 11 20 15 46 59.0800000  0  3G13G12G 3
  22267120.856    22267124.054   -38926821.397 9  28802218.820 8
  22703584.194    22703589.173   -77970490.241 9 121188190.917 9
  21175076.328    21175077.791   -89034490.507 9  83167245.445 8
 89 11 20 15 47 29.0800000  0  3G13G12G 3
  22276816.306    22276825.459   -38875851.739 8  28841935.284 9
  22722826.406    22722831.495   -77869378.310 9 121266979.238 9
  21173038.355    21173040.517   -89045198.834 9  83158901.209 8
 89 11 20 15 47 59.0800000  0  3G13G12G 3
  22286527.095    22286530.127   -38824826.193 9  28881695.299 8
  22742112.435    22742117.888   -77768024.793 9 121345955.822 9
  21171029.358    21171031.294   -89055754.180 9  83150676.200 8
 89 11 20 15 48 29.0800000  0  3G13G12G 3
  22296245.484    22296252.447   -38773744.294 9  28921499.282 8
  22761445.249    22761451.244   -77666432.151 9 121425118.796 9
  21169049.964    21169051.887   -89066155.983 9  83142570.835 8
 89 11 20 15 48 59.0800000  0  3G13G12G 3
  22305977.609    22305986.961   -38722607.094 9  28961346.276 8
  22780822.290    22780829.252   -77564605.784 9 121504463.788 9
  21167099.224    21167102.114   -89076406.474 9  83134583.363 8
 89 11 20 15 49 29.0800000  0  3G13G12G 3
  22315723.000    22315723.397   -38671414.530 9  29001236.522 8
  22800242.697    22800249.408   -77462548.427 8 121583988.816 9
  21165178.579    21165180.573   -89086504.781 9  83126714.488 8
 89 11 20 15 49 59.0800000  0  3G13G12G 3
  22325472.966    22325478.143   -38620166.131 9  29041170.214 8
  22819708.291    22819714.315   -77360263.085 9 121663691.555 9
  21163285.808    21163288.035   -89096451.048 9  83118964.079 8
 89 11 20 15 50 29.0800000  0  3G13G12G 3
  22335240.594    22335244.425   -38568862.919 9  29081146.584 8
  22839214.246    22839221.427   -77257754.064 9 121743568.496 9
  21161421.349    21161424.852   -89106246.260 9  83111331.353 8
 89 11 20 15 50 59.0800000  0  3G13G12G 3
  22345008.106    22345012.908   -38517503.493 9  29121166.808 8
  22858765.044    22858769.465   -77155023.376 9 121823618.212 9
  21159586.871    21159589.543   -89115889.374 9  83103817.178 9
 89 11 20 15 51 29.0800000  0  3G13G12G 3
  22354794.133    22354799.879   -38466089.986 9  29161229.138 7
  22878354.349    22878360.280   -77052076.072 9 121903836.711 9
  21157779.945    21157782.868   -89125382.470 9  83096419.885 8
 89 11 20 15 51 59.0800000  0  3G13G12G 3
  22364587.158    22364593.091   -38414621.973 9  29201333.966 8
  22897984.642    22897991.796   -76948914.877 9 121984221.843 9
  21156002.767    21156005.025   -89134724.813 9  83089140.079 9
 89 11 20 15 52 29.0800000  0  3G13G12G 3
  22374391.932    22374395.916   -38363098.200 8  29241482.244 7
  22917657.726    22917662.749   -76845542.895 9 122064771.269 9
  21154253.031    21154255.869   -89143916.281 9  83081977.852 8
 89 11 20 15 52 59.0800000  0  3G13G12G 3
  22384207.907    22384214.628   -38311519.570 9  29281673.258 8
  22937366.794    22937374.112   -76741963.573 9 122145482.215 9
  21152531.807    21152535.284   -89152957.339 9  83074932.816 8
 89 11 20 15 53 29.0800000  0  3G13G12G 3
  22394032.857    22394038.147   -38259886.504 8  29321906.699 8
  22957116.575    22957121.311   -76638180.911 9 122226351.646 8
  21150841.157    21150844.366   -89161848.481 9  83068004.602 9
 89 11 20 15 53 59.0800000  0  3G13G12G 3
  22403869.153    22403873.142   -38208198.251 9  29362183.115 8
  22976904.149    22976910.831   -76534197.805 9 122307377.249 9
  21149178.200    21149180.931   -89170589.690 9  83061193.197 8
 89 11 20 15 54 29.0800000  0  3G13G12G 3
  22413715.680    22413721.269   -38156453.612 8  29402503.494 8
  22996729.232    22996736.244   -76430016.136 9 122388557.569 9
  21147543.292    21147545.807   -89179179.730 9  83054499.600 8
 89 11 20 15 54 59.0800000  0  3G13G12G 3
  22423573.096    22423577.381   -38104654.346 9  29442866.360 8
  23016590.585    23016598.061   -76325641.235 9 122469888.461 8
  21145935.864    21145939.674   -89187620.351 9  83047922.437 8
 89 11 20 15 55 29.0800000  0  3G13G12G 3
  22433439.442    22433448.207   -38052801.222 9  29483271.263 8
  23036489.425    23036497.245   -76221076.842 9 122551367.002 8
  21144359.223    21144363.149   -89195912.128 9  83041461.257 8
 89 11 20 15 55 59.0800000  0  3G13G12G 3
  22443317.332    22443323.294   -38000892.863 8  29523719.188 7
  23056422.967    23056429.635   -76116325.146 9 122632991.444 9
  21142810.263    21142813.287   -89204054.137 9  83035116.787 8
 89 11 20 15 56 29.0800000  0  3G13G12G 3
  22453205.097    22453214.323   -37948929.171 9  29564210.221 7
  23076391.687    23076398.476   -76011389.563 9 122714759.190 9
  21141288.499    21141291.509   -89212046.568 9  83028888.879 8
 89 11 20 15 56 59.0800000  0  3G13G12G 3
  22463104.957    22463110.247   -37896910.621 9  29604743.982 8
  23096395.078    23096401.759   -75906274.761 9 122796666.634 9
  21139796.719    21139799.695   -89219890.510 9  83022776.680 8
 89 11 20 15 57 29.0800000  0  3G13G12G 3
  22473015.388    22473021.365   -37844837.742 9  29645320.120 8
  23116431.030    23116437.313   -75800984.348 9 122878710.895 9
  21138331.879    21138334.642   -89227586.605 9  83016779.650 8
 89 11 20 15 57 59.0800000  0  3G13G12G 3
  22482934.463    22482938.350   -37792709.537 9  29685939.352 8
  23136501.504    23136506.942   -75695520.216 9 122960890.525 9
  21136896.812    21136898.236   -89235133.324 9  83010899.031 9
 89 11 20 15 58 29.0800000  0  3G13G12G 3
  22492866.416    22492873.022   -37740524.471 8  29726602.847 9
  23156602.069    23156608.084   -75589884.879 9 123043203.551 9
  21135488.226    21135490.678   -89242529.682 9  83005135.583 8
 89 11 20 15 58 59.0800000  0  3G13G12G 3
  22502804.837    22502810.013   -37688284.022 8  29767309.515 8
  23176736.840    23176741.310   -75484083.242 9 123125646.191 8
  21134109.670    21134112.085   -89249777.411 9  82999487.945 9
 89 11 20 15 59 29.0800000  0  3G13G12G 3
  22512759.856    22512763.858   -37635988.958 9  29808058.770 8
  23196900.337    23196906.776   -75378119.269 9 123208215.284 9
  21132758.739    21132761.208   -89256877.228 9  82993955.553 7
 89 11 20 15 59 59.0800000  0  3G13G12G 3
  22522720.242    22522727.032   -37583638.504 8  29848851.156 8
  23217094.728    23217101.874   -75271996.050 9 123290908.423 9
  21131435.558    21131438.437   -89263828.872 9  82988538.622 8
 89 11 20 16  0 29.0800000  0  3G13G12G 3
  22532693.489    22532699.538   -37531232.638 9  29889686.730 9
  23237320.062    23237326.359   -75165716.621 9 123373723.316 8
  21130140.599    21130144.196   -89270632.274 9  82983237.203 9
 89 11 20 16  0 59.0800000  0  3G13G12G 3
  22542675.068    22542684.037   -37478771.032 9  29930565.721 8
  23257573.314    23257581.470   -75059284.254 9 123456657.386 9
  21128874.321    21128878.209   -89277287.472 9  82978051.252 8
 89 11 20 16  1 29.0800000  0  3G13G12G 3
  22552670.911    22552675.312   -37426253.691 9  29971488.170 7
  23277854.862    23277862.481   -74952702.273 9 123539708.028 9
  21127636.157    21127639.139   -89283793.860 9  82972981.270 8
 89 11 20 16  1 59.0800000  0  3G13G12G 3
  22562674.151    22562680.844   -37373680.354 9  30012454.237 7
  23298164.942    23298171.440   -74845973.758 9 123622872.853 9
  21126426.601    21126428.107   -89290151.604 9  82968027.101 9
 89 11 20 16  2 29.0800000  0  3G13G12G 3
  22572688.970    22572695.105   -37321050.826 9  30053464.094 7
  23318501.379    23318508.576   -74739102.656 9 123706148.827 8
  21125245.094    21125248.114   -89296361.322 9  82963188.286 9
 89 11 20 16  2 59.0800000  0  3G13G12G 3
  22582714.390    22582722.897   -37268366.540 9  30094516.602 8
  23338865.027    23338870.680   -74632093.389 8 123789532.443 8
  21124091.156    21124094.888   -89302424.017 8  82958464.033 8
 89 11 20 16  3 29.0800000  0  3G13G12G 3
  22592753.333    22592757.708   -37215625.635 9  30135613.263 7
  23359254.825    23359262.150   -74524948.015 7 123873022.081 9
  21122965.525    21122968.599   -89308338.302 9  82953855.408 9
 89 11 20 16  3 59.0800000  0  3G13G12G 3
  22602799.614    22602806.021   -37162827.814 9  30176754.239 8
  23379669.103    23379677.161   -74417669.682 9 123956615.282 9
  21121868.595    21121872.159   -89314104.159 9  82949362.466 9
 89 11 20 16  4 29.0800000  0  3G13G12G 3
  22612854.400    22612863.038   -37109973.892 8  30217938.930 7
  23400109.112    23400115.823   -74310262.520 9 124040308.920 9
  21120800.531    21120803.504   -89319722.345 9  82944984.585 8
 89 11 20 16  4 59.0800000  0  3G13G12G 3
  22622928.684    22622930.555   -37057062.521 9  30259168.443 8
  23420572.322    23420578.962   -74202728.938 9 124124101.054 9
  21119759.040    21119761.983   -89325191.781 9  82940722.614 8
 89 11 20 16  5 29.0800000  0  3G13G12G 3
  22633000.526    22633012.811   -37004094.882 8  30300441.730 8
  23441059.651    23441065.418   -74095073.661 9 124207988.008 9
  21118746.497    21118748.912   -89330513.967 9  82936575.392 8
 89 11 20 16  5 59.0800000  0  3G13G12G 3
  22643096.190    22643098.676   -36951071.457 9  30341758.581 8
  23461566.964    23461574.531   -73987300.568 9 124291966.763 9
  21117762.140    21117763.655   -89335689.094 9  82932542.746 9
 89 11 20 16  6 29.0800000  0  3G13G12G 3
  22653193.241    22653203.569   -36897990.138 9  30383120.480 8
  23482097.377    23482104.838   -73879411.557 9 124376035.830 7
  21116805.188    21116808.403   -89340715.543 9  82928625.958 8
 89 11 20 16  6 59.0800000  0  3G13G12G 3
  22663310.040    22663313.413   -36844851.358 9  30424527.182 8
  23502650.148    23502657.023   -73771410.141 9 124460192.501 9
  21115876.636    21115879.822   -89345593.254 9  82924825.075 8
 89 11 20 16  7 29.0800000  0  3G13G12G 3
  22673431.045    22673437.702   -36791654.416 9  30465979.175 9
  23523222.388    23523230.650   -73663299.763 9 124544434.074 9
  21114976.665    21114980.301   -89350322.627 9  82921139.794 8
 89 11 20 16  7 59.0800000  0  3G13G12G 3
  22683567.230    22683573.268   -36738399.061 9  30507476.666 8
  23543816.857    23543823.467   -73555083.598 9 124628758.076 9
  21114105.620    21114108.373   -89354903.054 9  82917570.559 8
 89 11 20 16  8 29.0800000  0  3G13G12G 3
  22693709.356    22693717.383   -36685087.659 9  30549017.871 8
  23564427.903    23564436.580   -73446766.737 9 124713160.531 9
  21113263.394    21113265.291   -89359336.996 9  82914115.489 8
 89 11 20 16  8 59.0800000  0  3G13G12G 3
  22703867.109    22703874.594   -36631718.195 9  30590604.336 8
  23585060.219    23585067.875   -73338351.384 9 124797639.725 9
  21112446.365    21112449.918   -89363622.821 9  82910775.825 7
 89 11 20 16  9 29.0800000  0  3G13G12G 3
  22714033.922    22714040.811   -36578290.121 9  30632236.418 9
  23605707.368    23605716.605   -73229840.570 9 124882193.317 9
  21111658.322    21111662.315   -89367760.158 9  82907551.868 9
 89 11 20 16  9 59.0800000  0  3G13G12G 3
  22724213.567    22724217.483   -36524803.159 9  30673914.416 8
  23626374.840    23626383.598   -73121237.636 8 124966818.661 9
  21110900.106    21110903.131   -89371748.930 9  82904443.689 8
 89 11 20 16 10 29.0800000  0  3G13G12G 3
  22734403.204    22734408.515   -36471257.803 9  30715637.921 8
  23647058.405    23647066.997   -73012546.079 9 125051513.029 8
  21110169.442    21110172.193   -89375589.279 9  82901451.174 8
 89 11 20 16 10 59.0800000  0  3G13G12G 3
  22744602.855    22744611.051   -36417653.218 9  30757407.524 8
  23667758.627    23667765.932   -72903768.934 9 125136274.128 9
  21109467.053    21109470.298   -89379281.087 9  82898574.373 8
 89 11 20 16 11 29.0800000  0  3G13G12G 3
  22754817.375    22754820.085   -36363989.707 9  30799223.174 7
  23688472.386    23688482.415   -72794909.419 9 125221099.413 8
  21108794.305    21108796.103   -89382823.976 9  82895813.628 8
 89 11 20 16 11 59.0800000  0  3G13G12G 3
  22765035.196    22765045.856   -36310266.467 9  30841085.220 8
  23709204.451    23709212.863   -72685971.427 8 125305985.863 9
  21108146.648    21108149.814   -89386218.207 9  82893168.717 8
 89 11 20 16 12 29.0800000  0  3G13G12G 3
  22775272.760    22775281.266   -36256483.780 9  30882993.614 8
  23729948.465    23729957.856   -72576958.941 9 125390930.353 8
  21107529.656    21107532.536   -89389464.210 9  82890639.308 8
 89 11 20 16 12 59.0800000  0  3G13G12G 3
  22785517.162    22785523.878   -36202641.027 8  30924948.856 8
  23750707.045    23750715.930   -72467874.599 9 125475930.818 8
  21106939.537    21106943.042   -89392561.165 9  82888226.042 8
 89 11 20 16 13 29.0800000  0  3G13G12G 3
  22795773.912    22795783.769   -36148737.807 8  30966951.205 8
  23771478.956    23771487.642   -72358721.182 8 125560985.112 9
  21106379.381    21106382.318   -89395508.490 9  82885929.381 9
 89 11 20 16 13 59.0800000  0  3G13G12G 3
  22806043.253    22806052.564   -36094774.307 8  31009000.494 8
  23792262.351    23792270.897   -72249502.720 9 125646090.070 9
  21105846.174    21105850.691   -89398306.870 9  82883748.767 8
 89 11 20 16 14 29.0800000  0  3G13G12G 3
  22816326.581    22816333.372   -36040750.476 8  31051096.784 8
  23813058.249    23813066.432   -72140222.583 9 125731243.045 9
  21105341.689    21105346.296   -89400956.167 9  82881684.332 8
 89 11 20 16 14 59.0800000  0  3G13G12G 3
  22826615.241    22826623.856   -35986665.453 9  31093240.773 8
  23833865.624    23833874.252   -72030883.791 8 125816441.723 9
  21104866.959    21104870.315   -89403455.757 9  82879736.520 8
 89 11 20 16 15 29.0800000  0  3G13G12G 3
  22836921.385    22836928.471   -35932518.655 8  31135432.884 8
  23854682.785    23854691.480   -71921489.321 9 125901683.802 9
  21104419.217    21104422.891   -89405805.220 9  82877905.711 8
 89 11 20 16 15 59.0800000  0  3G13G12G 3
  22847236.797    22847245.675   -35878311.031 9  31177672.364 9
  23875509.965    23875518.149   -71812043.177 9 125986966.145 9
  21104000.350    21104004.523   -89408005.177 9  82876191.397 9
 89 11 20 16 16 29.0800000  0  3G13G12G 3
  22857561.989    22857572.285   -35824041.820 9  31219959.891 8
  23896346.496    23896355.205   -71702549.064 9 126072285.884 9
  21103610.300    21103616.144   -89410055.568 9  82874593.635 9
 89 11 20 16 16 59.0800000  0  3G13G12G 3
  22867902.447    22867912.483   -35769709.788 9  31262296.331 8
  23917190.345    23917199.417   -71593009.233 9 126157641.252 8
  21103249.625    21103253.660   -89411955.621 9  82873113.020 8
 89 11 20 16 17 29.0800000  0  3G13G12G 3
  22878256.876    22878263.740   -35715315.159 9  31304681.552 8
  23938043.575    23938053.999   -71483427.060 9 126243029.605 8
  21102916.374    21102919.748   -89413704.829 9  82871749.923 9
 89 11 20 16 17 59.0800000  0  3G13G12G 3
  22888619.698    22888623.805   -35660858.621 8  31347115.103 8
  23958903.128    23958914.298   -71373806.561 9 126328447.784 7
  21102612.457    21102615.752   -89415304.190 9  82870503.600 9
 89 11 20 16 18 29.0800000  0  3G13G12G 3
  22898991.888    22899000.907   -35606337.914 7  31389598.526 8
  23979771.738    23979780.757   -71264149.941 8 126413894.123 8
  21102336.883    21102339.343   -89416751.858 9  82869375.452 8
 89 11 20 16 18 59.0800000  0  3G13G12G 3
  22909379.878    22909389.155   -35551754.197 9  31432131.101 9
  24000645.196    24000653.739   -71154460.937 9 126499365.703 7
  21102090.239    21102093.834   -89418048.448 9  82868365.053 8
 89 11 20 16 19 29.0800000  0  3G13G12G 3
  22919777.533    22919786.717   -35497107.929 8  31474712.408 9
  24021524.530    24021534.089   -71044743.589 9 126584859.327 7
  21101871.656    21101876.265   -89419194.485 9  82867471.962 8
 89 11 20 16 19 59.0800000  0  3G13G12G 3
  22930190.807    22930198.075   -35442396.647 8  31517344.339 9
  24042408.886    24042416.018   -70935000.004 7 126670373.411 8
  21101682.421    21101686.370   -89420188.617 9  82866697.228 9
 89 11 20 16 20 29.0800000  0  3G13G12G 3
  22940613.251    22940621.889   -35387620.492 9  31560026.888 9
  24063295.739    24063305.872   -70825234.196 8 126755904.816 7
  21101521.006    21101526.573   -89421031.072 9  82866040.688 8
 89 11 20 16 20 59.0800000  0  3G13G12G 3
  22951047.640    22951058.461   -35332780.180 8  31602759.383 9
  24084187.982    24084197.535   -70715449.899 7 126841450.628 7
  21101392.709    21101394.291   -89421722.054 9  82865502.187 8
 89 11 20 16 21 29.0800000  0  3G13G12G 3
  22961499.791    22961504.963   -35277874.813 9  31645542.584 8
  24105081.641    24105092.016   -70605649.289 7 126927009.120 8
  21101289.740    21101293.285   -89422260.146 9  82865082.811 9
 89 11 20 16 21 59.0800000  0  3G13G12G 3
  22971959.461    22971966.337   -35222904.826 9  31688376.171 8
  24125978.617    24125989.441   -70495836.694 6 127012576.929 7
  21101214.031    21101219.609   -89422646.502 9  82864781.676 8
 89 11 20 16 22 29.0800000  0  3G13G12G 3
  22982431.466    22982439.578   -35167869.043 9  31731260.998 8
  24146878.207    24146888.452   -70386014.455 7 127098152.280 6
  21101170.760    21101175.631   -89422880.012 8  82864599.660 8
 89 11 20 16 22 59.0800000  0  3G13G12G 3
  22992917.614    22992925.981   -35112766.221 9  31774198.034 9
  24167775.723    24167787.078   -70276185.075 6 127183733.194 8
  21101155.276    21101160.373   -89422959.446 9  82864537.694 9
 89 11 20 16 23 29.0800000  0  3G13G12G 3
  23003417.328    23003425.904   -35057596.600 9  31817187.104 8
  24188676.182    24188689.854   -70166352.300 6 127269316.770 7
  21101170.578    21101174.020   -89422885.186 9  82864595.496 9
 89 11 20 16 23 59.0800000  0  3G13G12G 3
  23013929.650    23013932.648   -35002360.529 9  31860228.066 7
  24209576.730    24209589.228   -70056520.366 5 127354899.711 6
  21101213.976    21101217.733   -89422657.846 9  82864772.577 8
 89 11 20 16 24 29.0800000  0  3G13G12G 3
  23024450.043    23024459.351   -34947057.327 8  31903321.244 7
  24230481.791    24230488.340   -69946692.555 4 127440479.408 5
  21101285.858    21101290.428   -89422276.879 9  82865069.365 9
 89 11 20 16 24 59.0800000  0  3G13G12G 3
  23034986.353    23034997.731   -34891686.137 8  31946467.412 9
  24251376.320    24251387.434   -69836870.951 3 127526054.257 4
  21101387.526    21101391.418   -89421741.060 9  82865486.819 8
 89 11 20 16 25 29.0800000  0  3G13G12G 3
  23045538.629    23045548.302   -34836246.591 9  31989666.861 8
  24272278.007    24272282.533   -69727059.035 3 127611621.593 2
  21101519.985    21101523.529   -89421050.271 9  82866025.047 8
 89 11 20 16 25 59.0800000  0  3G13G12G 3
  23056100.941    23056108.136   -34780739.539 8  32032918.917 8
  24293173.523    24293178.588   -69617261.020 1 127697178.076 1
  21101680.716    21101684.798   -89420205.660 9  82866683.147 8
 89 11 20 16 26 29.0800000  0  3G13G12G 3
  23066677.088    23066685.246   -34725163.976 8  32076224.350 8
  24314063.081    24314062.708   -69507479.394 1 127782721.753 1
  21101871.098    21101874.268   -89419206.021 9  82867462.025 8
 89 11 20 16 26 59.0800000  0  3G13G12G 3
  23077265.542    23077274.519   -34669518.267 9  32119584.391 8
                  24337099.275  -147411935.623 1
  21102090.163    21102094.350   -89418049.431 9  82868363.216 8
 89 11 20 16 27 29.0800000  0  3G13G12G 3
  23087870.914    23087877.519   -34613802.556 9  32162999.106 9
                  24382651.471  -147300173.133 1
  21102340.278    21102345.690   -89416736.286 9  82869386.408 8
 89 11 20 16 27 59.0800000  0  3G13G12G 3
  23098486.107    23098493.741   -34558017.077 9  32206468.114 8
                  24504161.671  -147189333.018 1
  21102620.044    21102624.682   -89415267.192 9  82870531.067 8
 89 11 20 16 28 29.0800000  0  3G13G12G 3
  23109111.486    23109119.992   -34502161.996 8  32249991.278 7
                  26499560.083  -147785676.421 1
  21102929.883    21102933.505   -89413642.304 9  82871797.175 8
